[[{"header":{"parameterUnit":"m.s-1","parameterCategory":1,"la1":30.6,"la2":28.766,"lo1":-90.7593,"lo2":-88.6598,"dy":0.0162,"dx":0.0183,"nx":116,"ny":114,"refTime":"2024-07-03T18:00:00:Z","depth":0,"parameterNumber":2,"parameterNumberName":"U-component_of_WINDS"},"data":[0.0,0.0,0.0,0.0,0.0,0.0,0.0,0.0,0.0,0.0,0.0,0.0,0.0,0.0,0.0,0.0,0.0,0.0,0.0,0.0,0.0,0.0,0.0,0.0,0.0,0.0,0.0,0.0,0.0,0.0,0.0,0.0,0.0,0.0,0.0,0.0,0.0,0.0,0.0,0.0,0.0,0.0,0.0,0.0,0.0,0.0,0.0,0.0,0.0,0.0,0.0,0.0,0.0,0.0,0.0,0.0,0.0,0.0,0.0,0.0,0.0,0.0,0.0,0.0,0.0,0.0,0.0,0.0,0.0,0.0,0.0,0.0,0.0,0.0,0.0,0.0,0.0,0.0,0.0,0.0,0.0,0.0,0.0,0.0,0.0,0.0,0.0,0.0,0.0,0.0,0.0,0.0,0.0,0.0,0.0,0.0,0.0,0.0,0.0,0.0,0.0,0.0,0.0,0.0,0.0,0.0,0.0,0.0,0.0,0.0,0.0,0.0,0.0,0.0,0.0,0.0,0.0,0.0,0.0,0.0,0.0,0.0,0.0,0.0,0.0,0.0,0.0,0.0,0.0,0.0,0.0,0.0,0.0,0.0,0.0,0.0,0.0,0.0,0.0,0.0,0.0,0.0,0.0,0.0,0.0,0.0,0.0,0.0,0.0,0.0,0.0,0.0,0.0,0.0,0.0,0.0,0.0,0.0,0.0,0.0,0.0,0.0,0.0,0.0,0.0,0.0,0.0,0.0,0.0,0.0,0.0,0.0,0.0,0.0,0.0,0.0,0.0,0.0,0.0,0.0,0.0,0.0,0.0,0.0,0.0,0.0,0.0,0.0,0.0,0.0,0.0,0.0,0.0,0.0,0.0,0.0,0.0,0.0,0.0,0.0,0.0,0.0,0.0,0.0,0.0,0.0,0.0,0.0,0.0,0.0,0.0,0.0,0.0,0.0,0.0,0.0,0.0,0.0,0.0,0.0,0.0,0.0,0.0,0.0,0.0,0.0,0.0,0.0,0.0,0.0,0.0,0.0,0.0,0.0,0.0,0.0,0.0,0.0,0.0,0.0,0.0,0.0,0.0,0.0,0.0,0.0,0.0,0.0,0.0,0.0,0.0,0.0,0.0,0.0,0.0,0.0,0.0,0.0,0.0,0.0,0.0,0.0,0.0,0.0,0.0,0.0,0.0,0.0,0.0,0.0,0.0,0.0,0.0,0.0,0.0,0.0,0.0,0.0,0.0,0.0,0.0,0.0,0.0,0.0,0.0,0.0,0.0,0.0,0.0,0.0,0.0,0.0,0.0,0.0,0.0,0.0,0.0,0.0,0.0,0.0,0.0,0.0,0.0,0.0,0.0,0.0,0.0,0.0,0.0,0.0,0.0,0.0,0.0,0.0,0.0,0.0,0.0,0.0,0.0,0.0,0.0,0.0,0.0,0.0,0.0,0.0,0.0,0.0,0.0,0.0,0.0,0.0,0.0,0.0,0.0,0.0,0.0,0.0,0.0,0.0,0.0,0.0,0.0,0.0,0.0,0.0,0.0,0.0,0.0,0.0,0.0,0.0,0.0,0.0,0.0,0.0,0.0,0.0,0.0,0.0,0.0,0.0,0.0,0.0,0.0,0.0,0.0,0.0,0.0,0.0,0.0,0.0,0.0,0.0,0.0,0.0,0.0,0.0,0.0,0.0,0.0,0.0,0.0,0.0,0.0,0.0,0.0,0.0,0.0,0.0,0.0,0.0,0.0,0.0,0.0,0.0,0.0,0.0,0.0,0.0,0.0,0.0,0.0,0.0,0.0,0.0,0.0,0.0,0.0,0.0,0.0,0.0,0.0,0.0,0.0,0.0,0.0,0.0,0.0,0.0,0.0,0.0,0.0,0.0,0.0,0.0,0.0,0.0,0.0,0.0,0.0,0.0,0.0,0.0,0.0,0.0,0.0,0.0,0.0,0.0,0.0,0.0,0.0,0.0,0.0,0.0,0.0,0.0,0.0,0.0,0.0,0.0,0.0,0.0,0.0,0.0,0.0,0.0,0.0,0.0,0.0,0.0,0.0,0.0,0.0,0.0,0.0,0.0,0.0,0.0,0.0,0.0,0.0,0.0,0.0,0.0,0.0,0.0,0.0,0.0,0.0,0.0,0.0,0.0,0.0,0.0,0.0,0.0,0.0,0.0,0.0,0.0,0.0,0.0,0.0,0.0,0.0,0.0,0.0,0.0,0.0,0.0,0.0,0.0,0.0,0.0,0.0,0.0,0.0,0.0,0.0,0.0,0.0,0.0,0.0,0.0,0.0,0.0,0.0,0.0,0.0,0.0,0.0,0.0,0.0,0.0,0.0,0.0,0.0,0.0,0.0,0.0,0.0,0.0,0.0,0.0,0.0,0.0,0.0,0.0,0.0,0.0,0.0,0.0,0.0,0.0,0.0,0.0,0.0,0.0,0.0,0.0,0.0,0.0,0.0,0.0,0.0,0.0,0.0,0.0,0.0,0.0,0.0,0.0,0.0,0.0,0.0,0.0,0.0,0.0,0.0,0.0,0.0,0.0,0.0,0.0,0.0,0.0,0.0,0.0,0.0,0.0,0.0,0.0,0.0,0.0,0.0,0.0,0.0,0.0,0.0,0.0,0.0,0.0,0.0,0.0,0.0,0.0,0.0,0.0,0.0,0.0,0.0,0.0,0.0,0.0,0.0,0.0,0.0,0.0,0.0,0.0,0.0,0.0,0.0,0.0,0.0,0.0,0.0,0.0,0.0,0.0,0.0,0.0,0.0,0.0,0.0,0.0,0.0,0.0,0.0,0.0,0.0,0.0,0.0,0.0,0.0,0.0,0.0,0.0,0.0,0.0,0.0,0.0,0.0,0.0,0.0,0.0,0.0,0.0,0.0,0.0,0.0,0.0,0.0,0.0,0.0,0.0,0.0,0.0,0.0,0.0,0.0,0.0,0.0,0.0,0.0,0.0,0.0,0.0,0.0,0.0,0.0,0.0,0.0,0.0,0.0,0.0,0.0,0.0,0.0,0.0,0.0,0.0,0.0,0.0,0.0,0.0,0.0,0.0,0.0,0.0,0.0,0.0,0.0,0.0,0.0,0.0,0.0,0.0,0.0,0.0,0.0,0.0,0.0,0.0,0.0,0.0,0.0,0.0,0.0,0.0,0.0,0.0,0.0,0.0,0.0,0.0,0.0,0.0,0.0,0.0,0.0,0.0,0.0,0.0,0.0,0.0,0.0,0.0,0.0,0.0,0.0,0.0,0.0,0.0,0.0,0.0,0.0,0.0,0.0,0.0,0.0,0.0,0.0,0.0,0.0,0.0,0.0,0.0,0.0,0.0,0.0,0.0,0.0,0.0,0.0,0.0,0.0,0.0,0.0,0.0,0.0,0.0,0.0,0.0,0.0,0.0,0.0,0.0,0.0,0.0,0.0,0.0,0.0,0.0,0.0,0.0,0.0,0.0,0.0,0.0,0.0,0.0,0.0,0.0,0.0,0.0,0.0,0.0,0.0,0.0,0.0,0.0,0.0,0.0,0.0,0.0,0.0,0.0,0.0,0.0,0.0,0.0,0.0,0.0,0.0,0.0,0.0,0.0,0.0,0.0,0.0,0.0,0.0,0.0,0.0,0.0,0.0,0.0,0.0,0.0,0.0,0.0,0.0,0.0,0.0,0.0,0.0,0.0,0.0,0.0,0.0,0.0,0.0,0.0,0.0,0.0,0.0,0.0,0.0,0.0,0.0,0.0,0.0,0.0,0.0,0.0,0.0,0.0,0.0,0.0,0.0,0.0,0.0,0.0,0.0,0.0,0.0,0.0,0.0,0.0,0.0,0.0,0.0,0.0,0.0,0.0,0.0,0.0,0.0,0.0,0.0,0.0,0.0,0.0,0.0,0.0,0.0,0.0,0.0,0.0,0.0,0.0,0.0,0.0,0.0,0.0,0.0,0.0,0.0,0.0,0.0,0.0,0.0,0.0,0.0,0.0,0.0,0.0,0.0,0.0,0.0,0.0,0.0,0.0,0.0,0.0,0.0,0.0,0.0,0.0,0.0,0.0,0.0,0.0,0.0,0.0,0.0,0.0,0.0,0.0,0.0,0.0,0.0,0.0,0.0,0.0,0.0,0.0,0.0,0.0,0.0,0.0,0.0,0.0,0.0,0.0,0.0,0.0,0.0,0.0,0.0,0.0,0.0,0.0,0.0,0.0,0.0,0.0,0.0,0.0,0.0,0.0,0.0,0.0,0.0,0.0,0.0,0.0,0.0,0.0,0.0,0.0,0.0,0.0,0.0,0.0,0.0,0.0,0.0,0.0,0.0,0.0,0.0,0.0,0.0,0.0,0.0,0.0,0.0,0.0,0.0,0.0,0.0,0.0,0.0,0.0,0.0,0.0,0.0,0.0,0.0,0.0,0.0,0.0,0.0,0.0,0.0,0.0,0.0,0.0,0.0,0.0,0.0,0.0,0.0,0.0,0.0,0.0,0.0,0.0,0.0,0.0,0.0,0.0,0.0,0.0,0.0,0.0,0.0,0.0,0.0,0.0,0.0,0.0,0.0,0.0,0.0,0.0,0.0,0.0,0.0,0.0,0.0,0.0,0.0,0.0,0.0,0.0,0.0,0.0,0.0,0.0,0.0,0.0,0.0,0.0,0.0,0.0,0.0,0.0,0.0,0.0,0.0,0.0,0.0,0.0,0.0,0.0,0.0,0.0,0.0,0.0,0.0,0.0,0.0,0.0,0.0,0.0,0.0,0.0,0.0,0.0,0.0,0.0,0.0,0.0,0.0,0.0,0.0,0.0,0.0,0.0,0.0,0.0,0.0,0.0,0.0,0.0,0.0,0.0,0.0,0.0,0.0,0.0,0.0,0.0,0.0,0.0,0.0,0.0,0.0,0.0,0.0,0.0,0.0,0.0,0.0,0.0,0.0,0.0,0.0,0.0,0.0,0.0,0.0,0.0,0.0,0.0,0.0,0.0,0.0,0.0,0.0,0.0,0.0,0.0,0.0,0.0,0.0,0.0,0.0,0.0,0.0,0.0,0.0,0.0,0.0,0.0,0.0,0.0,0.0,0.0,0.0,0.0,0.0,0.0,0.0,0.0,0.0,0.0,0.0,0.0,0.0,0.0,0.0,0.0,0.0,0.0,0.0,0.0,0.0,0.0,0.0,0.0,0.0,0.0,0.0,0.0,0.0,0.0,0.0,0.0,0.0,0.0,0.0,0.0,0.0,0.0,0.0,0.0,0.0,0.0,0.0,0.0,0.0,0.0,0.0,0.0,0.0,0.0,0.0,0.0,0.0,0.0,0.0,0.0,0.0,0.0,0.0,0.0,0.0,0.0,0.0,0.0,0.0,0.0,0.0,0.0,0.0,0.0,0.0,0.0,0.0,0.0,0.0,0.0,0.0,0.0,0.0,0.0,0.0,0.0,0.0,0.0,0.0,0.0,0.0,0.0,0.0,0.0,0.0,0.0,0.0,0.0,0.0,0.0,0.0,0.0,0.0,0.0,0.0,0.0,0.0,0.0,0.0,0.0,0.0,0.0,0.0,0.0,0.0,0.0,0.0,0.0,0.0,0.0,0.0,0.0,0.0,0.0,0.0,0.0,0.0,0.0,0.0,0.0,0.0,0.0,0.0,0.0,0.0,0.0,0.0,0.0,0.0,0.0,0.0,0.0,0.0,0.0,0.0,0.0,0.0,0.0,0.0,0.0,0.0,0.0,0.0,0.0,0.0,0.0,0.0,0.0,0.0,0.0,0.0,0.0,0.0,0.0,0.0,0.0,0.0,0.0,0.0,0.0,0.0,0.0,0.0,0.0,0.0,0.0,0.0,0.0,0.0,0.0,0.0,0.0,0.0,0.0,0.0,0.0,0.0,0.0,0.0,0.0,0.0,0.0,0.0,0.0,0.0,0.0,0.0,0.0,0.0,0.0,0.0,0.0,0.0,0.0,0.0,0.0,0.0,0.0,0.0,0.0,0.0,0.0,0.0,0.0,0.0,0.0,0.0,0.0,0.0,0.0,0.0,0.0,0.0,0.0,0.0,0.0,0.0,0.0,0.0,0.0,0.0,0.0,0.0,0.0,0.0,0.0,0.0,0.0,0.0,0.0,0.0,0.0,0.1064,0.1665,0.0,0.0,0.0,0.0,0.0,0.0,0.0,0.0,0.0,0.0,0.0,0.0,0.0,0.0,0.0,0.0,0.0,0.0,0.0,0.0,0.0,0.0,0.0,-0.8891,-0.8877,-0.8806,-0.8559,-0.8361,-0.8253,0.0,0.0,0.0,0.0,0.0,-0.7899,-0.8578,-0.8923,-0.8923,-1.0,-1.0538,-1.0538,-1.0529,-1.0331,-0.9946,0.0,0.0,0.0,0.0,0.0,0.0,0.0,0.0,0.0,0.0,0.0,0.0,0.0,0.0,0.0,0.0,0.0,0.0,0.0,0.0,0.0,0.0,0.0,0.0,0.0,0.0,0.0,0.0,0.0,0.0,0.0,0.0,0.0,0.0,0.0,0.0,0.0,0.0,0.0,0.0,0.0,0.0,0.0,0.0,0.0,0.0,0.0,0.0,0.0,0.0,0.0,0.0,0.0,0.0,0.0,0.0,0.0,0.0,0.0,0.0,0.0,0.0,0.0,0.0,0.0,0.0,0.0,0.0,0.0,0.0,0.3702,0.5042,0.0,0.0,0.0,0.0,0.0,0.0,0.0,0.0,0.0,0.0,0.0,0.0,0.0,0.0,0.0,0.0,0.0,0.0,0.0,0.0,0.0,-0.8891,-0.8891,-0.8891,-0.8951,-0.9078,-0.8776,-0.8578,-0.8583,-0.8273,0.0,0.0,0.0,-0.8101,-0.8145,-0.9149,-0.9703,-0.9746,-1.0926,-1.1629,-1.1899,-1.2559,-1.2517,-1.1851,-1.138,0.0,0.0,0.0,0.0,0.0,0.0,0.0,0.0,0.0,0.0,0.0,0.0,0.0,0.0,0.0,0.0,0.0,0.0,0.0,0.0,0.0,0.0,0.0,0.0,0.0,0.0,0.0,0.0,0.0,0.0,0.0,0.0,0.0,0.0,0.0,0.0,0.0,0.0,0.0,0.0,0.0,0.0,0.0,0.0,0.0,0.0,0.0,0.0,0.0,0.0,0.0,0.0,0.0,0.0,0.0,0.0,0.0,0.0,0.0,0.0,0.0,0.0,0.0,-1.6515,-1.5248,-1.272,-0.7588,-0.3612,-0.05,0.4413,0.6849,0.7108,0.4729,0.0,0.0,0.0,0.0,0.0,0.0,0.0,0.0,0.0,0.0,0.0,0.0,0.0,0.0,0.0,0.0,0.0,0.0,0.0,-0.8891,-0.8891,-0.8891,-0.9162,-0.979,-0.9493,-0.9297,-0.9352,-0.8996,0.0,0.0,-0.8462,-0.888,-0.9109,-0.993,-1.0484,-1.072,-1.2303,-1.376,-1.5003,-1.5113,-1.5105,-1.4952,-1.3338,-1.234,-1.1823,0.0,0.0,0.0,0.0,0.0,0.0,0.0,0.0,0.0,0.0,0.0,0.0,0.0,0.0,0.0,0.0,0.0,0.0,0.0,0.0,0.0,0.0,0.0,0.0,0.0,0.0,0.0,0.0,0.0,0.0,0.0,0.0,0.0,0.0,0.0,0.0,0.0,0.0,0.0,0.0,0.0,-1.0096,-1.4173,0.0,0.0,0.0,0.0,0.0,0.0,0.0,0.0,0.0,0.0,0.0,0.0,0.0,-1.7531,-1.8654,-1.8994,-1.8292,-1.6515,-1.6515,-1.5248,-1.2779,-0.9647,-0.6676,-0.3561,0.2297,0.0,0.8358,0.5562,0.0,0.0,0.0,0.0,0.0,0.0,0.0,0.0,0.0,0.0,0.0,0.0,0.0,0.0,0.0,0.0,0.0,0.0,0.0,0.0,0.0,-0.9272,-0.965,-0.9967,-1.0004,-1.0023,-1.0061,-0.9502,-0.9129,-0.9029,-0.9124,-0.9371,-0.9804,-1.067,-1.1719,-1.2925,-1.4063,-1.4868,-1.5329,-1.5949,-1.6022,-1.5651,-1.546,-1.4797,-1.3769,-1.2439,0.0,0.0,0.0,0.0,0.0,0.0,0.0,0.0,0.0,0.0,0.0,0.0,0.0,0.0,0.0,0.0,0.0,0.0,0.0,0.0,0.0,0.0,0.0,0.0,0.0,0.0,0.0,0.0,0.0,0.0,0.0,0.0,0.0,0.0,0.0,0.0,0.0,0.0,0.0,-0.9383,-1.31,-1.7621,-1.7821,-1.4377,0.0,0.0,0.0,0.0,0.0,0.0,0.0,0.0,0.0,-2.0272,-1.9382,-1.9129,-1.9703,-1.9682,-1.8612,-1.6515,-1.6515,-1.5932,-1.4835,-1.2248,-0.9574,-0.6789,-0.4096,-0.1356,0.1356,0.1771,0.1187,-0.0256,0.0,0.0,0.0,0.0,-1.7044,-1.9525,0.0,0.0,0.0,0.0,0.0,0.0,0.0,0.0,0.0,0.0,0.0,0.0,-0.8891,-0.9557,-1.0077,-1.0254,-1.0568,-1.0768,0.0,-1.0076,-0.9717,-0.9905,-0.9748,-0.9943,-1.0543,-1.1729,-1.3196,-1.4919,-1.5564,-1.5767,-1.5552,-1.6524,-1.6678,-1.6161,-1.7025,-1.6758,-1.5515,-1.41,-1.3231,0.0,0.0,0.0,0.0,0.0,0.0,0.0,0.0,0.0,0.0,0.0,0.0,0.0,0.0,0.0,0.0,0.0,0.0,0.0,0.0,0.0,0.0,0.0,0.0,0.0,0.0,0.0,0.0,0.0,0.0,0.0,0.0,0.0,0.0,0.0,0.0,0.0,0.0,-1.1241,-1.5292,-1.873,-1.8707,-1.4787,0.0,0.0,0.0,0.0,0.0,0.0,-1.6734,-2.0303,-2.231,-2.231,-2.0607,-1.9682,-1.9682,-1.9682,-1.8893,-1.7312,-1.6752,-1.6515,-1.6429,-1.4658,-1.2355,-0.9825,-0.9825,-0.8629,-0.636,-0.2659,-0.1174,-0.1452,-0.4438,-0.7365,-1.0411,-1.4835,-1.786,-1.9682,0.0,0.0,0.0,0.0,0.0,0.0,0.0,0.0,0.0,0.0,0.0,-0.8891,-0.8891,-0.9557,-1.0271,-1.0978,-1.1287,-1.1476,0.0,0.0,-1.0231,-0.9901,-1.0193,-1.0711,-1.1505,-1.3388,-1.4931,-1.6104,-1.6475,-1.6667,-1.6736,-1.7412,-1.7553,-1.7247,-1.7618,-1.7375,-1.6663,-1.5935,-1.5082,-1.4085,0.0,0.0,0.0,0.0,0.0,0.0,0.0,0.0,0.0,0.0,0.0,0.0,0.0,0.0,0.0,0.0,0.0,0.0,0.0,0.0,0.0,0.0,0.0,0.0,0.0,0.0,0.0,0.0,0.0,0.0,0.0,0.0,0.0,0.0,0.0,0.0,0.0,0.0,0.0,-1.6004,-1.5986,0.0,0.0,0.0,0.0,-1.5611,-1.8061,-1.9409,-1.9488,-2.128,-2.231,-2.231,-2.0607,-1.9682,-1.9682,-1.9682,-1.9646,-1.9522,-1.747,-1.6515,-1.6515,-1.638,-1.5011,-1.2676,-1.2676,-1.2618,-1.2075,-0.6518,-0.4293,-0.4565,-0.7441,-1.0273,-1.3002,-1.5561,-1.786,-1.9682,0.0,0.0,0.0,-0.8891,-0.8891,-0.8891,-0.8891,-0.8891,-0.8891,-0.8891,-0.8891,-0.8891,0.0,-0.9557,-1.0072,-1.0247,-1.1011,-1.1356,-1.1043,0.0,-1.093,-1.1432,-1.139,-1.2072,-1.3567,-1.4903,-1.6137,-1.7227,-1.7617,-1.8054,-1.8549,-1.8748,-1.8636,-1.8329,-1.8168,-1.7979,-1.7711,-1.6766,-1.6075,-1.546,-1.4092,-1.2776,0.0,0.0,0.0,0.0,0.0,0.0,0.0,0.0,0.0,0.0,0.0,0.0,0.0,0.0,0.0,0.0,0.0,0.0,0.0,0.0,0.0,0.0,0.0,0.0,0.0,0.0,0.0,0.0,0.0,0.0,0.0,0.0,0.0,0.0,0.0,0.0,0.0,-1.9743,-1.8259,0.0,-1.6388,-1.6362,-1.6944,-1.8464,-1.9288,-1.9682,-1.9682,-2.0277,-2.064,-2.064,-2.0015,-1.9682,-1.9682,-1.9682,-2.0528,-2.2203,-2.1439,-2.0195,-1.8631,-1.8631,-1.7366,-1.5203,-1.5203,-1.5203,-1.5084,-1.3051,-1.0284,-0.7543,-1.0356,-1.2971,-1.5493,-1.774,-1.905,-1.9682,-0.8891,-0.8891,0.0,-0.8891,-0.8891,-0.8891,-0.8891,-0.8891,-0.8891,-0.8891,-0.912,-0.9272,-0.9272,-1.0093,-1.0614,-1.0516,-1.1172,-1.1424,-1.1062,-1.0947,-1.1213,-1.193,-1.2209,-1.3297,-1.5407,-1.618,-1.716,-1.8364,-1.8751,-1.9063,-1.9329,-1.9516,-1.9427,-1.909,-1.8943,-1.8883,-1.8842,-1.811,-1.7373,-1.6543,-1.5525,-1.4379,-1.3173,0.0,0.0,0.0,0.0,0.0,0.0,0.0,0.0,0.0,0.0,0.0,0.0,0.0,0.0,0.0,0.0,0.0,0.0,0.0,0.0,0.0,0.0,0.0,0.0,0.0,0.0,0.0,0.0,0.0,0.0,0.0,0.0,0.0,0.0,-1.7004,-2.0069,-2.2073,-2.0551,-1.9644,-2.0492,-2.0573,-2.0337,-1.9754,-1.9682,-2.0079,-2.0954,-2.1006,-2.1006,-2.1006,-2.1006,-2.1006,-2.1006,-2.1006,-2.1882,-2.3602,-2.3602,-2.2271,-1.9805,-1.9805,-1.9001,-1.7626,-1.7626,-1.7626,-1.7626,-1.7626,-1.5609,-1.2606,-1.3679,-1.5113,-1.6752,-1.8893,-1.9682,-1.9682,-0.8891,-0.8891,-0.8891,-0.8891,-0.8891,-0.8891,-0.8891,-0.8891,-0.8891,-0.8891,-0.954,-1.0001,-1.0001,-1.1111,-1.186,-1.186,-1.1746,-1.1663,-1.1634,-1.119,-1.1045,-1.136,-1.2622,-1.4468,-1.6877,-1.7199,-1.8054,-1.9559,-1.9865,-1.9691,-1.9127,-1.9742,-1.989,-1.9566,-1.9865,-2.001,-2.001,-2.0035,-1.9018,-1.7354,-1.7084,-1.6298,-1.5086,0.0,0.0,0.0,0.0,0.0,0.0,0.0,0.0,0.0,0.0,0.0,0.0,0.0,0.0,0.0,0.0,0.0,0.0,0.0,0.0,0.0,0.0,0.0,0.0,0.0,0.0,0.0,0.0,0.0,0.0,0.0,0.0,0.0,-1.7946,-2.0475,-2.231,-2.231,-2.231,-2.231,-2.231,-2.2245,-2.1524,-1.9818,-1.9801,-2.0917,-2.346,-2.3602,-2.3602,-2.3602,-2.3602,-2.3602,-2.3602,-2.3602,-2.3602,-2.3602,-2.3602,-2.2271,-1.9805,-1.9805,-1.9805,-1.9805,-1.9805,-1.9805,-1.9805,-1.9805,-1.9805,-1.9591,-1.7451,-1.6616,-1.6854,-1.9008,-1.9802,-1.9802,-0.8891,-0.8891,-0.8891,-0.8891,-0.8891,-0.8866,-0.8771,-0.8832,-0.8866,-0.8768,-0.9475,-1.0001,-1.0001,-1.0656,-1.1033,-1.0889,-1.0905,-1.0766,-1.0413,-1.072,-1.1447,-1.2701,-1.4947,-1.6629,-1.7607,-1.7926,-1.8967,-2.0741,-2.0519,-2.0758,-2.1393,-2.1217,-2.1114,-2.0994,-2.0552,-2.0376,-2.0376,-2.0733,-2.0246,-1.9194,-1.86,-1.7425,-1.5964,0.0,0.0,0.0,0.0,0.0,0.0,0.0,0.0,0.0,0.0,0.0,0.0,0.0,0.0,0.0,0.0,0.0,0.0,0.0,0.0,0.0,0.0,0.0,0.0,0.0,0.0,0.0,0.0,0.0,0.0,0.0,-1.9113,-2.1049,-2.1049,-2.1794,-2.231,-2.231,-2.231,-2.231,-2.231,-2.1166,-2.0216,-1.9754,-2.1455,-2.2839,-2.3557,-2.3602,-2.3602,-2.3602,-2.3602,-2.3602,-2.3602,-2.3602,-2.3602,-2.3602,-2.3602,-2.2271,-1.9805,-1.9805,-1.9805,-1.9805,-1.9805,-1.9805,-1.9805,-1.9805,-1.9805,-1.9742,-1.9133,-1.8901,-1.9168,-2.1614,-2.2525,-2.2525,-0.8891,-0.8891,-0.8891,-0.8891,-0.8891,-0.8877,-0.8794,-0.8855,-0.8877,-0.8794,-0.9761,-1.043,-1.0344,-1.0802,-1.101,-1.0682,-1.0456,-1.0207,-0.9951,-1.1045,-1.2415,-1.4061,0.0,-1.7281,-1.8548,-1.8767,-1.9784,-2.1651,-2.1432,-2.165,-2.2282,-2.2032,-2.189,-2.1874,-2.1449,-2.1249,-2.1278,-2.1551,-2.1113,-2.018,-1.9746,-1.8535,-1.693,-1.6556,-1.539,-1.3984,-1.4293,-1.3682,-1.263,-1.2016,0.0,0.0,0.0,0.0,0.0,0.0,0.0,0.0,0.0,0.0,0.0,0.0,0.0,0.0,0.0,0.0,0.0,0.0,0.0,0.0,0.0,0.0,0.0,0.0,-2.1169,-2.231,-2.231,-2.231,-2.231,-2.231,-2.231,-2.2801,-2.4027,-2.2453,-2.1321,-2.1321,-2.2734,-2.3602,-2.3602,-2.3602,-2.3602,-2.3602,-2.3602,-2.3602,-2.3602,-2.3602,-2.3602,-2.3602,-2.3602,-2.2839,-2.1369,-2.0276,-1.9805,-1.9805,-1.9805,-1.9805,-1.9805,-1.9805,-1.9805,-1.9805,0.0,0.0,0.0,0.0,-2.3602,-2.3709,-0.8891,-0.8891,-0.8891,-0.8891,-0.8891,-0.8891,-0.8877,-0.8891,-0.89,-0.8877,-1.0157,-1.0966,-1.0702,-1.1213,-1.1361,-1.086,-1.0283,-1.0035,-1.0254,-1.1955,-1.3665,-1.5224,-1.5767,-1.7085,-1.9334,-1.9402,-2.0319,-2.2183,-2.2183,-2.2226,-2.231,-2.231,-2.231,-2.231,-2.231,-2.231,-2.231,-2.231,-2.1647,-2.0603,-2.0492,-1.9451,-1.7879,-1.6877,-1.625,-1.5906,-1.5827,-1.4277,-1.2246,-1.2246,0.0,0.0,0.0,0.0,0.0,0.0,0.0,0.0,0.0,0.0,0.0,0.0,0.0,0.0,0.0,0.0,0.0,0.0,0.0,0.0,0.0,0.0,0.0,0.0,-2.231,-2.231,-2.231,-2.231,-2.231,-2.231,-2.231,-2.3469,-2.6404,-2.4839,-2.3602,-2.3602,-2.3602,-2.3602,-2.3602,-2.3602,0.0,0.0,0.0,-2.3602,-2.3602,-2.3602,-2.3602,-2.3602,-2.3602,-2.3602,-2.3501,-2.0939,-1.9805,-1.9805,-1.9805,-1.9805,-1.9805,-1.9805,-1.9805,-1.985,-2.0137,-2.1609,-2.3638,-2.3872,-2.3787,-2.3914,-0.8891,-0.8891,-0.8891,-0.8891,-0.8891,-0.8866,-0.8756,-0.8832,-0.8866,-0.8756,-0.9982,-1.0639,-1.007,-1.0767,-1.1023,-1.0382,-1.0313,-1.0727,0.0,0.0,-1.4412,-1.5265,0.0,0.0,0.0,0.0,0.0,0.0,-2.1397,-2.1718,-2.231,-2.231,-2.231,-2.231,-2.231,-2.231,-2.231,-2.231,-2.1956,-2.1327,-2.0448,-1.9506,-1.8516,-1.7507,-1.6897,-1.6535,-1.5983,-1.5469,-1.5034,-1.5034,-1.3578,-1.1797,-1.1797,0.0,0.0,0.0,0.0,0.0,0.0,0.0,0.0,0.0,0.0,0.0,0.0,0.0,0.0,0.0,0.0,0.0,0.0,0.0,0.0,-2.2226,-2.231,-2.231,-2.231,-2.231,-2.231,-2.231,-2.231,-2.3469,-2.6404,-2.4839,-2.3602,-2.3602,-2.3602,-2.3602,-2.3602,-2.3602,-2.3602,-2.3602,-2.3602,-2.3602,-2.3602,-2.3602,-2.3602,-2.3602,-2.3602,0.0,-2.3501,-2.0939,-1.9805,-1.9805,-1.9805,-1.9805,-1.9805,-1.9805,-1.9805,-1.9991,-2.2079,-2.3172,-2.3787,-2.5491,-2.5035,-2.3914,-0.8891,-0.8891,-0.8891,-0.8891,-0.8891,-0.8877,-0.8818,-0.8855,-0.8877,-0.8806,-0.9969,-1.0493,-0.9681,-1.0271,-1.047,-0.9894,-1.0521,0.0,0.0,-1.4318,-1.5408,-1.6256,0.0,0.0,0.0,0.0,0.0,0.0,0.0,-2.1574,-2.231,-2.231,-2.231,-2.231,-2.231,-2.231,-2.2274,-2.204,-2.1705,-2.1243,-2.0472,-1.978,-1.9094,-1.7563,-1.6726,-1.6274,-1.5934,-1.5799,-1.5799,-1.5799,-1.4914,-1.3812,-1.3812,-1.2875,-1.1681,0.0,0.0,0.0,0.0,0.0,0.0,0.0,0.0,0.0,0.0,0.0,0.0,0.0,0.0,-2.0061,-2.0061,0.0,-2.231,-2.231,-2.231,-2.231,-2.231,-2.231,-2.231,-2.231,-2.3604,-2.5076,-2.6556,-2.5758,-2.4721,-2.3681,-2.3602,-2.3602,-2.3602,-2.3602,-2.3602,-2.3602,-2.3602,-2.4101,-2.5142,-2.5142,-2.5142,-2.515,-2.4101,-2.3602,-2.3551,-2.2271,-2.0988,-1.9805,-1.9805,-1.9805,-1.9805,-1.9805,-2.0564,-2.1845,-2.312,-2.4225,-2.5265,-2.6307,-2.6027,-2.5303,-0.8891,-0.8891,-0.8891,-0.8891,-0.8891,-0.8891,-0.8891,-0.8891,-0.89,-0.8866,-0.9837,-1.0177,-0.9248,-0.9733,-1.0038,0.0,0.0,0.0,0.0,0.0,0.0,0.0,0.0,0.0,0.0,0.0,0.0,0.0,0.0,0.0,-2.2172,-2.2245,-2.2245,-2.2163,-2.2163,-2.2115,-2.2011,-2.1637,-2.1236,-2.0829,-2.0442,-1.9984,-1.9337,-1.7603,-1.6499,-1.5869,-1.583,-1.558,-1.5292,-1.5292,-1.5514,-1.5799,-1.5799,-1.4089,-1.1865,-1.0825,-1.0244,0.0,0.0,0.0,0.0,0.0,0.0,0.0,0.0,-1.7612,-2.231,-2.231,-2.231,-2.231,-2.231,-2.231,-2.231,-2.231,-2.231,-2.231,-2.231,-2.2801,-2.3164,-2.3164,-2.5253,-2.6691,-2.6691,-2.6691,-2.5999,-2.4341,-2.3837,-2.3602,-2.3602,-2.3602,-2.3602,-2.3602,-2.4579,-2.5584,-2.67,-2.6691,-2.6987,-2.7562,-2.5289,-2.3991,-2.3602,-2.3602,-2.2218,-1.9805,-1.9805,-1.9805,-1.9805,-1.9805,-2.1321,-2.3602,-2.3602,-2.4879,-2.6691,-2.6691,-2.6691,-2.6691,-0.8891,-0.8891,-0.8891,-0.8891,-0.8891,-0.8891,-0.8891,-0.8891,-0.8855,-0.8732,-0.9205,-0.9224,-0.8345,-0.9261,-1.0125,-1.0614,0.0,0.0,0.0,0.0,0.0,0.0,0.0,0.0,0.0,0.0,0.0,0.0,0.0,0.0,-2.1688,-2.2098,-2.2077,-2.1688,-2.1688,-2.1469,-2.1126,-2.1095,-2.0789,-2.0382,-2.0306,-1.9786,-1.8889,-1.8072,-1.7087,-1.611,-1.5891,-1.4814,-1.3486,-1.3486,-1.4533,-1.5799,-1.5799,-1.4532,-1.3016,-1.2856,0.0,-1.0332,-1.2296,-1.4256,-1.6235,-1.8122,-1.7419,-1.6083,0.0,-1.8973,-2.231,-2.231,-2.231,-2.231,-2.231,-2.231,-2.231,-2.231,-2.231,-2.231,-2.231,-2.456,-2.6201,-2.6201,-2.6497,-2.6691,-2.6691,-2.6691,-2.6615,-2.6385,-2.4641,-2.3602,-2.3602,-2.3602,-2.3602,-2.3602,-2.7972,-2.9185,-2.6716,-2.6691,-2.8036,-3.0658,-2.7729,-2.5379,-2.3602,-2.3602,-2.2218,-1.9805,-1.9805,-1.9805,-1.9805,-1.9805,-2.1321,-2.3602,-2.3602,-2.4879,-2.6691,-2.6691,-2.6691,-2.6691,-0.8891,-0.8891,-0.8891,-0.8891,-0.8891,-0.8891,-0.8891,-0.8891,-0.8855,-0.8717,-0.9105,-0.9076,-0.8201,-0.9174,-1.0144,-1.0745,-1.2141,-1.3443,-1.4518,-1.5711,0.0,0.0,0.0,0.0,0.0,0.0,0.0,0.0,0.0,0.0,-2.1252,-2.1454,-2.1454,-2.1244,-2.1244,-2.115,-2.0959,-2.0434,-2.0078,-1.9834,-1.9244,-1.8767,-1.8352,-1.7784,-1.7061,-1.627,-1.535,-1.4914,0.0,0.0,-1.4374,-1.5799,-1.5799,-1.4596,-1.3198,-1.3198,-1.2541,0.0,-1.6041,-1.6558,-1.6663,-1.9108,-1.9647,-1.9581,-1.9581,-2.0976,-2.231,-2.231,-2.231,-2.231,-2.231,-2.231,-2.231,-2.231,-2.3748,-2.4856,-2.4856,-2.5922,-2.6691,-2.6691,-2.6691,-2.6691,-2.6691,-2.6691,-2.6691,-2.6691,-2.4752,-2.4142,-2.5341,-2.5408,-2.559,-2.5909,-2.9342,-3.0581,-2.9321,-2.9313,-2.9947,-3.1173,-2.9913,-2.8119,-2.5914,-2.5914,-2.3701,-1.997,-2.3005,-2.4344,-2.4344,-2.4344,-2.4038,-2.3602,-2.3602,-2.4879,-2.6691,-2.6691,-2.6691,-2.6691,-0.8891,-0.8891,-0.8891,-0.8891,-0.8891,-0.8891,-0.8891,-0.8866,-0.8786,-0.8636,-0.8861,-0.8933,-0.8627,-0.9527,-1.0406,-1.1014,-1.259,-1.384,0.0,-1.5831,0.0,0.0,0.0,0.0,0.0,0.0,0.0,0.0,0.0,0.0,-2.0821,-2.0934,-2.0926,-2.0797,-2.0797,-2.0764,-2.0599,-1.9771,-1.9412,-1.9332,-1.8437,-1.802,-1.7807,-1.729,-1.6824,-1.6328,-1.5062,-1.481,0.0,0.0,-1.4374,-1.5799,-1.5799,-1.4596,-1.3079,-1.2459,-1.3557,-1.5516,-1.7949,-1.7785,-1.7335,-1.9246,-2.0999,-2.231,-2.231,-2.231,-2.231,-2.231,-2.231,-2.231,-2.231,-2.231,-2.231,-2.231,-2.478,-2.6691,-2.6691,-2.6691,-2.6691,-2.6691,-2.6691,-2.6691,-2.6691,-2.6691,-2.6691,-2.6691,-2.5303,-2.5486,-2.7813,-2.7934,-2.7841,-2.76,-2.93,-3.0518,-3.119,-3.119,-3.119,-3.119,-3.119,-2.9927,-2.7567,-2.6737,-2.4276,-2.0958,-2.5602,-2.7625,-2.7625,-2.7625,-2.6437,-2.4777,-2.5427,-2.6605,-2.7833,-2.7004,-2.6691,-2.6691,-0.8891,-0.8891,-0.8891,-0.8891,-0.8891,-0.8891,-0.8891,-0.8783,-0.8636,-0.8433,-0.8256,-0.8573,-0.9723,-1.0406,-1.1036,-1.1715,-1.2411,-1.3259,-1.4249,-1.5257,-1.6281,0.0,0.0,0.0,0.0,0.0,0.0,0.0,0.0,0.0,0.0,-2.0789,-2.0756,-2.0306,-2.0306,-2.0089,-1.9711,-1.9162,-1.8923,-1.8885,-1.8334,-1.7787,-1.7253,-1.6725,-1.6501,-1.6382,-1.5262,0.0,0.0,0.0,-1.4374,-1.5799,-1.5799,-1.4596,0.0,-1.0634,-1.4518,-1.8989,-1.6555,-1.7725,-1.9585,-1.966,-2.0999,-2.231,-2.231,-2.231,-2.231,-2.231,-2.231,-2.231,-2.231,-2.231,-2.231,-2.231,-2.478,-2.6691,-2.6691,-2.6691,-2.6691,-2.6691,-2.6691,-2.6691,-2.6691,-2.6691,-2.6691,-2.6691,-2.6649,-2.7924,-3.0903,-3.1055,-3.0009,-2.766,-2.766,-2.8841,-3.119,-3.119,-3.119,-3.119,-3.119,-2.9927,-2.7509,-2.4577,-2.3154,-2.3144,-2.6258,-2.7625,-2.7625,-2.7625,-2.7572,-2.7724,-3.0069,-3.1016,-3.0708,-2.7774,-2.6691,-2.6691,-0.8891,-0.8891,-0.8891,-0.8891,-0.8821,-0.876,-0.876,-0.8806,-0.8728,-0.8433,-0.853,0.0,0.0,0.0,0.0,0.0,-1.2418,-1.3115,-1.3854,-1.5102,-1.603,0.0,0.0,0.0,0.0,0.0,0.0,0.0,0.0,0.0,0.0,-2.0077,-2.0042,-1.9902,-1.9514,-1.9295,-1.9125,-1.8217,-1.782,-1.7787,-1.7229,-1.6915,-1.6733,-1.6584,-1.6052,-1.5473,0.0,0.0,0.0,0.0,-1.4123,-1.3451,-1.5244,0.0,0.0,-1.6106,-1.675,-1.693,-1.6038,-1.7725,-1.9987,-2.1134,-2.1886,-2.231,-2.231,-2.231,-2.231,-2.231,-2.1393,-2.0934,-2.2086,-2.231,-2.231,-2.231,-2.478,-2.6691,-2.6691,-2.6691,-2.6691,-2.6691,-2.6691,-2.6691,-2.6691,-2.6691,-2.6691,-2.6691,-2.8543,-2.9425,-2.8833,-2.8795,-2.8432,-2.7617,-2.7625,-2.8756,-3.119,-3.119,-3.119,-3.1143,-2.7557,-2.5403,-2.4577,-2.3577,-2.3078,-2.3239,-2.6293,-2.7625,-2.7625,-2.7625,-2.852,-3.0064,-3.0878,-3.119,-3.1072,-3.0057,-2.7545,-2.4839,-0.8891,-0.8891,-0.8891,-0.8891,-0.8783,0.0,0.0,0.0,0.0,0.0,0.0,0.0,0.0,0.0,0.0,0.0,0.0,-1.2786,-1.361,-1.4531,-1.533,0.0,0.0,0.0,-1.7503,-1.7409,0.0,0.0,0.0,0.0,0.0,-1.9226,-1.9252,-1.9073,-1.9148,-1.8968,-1.8574,-1.786,-1.735,-1.6961,-1.6417,-1.6107,-1.5913,-1.5787,-1.5618,0.0,0.0,0.0,0.0,-1.3999,-1.3219,-1.2269,-1.4952,0.0,0.0,-1.7822,-1.7785,-1.72,-1.72,-1.8868,-2.0902,-2.202,-2.231,-2.231,-2.231,-2.231,-2.2115,-2.1493,-2.0473,-2.0243,-2.1982,-2.231,-2.231,-2.231,-2.478,-2.6691,-2.6691,-2.6691,-2.6691,-2.6691,-2.6691,-2.6691,-2.6691,-2.6691,-2.6691,-2.6691,-2.8493,-2.9009,-2.7658,-2.7625,-2.7625,-2.7625,-2.7625,-2.8336,-2.9876,-2.9919,-2.9359,-2.8256,-2.4754,-2.3078,-2.3078,-2.3078,-2.3689,-2.4797,-2.6737,-2.8076,-2.8888,-2.8888,-2.9789,-3.119,-3.119,-3.065,-2.9919,-2.9919,-2.7837,-2.5348,-0.8891,-0.8891,-0.8891,0.0,0.0,0.0,0.0,0.0,0.0,0.0,0.0,0.0,0.0,0.0,0.0,0.0,0.0,0.0,-1.3494,0.0,0.0,0.0,-1.5631,-1.5833,-1.6196,-1.6494,-1.6682,0.0,0.0,0.0,0.0,0.0,-1.8394,-1.7928,-1.9072,-1.8993,-1.8009,-1.797,-1.7373,-1.6369,-1.5879,-1.5375,-1.4872,-1.4488,0.0,0.0,0.0,0.0,0.0,0.0,0.0,0.0,0.0,0.0,0.0,-1.5992,-1.777,-1.9682,-1.9682,-2.0967,-2.231,-2.231,-2.231,-2.231,-2.231,-2.2217,-2.1691,-2.005,-1.9782,-2.0345,-2.1991,-2.231,-2.231,-2.231,-2.478,-2.6691,-2.6691,-2.6691,-2.6691,-2.6691,-2.6691,-2.6759,-2.6911,-2.6919,-2.6919,-2.6919,-2.6919,-2.7114,-2.7575,-2.7625,-2.7625,-2.7625,-2.7625,-2.7625,-2.7625,-2.7625,-2.6072,-2.3078,-2.3078,-2.3078,-2.3132,-2.3245,-2.491,-2.7625,-2.7703,-2.9065,-3.119,-3.119,-3.119,-3.119,-3.119,-2.9745,-2.7625,-2.7625,-2.7668,-2.8117,0.0,0.0,0.0,0.0,0.0,0.0,0.0,0.0,0.0,0.0,0.0,0.0,0.0,0.0,0.0,0.0,0.0,0.0,-1.3111,0.0,0.0,0.0,0.0,0.0,-1.5178,-1.5737,0.0,0.0,0.0,0.0,0.0,0.0,-1.787,0.0,-1.7639,-1.7306,-1.6723,-1.6321,-1.5832,-1.5338,0.0,-1.5471,-1.5291,0.0,0.0,0.0,0.0,0.0,0.0,0.0,0.0,0.0,0.0,-1.7304,-1.7491,-1.844,-1.9166,-1.9682,-1.9682,-2.0967,-2.231,-2.231,-2.231,-2.231,-2.231,-2.13,-2.025,-1.9782,-2.0731,-2.1781,-2.2217,-2.231,-2.231,-2.231,-2.478,-2.6691,-2.6691,-2.6691,-2.6691,-2.6691,-2.6691,-2.7571,-2.9829,-3.0049,-3.0049,-3.0049,-3.0049,-2.9321,-2.7673,-2.7625,-2.7625,-2.7625,-2.7625,-2.7625,-2.7625,-2.7625,-2.6072,-2.3078,-2.3078,-2.3078,-2.3185,-2.5405,-2.6849,-2.771,-2.9516,-3.065,-3.119,-3.119,-3.119,-3.119,-3.119,-2.9745,-2.7625,-2.7625,-2.8756,-3.0377,0.0,0.0,0.0,0.0,0.0,0.0,0.0,0.0,0.0,0.0,0.0,0.0,0.0,0.0,0.0,0.0,0.0,0.0,0.0,0.0,0.0,0.0,0.0,0.0,0.0,0.0,0.0,0.0,0.0,0.0,0.0,0.0,-1.6307,-1.61,-1.6593,-1.6429,-1.5812,0.0,0.0,0.0,0.0,0.0,0.0,0.0,0.0,0.0,0.0,0.0,0.0,0.0,0.0,-1.9782,-1.9782,-1.926,-1.8781,-1.947,0.0,-1.9889,-2.064,-2.1554,-2.231,-2.231,-2.231,-2.231,-2.231,-2.1554,-2.0632,-1.9854,-2.1095,-2.231,-2.231,-2.1582,-2.1469,-2.2911,-2.5145,-2.6691,-2.6691,-2.6691,-2.6691,-2.6691,-2.8526,-3.0467,-3.2165,-3.1657,-3.119,-3.119,-3.0242,-2.9027,-2.766,-2.7625,-2.7625,-2.7625,-2.7625,-2.7625,-2.7625,-2.7625,-2.6737,-2.5071,-2.5071,-2.5071,-2.5127,-2.6842,-2.8166,-2.9247,-3.0601,-3.119,-3.119,-3.119,-3.119,-3.1095,-3.0013,-2.8795,-2.7625,-2.7625,-2.9118,-3.119,0.0,0.0,0.0,0.0,0.0,0.0,0.0,0.0,0.0,-0.9882,-1.0206,-1.0859,0.0,-1.2455,0.0,0.0,0.0,0.0,0.0,0.0,0.0,0.0,0.0,0.0,0.0,0.0,0.0,0.0,0.0,0.0,0.0,0.0,0.0,0.0,0.0,0.0,0.0,0.0,0.0,0.0,0.0,0.0,0.0,0.0,0.0,0.0,0.0,0.0,0.0,0.0,-2.231,-2.231,-2.231,-2.126,-1.998,-1.9754,-1.9846,-2.0379,-2.1886,-2.231,-2.231,-2.231,-2.231,-2.231,-2.231,-2.1997,-2.1267,-1.977,-2.0655,-2.171,-2.171,-2.0287,-2.0169,-2.3428,-2.517,-2.6333,-2.6927,-2.7019,-2.7019,-2.7019,-3.1018,-3.3798,-3.3798,-3.2205,-3.119,-3.119,-2.8973,-2.7625,-2.7625,-2.7625,-2.7625,-2.7625,-2.7625,-2.7625,-2.7625,-2.7625,-2.7625,-2.7625,-2.7625,-2.7625,-2.7625,-2.7625,-2.8934,-3.119,-3.119,-3.119,-3.1199,-3.087,-3.074,-3.051,-2.844,-2.7625,-2.7617,-2.7985,-2.9382,-3.119,0.0,0.0,0.0,0.0,0.0,0.0,0.0,0.0,0.0,0.0,0.0,0.0,0.0,0.0,0.0,0.0,0.0,0.0,0.0,0.0,0.0,0.0,0.0,0.0,0.0,0.0,0.0,0.0,0.0,0.0,0.0,0.0,0.0,0.0,0.0,0.0,0.0,0.0,0.0,0.0,0.0,0.0,0.0,0.0,0.0,0.0,0.0,0.0,0.0,0.0,-2.231,-2.231,-2.231,-2.2086,-2.1562,-2.0112,-2.0706,-2.1915,-2.2217,-2.231,-2.231,-2.231,-2.231,-2.231,-2.231,-2.0382,-1.8478,-1.8178,-1.8374,-1.8589,-1.8589,-1.8299,-1.9049,-2.2143,-2.2877,-2.4361,-2.8068,-2.8608,-2.8608,-2.8608,-3.1687,-3.3798,-3.3798,-3.2205,-3.119,-3.119,-2.8973,-2.7625,-2.7625,-2.7625,-2.7625,-2.7625,-2.7625,-2.7625,-2.7625,-2.7625,-2.7625,-2.7625,-2.7625,-2.7625,-2.7625,-2.7625,-2.8934,-3.119,-3.119,-3.119,-3.1063,-2.9073,-2.8207,-2.8158,-2.7753,-2.7625,-2.7845,-2.9832,-3.0829,-3.119,0.0,0.0,0.0,0.0,0.0,0.0,0.0,0.0,0.0,0.0,0.0,0.0,0.0,0.0,0.0,0.0,0.0,0.0,0.0,0.0,0.0,0.0,0.0,0.0,0.0,-1.2471,-1.2636,-1.2291,0.0,0.0,0.0,0.0,0.0,0.0,0.0,0.0,0.0,0.0,0.0,0.0,0.0,0.0,0.0,0.0,0.0,0.0,0.0,0.0,0.0,0.0,-2.1008,-2.231,-2.231,-2.231,-2.2152,-2.13,-2.1661,-2.231,-2.231,-2.231,-2.231,-2.231,-2.231,-2.231,-2.231,0.0,0.0,-1.7811,-1.7811,-1.7811,-1.7811,-1.7811,-1.88,-2.182,-2.231,-2.3596,-2.7278,-2.8489,-2.9608,-3.1302,-3.2862,-3.3798,-3.3798,-3.2205,-3.0691,-2.9427,-2.8248,-2.7625,-2.7625,-2.7625,-2.7625,-2.7625,-2.7625,-2.7625,-2.7625,-2.7625,-2.7625,-2.7625,-2.7625,-2.7625,-2.7625,-2.7625,-2.8934,-3.119,-3.119,-3.119,-3.1015,-2.8622,-2.7625,-2.7625,-2.7625,-2.8392,-2.9605,-3.0781,-3.119,-3.097,0.0,0.0,0.0,0.0,0.0,0.0,0.0,0.0,-1.08,-1.1644,-1.2347,-1.2814,-1.2989,-1.3005,0.0,0.0,0.0,0.0,0.0,0.0,0.0,0.0,0.0,0.0,0.0,0.0,0.0,-1.1681,-1.2291,0.0,0.0,0.0,0.0,0.0,-1.2411,0.0,0.0,0.0,0.0,0.0,0.0,0.0,0.0,0.0,0.0,0.0,0.0,0.0,0.0,0.0,-1.9392,-2.1465,-2.2107,-2.231,-2.231,-2.231,-2.231,-2.231,-2.231,-2.231,-2.231,-2.231,-2.231,-2.231,-2.231,-1.9976,-1.7811,-1.7811,-1.7811,-1.7811,-1.7811,-1.7811,-1.8589,-2.0957,-2.1896,-2.3212,-2.5807,-2.7807,-3.02,-3.3421,-3.3476,-3.3246,-3.3246,-3.2012,-3.02,-2.7803,-2.7012,-2.6625,-2.6625,-2.7232,-2.7625,-2.7625,-2.7625,-2.7625,-2.7625,-2.7625,-2.7625,-2.7625,-2.7625,-2.7625,-2.7625,-2.7625,-2.8607,-3.0468,-3.0975,-3.119,-3.1015,-2.8622,-2.7625,-2.7668,-2.8158,-2.9524,-3.119,-3.119,-3.119,-3.0768,0.0,0.0,0.0,0.0,0.0,0.0,0.0,0.0,-1.0614,-1.0967,-1.1571,-1.2264,-1.2939,-1.3005,0.0,0.0,0.0,0.0,0.0,0.0,0.0,0.0,0.0,0.0,0.0,0.0,0.0,-1.1348,-1.1719,0.0,0.0,0.0,0.0,0.0,0.0,-1.2131,-1.1939,0.0,0.0,0.0,0.0,0.0,0.0,0.0,0.0,0.0,0.0,0.0,0.0,0.0,0.0,-1.8675,-2.1448,-2.231,-2.231,-2.231,0.0,0.0,-2.231,-2.231,-2.231,-2.231,-2.231,-2.231,-2.231,0.0,-1.7811,-1.7811,-1.7811,-1.7811,-1.7811,-1.7811,-1.7896,-1.8175,-2.0526,-2.2807,-2.4233,-2.7066,-3.02,-3.3421,-3.24,-3.1428,-3.1428,-3.1291,-3.02,-2.7803,-2.5071,-2.3524,-2.3524,-2.6126,-2.7625,-2.7625,-2.7625,-2.7625,-2.7625,-2.7625,-2.7625,-2.7625,-2.7625,-2.7625,-2.7625,-2.7625,-2.771,-2.8076,-3.0242,-3.119,-3.1015,-2.8622,-2.7625,-2.7803,-3.0013,-3.1007,-3.119,-3.119,-3.119,-3.0768,0.0,0.0,0.0,0.0,0.0,0.0,0.0,-0.9482,-0.9946,-1.0788,-1.0984,-1.1384,-1.2247,-1.2181,0.0,0.0,0.0,0.0,0.0,0.0,0.0,0.0,0.0,0.0,0.0,0.0,0.0,-1.1303,-1.163,0.0,0.0,0.0,0.0,0.0,0.0,-1.2169,-1.2113,0.0,0.0,0.0,0.0,0.0,0.0,0.0,0.0,0.0,0.0,0.0,-1.7811,0.0,0.0,0.0,-1.9199,-1.9579,0.0,0.0,-2.231,-2.231,-2.231,-2.231,-2.247,-2.3251,-2.2884,-2.231,-2.231,-1.9976,-1.7811,-1.7811,-1.7811,-1.7811,-1.7811,-1.7811,-1.7811,-1.7811,-2.0963,-2.3633,-2.4132,-2.6172,-2.8772,-3.187,-3.162,-3.119,-3.119,-2.9884,-2.789,-2.5114,-2.38,-2.3078,-2.3078,-2.5957,-2.7625,-2.7625,-2.7625,-2.7625,-2.7625,-2.7625,-2.7625,-2.7625,-2.7625,-2.7625,-2.7625,-2.7625,-2.7625,-2.766,-2.8615,-2.9876,-3.1112,-3.0149,-2.9789,-2.9876,-3.0821,-3.119,-3.119,-3.119,-3.0049,-2.8315,0.0,0.0,0.0,0.0,0.0,0.0,-0.9442,-0.9362,-0.9549,-1.0452,-1.0352,-1.0575,-1.1577,-1.1149,-1.1142,-1.2002,0.0,0.0,0.0,0.0,0.0,0.0,0.0,0.0,0.0,0.0,0.0,-1.1409,-1.1767,-1.1974,0.0,0.0,-1.2141,-1.2312,0.0,0.0,0.0,0.0,0.0,0.0,0.0,0.0,0.0,0.0,0.0,0.0,0.0,0.0,0.0,0.0,0.0,0.0,0.0,0.0,0.0,0.0,-2.231,-2.2377,-2.2756,-2.2597,-2.2624,-2.3885,-2.3227,-2.231,-2.231,-1.9976,-1.7811,-1.7811,-1.7811,-1.7811,-1.7811,-1.8052,-1.8149,-1.7847,-2.1066,-2.3633,-2.3633,-2.4648,-2.6192,-2.8323,-3.0125,-3.119,-3.119,-2.9027,-2.6347,-2.3359,-2.3078,-2.3078,-2.3078,-2.5957,-2.7625,-2.7625,-2.7625,-2.7625,-2.7625,-2.673,-2.673,-2.7625,-2.7625,-2.7625,-2.7625,-2.7625,-2.7625,-2.7617,-2.8336,-2.9613,-3.119,-3.119,-3.119,-3.119,-3.119,-3.0641,-2.9863,-2.9863,-2.8509,-2.6691,0.0,0.0,0.0,0.0,0.0,0.0,0.0,-0.9236,-0.9575,-0.9785,-0.9642,-0.9937,-1.1075,-0.9954,-0.9842,-1.1647,0.0,0.0,0.0,0.0,0.0,0.0,0.0,0.0,0.0,0.0,0.0,0.0,0.0,-1.2408,-1.2591,-1.2591,-1.2591,-1.2591,0.0,0.0,0.0,0.0,0.0,0.0,0.0,0.0,0.0,0.0,0.0,0.0,0.0,0.0,0.0,0.0,0.0,0.0,0.0,-1.7811,-1.8403,0.0,-2.231,-2.257,-2.3843,-2.3251,-2.2624,-2.3885,-2.3227,-2.231,-2.231,-1.9976,-1.7811,-1.7811,-1.7811,-1.7811,-1.7811,-1.8598,-1.8954,-1.7954,-2.034,-2.231,-2.231,-2.2336,-2.2369,-2.2403,-2.7613,-3.119,-3.119,-2.9027,-2.6347,-2.3359,-2.3078,-2.3078,-2.3078,-2.5957,-2.7625,-2.7625,-2.7625,-2.7625,-2.7625,-2.4634,-2.4627,-2.7625,-2.7625,-2.7625,-2.7625,-2.7625,-2.7625,-2.7703,-3.0107,-3.119,-3.119,-3.119,-3.119,-3.119,-3.119,-2.9372,-2.6742,-2.6742,-2.6725,-2.6691,0.0,0.0,0.0,0.0,0.0,0.0,0.0,0.0,-0.8453,-0.8617,-0.8582,-0.8915,-0.986,-0.9453,-0.9694,-1.118,0.0,0.0,0.0,0.0,0.0,0.0,0.0,0.0,0.0,0.0,0.0,0.0,0.0,0.0,0.0,-1.3637,-1.3548,-1.3734,-1.2949,-1.261,0.0,0.0,0.0,0.0,0.0,0.0,-1.7811,0.0,0.0,0.0,0.0,0.0,0.0,0.0,0.0,0.0,0.0,0.0,0.0,-1.8361,-2.0669,-2.2377,-2.2782,-2.2624,-2.2405,-2.2807,-2.2597,-2.231,-2.231,-1.9976,-1.7811,-1.7811,-1.7811,-1.7811,-1.7811,-1.8626,-1.9202,-1.8885,-1.964,-2.0726,-2.2116,-2.231,-2.231,-2.231,-2.5752,-2.8924,-3.0996,-2.9027,-2.7181,-2.6233,-2.618,-2.618,-2.618,-2.7071,-2.7625,-2.7625,-2.7625,-2.6625,-2.452,-2.3577,-2.4634,-2.7625,-2.7625,-2.7625,-2.7625,-2.7625,-2.7625,-2.7703,-3.0149,-3.119,-3.119,-3.119,-3.119,-3.119,-3.119,-2.9347,-2.6691,-2.6691,-2.6691,-2.6691,0.0,0.0,0.0,0.0,0.0,0.0,0.0,0.0,-0.7956,-0.8083,-0.811,-0.8409,-0.92,-0.9014,-0.9351,-1.0612,0.0,0.0,0.0,0.0,0.0,0.0,0.0,0.0,0.0,0.0,0.0,0.0,0.0,0.0,0.0,0.0,0.0,-1.3922,-1.3225,-1.2899,0.0,0.0,0.0,0.0,0.0,0.0,-1.6136,0.0,0.0,0.0,0.0,0.0,0.0,0.0,0.0,0.0,0.0,0.0,0.0,0.0,-1.853,-2.134,-2.209,-2.1481,-2.061,-2.061,-2.061,-2.0696,-2.1079,-1.9716,-1.8367,-1.8367,-1.8065,-1.7811,-1.7811,-1.8626,-1.9305,-1.9305,-1.9939,-2.0881,-2.2105,-2.231,-2.3148,-2.5397,-2.7283,-2.9135,-3.1013,-2.9027,-2.7625,-2.7625,-2.7625,-2.7625,-2.7625,-2.7625,-2.7625,-2.7625,-2.7625,-2.6126,-2.3132,-2.3078,-2.4634,-2.7625,-2.7625,-2.7625,-2.7625,-2.7625,-2.7625,-2.7703,-3.0149,-3.119,0.0,-3.119,-3.119,-3.108,-2.9947,-2.8349,-2.6691,-2.6691,-2.6691,-2.6691,0.0,0.0,0.0,0.0,0.0,0.0,0.0,0.0,0.0,0.0,0.0,-0.8338,-0.898,-0.8649,0.0,0.0,0.0,0.0,0.0,0.0,0.0,0.0,0.0,0.0,0.0,0.0,0.0,-1.3405,-1.643,-1.7199,-1.5807,0.0,0.0,0.0,0.0,0.0,0.0,0.0,0.0,0.0,-1.5747,-1.5646,0.0,0.0,0.0,0.0,0.0,0.0,0.0,0.0,0.0,0.0,0.0,0.0,0.0,0.0,0.0,0.0,0.0,-1.9823,-1.7833,-1.7883,-1.7905,-1.814,-1.9088,-1.9305,0.0,-1.9305,-1.8551,-1.7905,-1.7905,-1.8607,-1.9193,-1.9193,-2.0931,-2.231,-2.231,-2.2488,-2.4678,-3.0218,-3.1064,-3.119,-3.119,-2.9156,-2.7803,-2.7617,-2.7625,-2.7625,-2.7625,-2.7625,-2.7625,-2.7625,-2.7625,-2.6233,-2.3465,-2.3412,-2.4854,-2.7625,-2.7625,-2.7625,-2.7625,-2.7625,-2.771,-2.7978,-3.0242,-3.119,-3.119,-3.119,-3.1133,-3.0764,-2.7973,-2.6865,-2.6841,-2.6758,-2.6691,-2.6691,0.0,0.0,0.0,0.0,0.0,0.0,0.0,0.0,0.0,0.0,0.0,-0.8108,-0.8511,-0.8243,0.0,0.0,0.0,0.0,0.0,0.0,0.0,0.0,0.0,0.0,0.0,0.0,0.0,-1.3405,-1.7123,-1.8583,-1.7895,-1.7492,0.0,0.0,0.0,0.0,0.0,0.0,0.0,0.0,-1.1538,-1.1965,0.0,0.0,0.0,0.0,-1.4241,-1.3877,0.0,0.0,0.0,0.0,0.0,0.0,0.0,0.0,-1.4899,-1.572,-1.6196,0.0,-1.7975,-1.8753,-1.8954,-1.9013,0.0,-1.9305,-1.9305,-1.9305,0.0,-1.8954,-1.8954,-1.8513,-1.814,-1.814,-2.0491,-2.231,-2.231,-2.4239,-2.6184,-2.7588,-2.9786,-3.119,-3.119,-3.0699,-2.9605,-2.7753,-2.7625,-2.7625,-2.7625,-2.7625,-2.7625,-2.7625,-2.7625,-2.7232,-2.6565,-2.6565,-2.6901,-2.7625,-2.7625,-2.7625,-2.7625,-2.7625,-2.8615,-3.0377,-3.0958,-3.119,-3.119,-3.119,-3.0551,-2.9458,-2.8736,-2.8464,-2.8325,-2.7129,-2.6691,-2.6691,0.0,0.0,0.0,0.0,0.0,0.0,0.0,0.0,0.0,0.0,0.0,0.0,0.0,0.0,0.0,0.0,0.0,0.0,0.0,0.0,0.0,0.0,0.0,0.0,0.0,0.0,0.0,0.0,0.0,-1.8726,0.0,0.0,0.0,0.0,0.0,0.0,0.0,0.0,0.0,0.0,-1.1618,0.0,0.0,0.0,0.0,0.0,-1.4497,-1.4033,0.0,-1.3405,-1.3405,-1.3405,0.0,0.0,0.0,0.0,-1.4497,-1.4497,-1.4497,-1.5364,-1.6428,-1.6967,-1.8207,-1.9305,-1.9305,0.0,0.0,0.0,0.0,-1.9305,-1.9305,-2.0092,-2.0548,-1.9957,-2.1236,-2.3031,-2.5068,-2.6754,-2.7473,-2.6774,-2.8129,-2.9677,-3.1064,-3.119,-3.065,-2.9337,-2.9247,-2.8748,-2.7668,-2.7625,-2.7625,-2.7625,-2.7625,-2.7625,-2.7625,-2.7625,-2.7625,-2.7625,-2.7625,-2.8166,-2.9247,-2.9247,-2.9202,-2.9203,-3.059,-3.0404,-2.9135,-2.9135,-2.9087,-2.8994,-2.8994,-2.8994,-2.8905,-2.8057,-2.7308,-2.6691,0.0,0.0,0.0,0.0,0.0,0.0,0.0,0.0,0.0,0.0,0.0,0.0,0.0,0.0,0.0,0.0,0.0,0.0,0.0,0.0,0.0,0.0,0.0,0.0,0.0,0.0,0.0,0.0,0.0,0.0,0.0,0.0,-1.8286,0.0,0.0,0.0,0.0,0.0,0.0,-1.3405,-1.3405,0.0,0.0,0.0,0.0,0.0,0.0,0.0,0.0,-1.3405,-1.3405,-1.3405,-1.3405,0.0,0.0,0.0,0.0,0.0,-1.4497,-1.4497,-1.4735,-1.5725,-1.8032,-1.9913,-1.9399,0.0,0.0,0.0,0.0,0.0,-1.9305,-2.1978,-2.3843,-2.2764,-2.3002,-2.4647,-2.8456,-2.8994,-2.8438,-2.6865,-2.6691,-2.7698,-3.0252,-3.0505,-3.0505,-3.0505,-3.0505,-2.9815,-2.8225,-2.7727,-2.745,-2.745,-2.745,-2.745,-2.745,-2.7911,-2.7911,-2.7458,-2.7919,-2.9202,-3.119,-3.119,-2.9803,-2.7495,-2.9592,-2.9051,-2.6725,-2.6954,-2.7825,-2.8994,-2.8994,-2.8994,-2.8994,-2.8994,-2.8175,-2.7019,0.0,0.0,0.0,0.0,0.0,0.0,0.0,0.0,0.0,0.0,0.0,0.0,0.0,0.0,0.0,0.0,0.0,0.0,0.0,0.0,0.0,0.0,0.0,0.0,0.0,0.0,0.0,0.0,0.0,0.0,-1.9289,-1.8425,-1.6142,0.0,0.0,0.0,0.0,0.0,0.0,-1.3405,-1.3405,0.0,0.0,0.0,0.0,0.0,0.0,0.0,0.0,-1.3405,-1.3405,-1.3405,-1.3405,0.0,0.0,0.0,0.0,0.0,-1.4497,-1.4497,-1.583,-2.1336,-2.3079,-2.2712,-1.9923,0.0,0.0,0.0,0.0,0.0,0.0,-2.1978,-2.4132,-2.3935,-2.6177,-2.8202,-2.8888,-2.8994,-2.8438,-2.6865,-2.6691,-2.6877,-2.7342,-2.7385,-2.7385,-2.7385,-2.7385,-2.8331,-3.0517,-2.8231,-2.6831,-2.6831,-2.6831,-2.6831,-2.6831,-2.9353,-2.9393,-2.6856,-2.9412,-3.0829,-3.119,-3.119,-3.0945,-3.0387,-2.829,-2.7122,-2.6808,-2.812,-2.8791,-2.8994,-2.8994,-2.8994,-2.8994,-2.8994,-2.8839,-2.8464,0.0,0.0,0.0,0.0,0.0,0.0,0.0,0.0,0.0,0.0,0.0,0.0,0.0,0.0,0.0,0.0,0.0,0.0,0.0,0.0,0.0,0.0,0.0,0.0,0.0,0.0,0.0,0.0,0.0,-1.5261,-1.6711,-1.6725,-1.4577,-1.0801,0.0,0.0,0.0,0.0,-1.3405,-1.3421,0.0,0.0,0.0,0.0,0.0,0.0,0.0,0.0,0.0,0.0,-1.3982,-1.3982,-1.3982,0.0,0.0,0.0,0.0,0.0,-1.4497,-1.7078,-2.0464,-2.3446,-2.2868,-2.1152,-1.9629,-1.9305,0.0,0.0,0.0,0.0,0.0,-2.318,-2.4768,-2.6511,-2.8022,-2.8994,-2.8994,-2.8994,-2.8734,-2.8029,-2.7224,-2.6691,-2.6691,-2.6691,-2.6691,-2.6691,-2.6691,-2.73,-2.8687,-2.7444,-2.6691,-2.6691,-2.6691,-2.6691,-2.6691,-2.807,-2.8061,-2.6716,-2.8103,-2.9617,-3.114,-2.9499,-2.8763,-2.8642,-2.6105,-2.5648,-2.6808,-2.8351,-2.8994,-2.8994,-2.8994,-2.8994,-2.8994,-2.8994,-2.8994,-2.8782,0.0,0.0,0.0,0.0,0.0,0.0,0.0,0.0,0.0,0.0,0.0,0.0,0.0,0.0,0.0,0.0,0.0,0.0,0.0,0.0,0.0,0.0,0.0,0.0,0.0,0.0,-1.2937,-1.4497,-1.4497,-1.428,-1.3878,-1.4552,-1.325,0.0,0.0,0.0,0.0,0.0,-1.3405,-1.3446,0.0,0.0,0.0,0.0,0.0,0.0,0.0,0.0,0.0,0.0,0.0,0.0,0.0,0.0,0.0,-1.4497,-1.4497,-1.4497,-1.4497,-1.8142,-2.2107,-2.2859,-2.173,-2.0446,-2.0446,-2.0446,-2.0446,0.0,0.0,0.0,-2.4199,-2.4199,-2.5254,-2.8494,-2.8994,-2.8994,-2.8994,-2.8994,-2.8994,-2.8994,-2.7946,-2.7246,-2.7246,-2.7246,-2.7106,-2.6725,-2.6691,-2.6691,-2.6691,-2.6691,-2.6691,-2.6691,-2.6691,-2.6691,-2.6691,-2.6691,-2.6691,-2.6691,-2.6691,-2.79,-3.0066,-2.7748,-2.6691,-2.6615,-2.5035,-2.5227,-2.6808,-2.8351,-2.8994,-2.8994,-2.8994,-2.8994,-2.8994,-2.8994,-2.8758,-2.829,0.0,0.0,0.0,0.0,0.0,0.0,0.0,0.0,0.0,0.0,0.0,0.0,0.0,0.0,0.0,0.0,0.0,0.0,0.0,0.0,0.0,0.0,0.0,0.0,0.0,-1.3295,-1.368,-1.4497,-1.4497,-1.364,-1.1993,-1.2072,-1.1933,-1.1681,0.0,0.0,0.0,0.0,-1.3405,-1.3396,-1.3463,0.0,0.0,0.0,0.0,0.0,0.0,0.0,0.0,0.0,0.0,0.0,0.0,0.0,-1.4497,-1.4497,-1.4497,-1.4497,-1.4497,-1.4836,-1.5922,-1.8904,-2.1767,-2.385,-2.385,-2.385,0.0,-2.385,-2.4034,-2.4199,-2.4199,-2.4199,-2.5254,-2.8494,-2.8994,-2.8994,-2.8994,-2.8994,-2.8994,-2.8994,-2.8896,-2.8839,-2.8839,-2.8839,-2.8228,-2.6816,-2.6691,-2.6691,-2.6691,-2.6691,-2.6691,-2.6691,-2.6691,-2.6691,-2.6691,-2.6691,-2.6691,-2.6691,-2.6691,-2.681,-2.7012,-2.6793,-2.6691,-2.6691,-2.653,-2.6573,-2.6808,-2.8351,-2.8994,-2.8994,-2.8994,-2.8994,-2.8994,-2.8994,-2.8084,-2.6841,0.0,0.0,0.0,0.0,0.0,0.0,0.0,0.0,0.0,0.0,0.0,0.0,0.0,0.0,0.0,0.0,0.0,0.0,0.0,0.0,0.0,0.0,0.0,-1.3606,-1.4074,-1.4087,-1.3991,-1.3827,-1.3152,-1.246,-1.1776,-1.0989,0.0,0.0,0.0,0.0,0.0,0.0,0.0,-1.3446,-1.3906,-1.4254,0.0,0.0,0.0,0.0,0.0,0.0,0.0,0.0,-1.4497,-1.4497,-1.4497,-1.4497,-1.4497,-1.4497,-1.4497,-1.4497,-1.4497,-1.4497,-1.5279,-1.8491,-2.0225,0.0,0.0,-2.2731,-2.4199,-2.4199,-2.4199,-2.4199,-2.4199,-2.4199,-2.5254,-2.8494,-2.8994,-2.8994,-2.8994,-2.8994,-2.8994,-2.8994,-2.8994,-2.8994,-2.8994,-2.8994,-2.8758,-2.8166,-2.812,-2.771,-2.675,-2.6691,-2.6691,-2.6691,-2.6691,-2.6691,-2.6691,-2.6691,-2.6691,-2.6691,-2.6691,-2.6691,-2.6691,-2.6691,-2.6691,-2.675,-2.771,-2.812,-2.8175,-2.8758,-2.8994,-2.8994,-2.8994,-2.8994,-2.8872,-2.7909,-2.7192,-2.6691,0.0,0.0,0.0,0.0,0.0,0.0,0.0,0.0,0.0,0.0,0.0,0.0,0.0,0.0,0.0,0.0,0.0,0.0,0.0,0.0,0.0,0.0,0.0,-1.294,-1.4478,-1.3508,-1.312,-1.3405,-1.2336,-1.1797,-1.1776,0.0,0.0,0.0,0.0,0.0,0.0,0.0,0.0,0.0,-1.4046,-1.4154,0.0,0.0,0.0,0.0,0.0,0.0,0.0,0.0,-1.4497,-1.4497,-1.4497,-1.4603,-1.4688,-1.4535,-1.4497,-1.4497,-1.4497,-1.4497,-1.5527,-1.9776,0.0,0.0,-2.084,-2.2584,-2.4199,-2.4199,-2.4199,-2.4199,-2.4199,-2.4199,-2.4994,-2.7428,-2.8498,-2.8994,-2.8994,-2.8994,-2.8994,-2.8994,-2.8994,-2.8994,-2.8994,-2.8994,-2.8994,-2.8994,-2.8994,-2.8325,-2.6783,-2.6691,-2.6691,-2.6691,-2.6691,-2.6691,-2.6691,-2.6691,-2.6691,-2.6691,-2.6691,-2.6691,-2.6691,-2.6691,-2.6963,-2.7473,-2.8549,-2.8994,-2.8994,-2.8994,-2.8994,-2.8994,-2.8994,-2.8994,-2.8815,-2.7277,-2.6691,-2.6691,0.0,0.0,0.0,0.0,0.0,0.0,0.0,0.0,0.0,0.0,0.0,0.0,0.0,0.0,0.0,0.0,0.0,0.0,0.0,0.0,0.0,0.0,0.0,-1.1186,-1.4378,-1.1352,-1.0925,-1.3379,-1.2316,-1.1797,-1.1797,-1.1819,0.0,0.0,0.0,0.0,0.0,0.0,0.0,0.0,-1.3707,-1.3405,-1.3487,0.0,0.0,0.0,0.0,0.0,0.0,0.0,-1.4497,-1.4497,-1.4508,0.0,-1.5107,-1.4647,-1.4499,-1.4506,-1.4533,-1.4543,-1.6096,-2.2538,0.0,0.0,-2.417,-2.4199,-2.4199,-2.4199,-2.4199,-2.4199,-2.4199,-2.4199,-2.4444,-2.5209,-2.7395,-2.8994,-2.8994,-2.8994,-2.8994,-2.8994,-2.8994,-2.8994,-2.8994,-2.8994,-2.8994,-2.8994,-2.8994,-2.8316,-2.6808,-2.6725,-2.6691,-2.6691,-2.6691,-2.6691,-2.6691,-2.6691,-2.6691,-2.6691,-2.6691,-2.6691,-2.6691,-2.6691,-2.7533,-2.8994,-2.8994,-2.8994,-2.8994,-2.8994,-2.8994,-2.8994,-2.8994,-2.8994,-2.8815,-2.7277,-2.6691,-2.6691,0.0,0.0,0.0,0.0,0.0,0.0,0.0,0.0,0.0,0.0,0.0,0.0,0.0,0.0,0.0,0.0,0.0,0.0,0.0,0.0,0.0,0.0,0.0,0.0,0.0,0.0,-1.2288,-1.2268,-1.1054,-1.0919,0.0,0.0,0.0,-1.3413,0.0,0.0,0.0,0.0,0.0,0.0,-1.4254,-1.3862,-1.343,0.0,0.0,0.0,0.0,0.0,0.0,0.0,0.0,0.0,-1.4891,0.0,-1.5171,-1.5026,-1.4757,-1.4983,-1.7261,-1.7876,0.0,-2.0262,0.0,0.0,0.0,-2.3567,0.0,-2.4199,-2.4199,-2.4199,-2.4199,-2.4199,-2.5012,-2.7493,-2.8513,-2.8994,-2.8994,-2.8994,-2.8994,-2.8994,-2.8994,-2.8994,-2.8994,-2.8994,-2.8994,-2.8994,-2.8994,-2.8791,-2.8342,-2.7277,-2.6691,-2.6691,-2.6691,-2.6691,-2.6691,-2.6691,-2.6691,-2.6691,-2.6691,-2.6691,-2.6691,-2.6691,-2.7533,-2.8994,-2.8994,-2.8994,-2.8994,-2.8994,-2.8994,-2.8994,-2.8994,-2.8994,-2.8815,-2.7277,-2.6691,-2.6691,0.0,0.0,0.0,0.0,0.0,0.0,0.0,0.0,0.0,0.0,0.0,0.0,0.0,0.0,0.0,0.0,0.0,0.0,0.0,0.0,0.0,0.0,0.0,0.0,0.0,-1.0678,-1.1172,0.0,0.0,0.0,0.0,0.0,0.0,-1.3856,0.0,-1.4338,0.0,0.0,0.0,0.0,-1.4497,-1.406,-1.3405,0.0,0.0,0.0,0.0,0.0,0.0,0.0,0.0,0.0,-1.5107,0.0,0.0,-1.6824,-1.6059,-1.5158,-1.6923,-1.8326,0.0,-2.0914,-2.2345,-2.3251,-2.2479,-2.3283,-2.4199,-2.4199,-2.4199,-2.4199,-2.4199,-2.5547,-2.7295,-2.9251,-2.9561,-2.9436,-2.9044,-2.9325,-2.9416,-2.9044,-2.8994,-2.8994,-2.8994,-2.8994,-2.8994,-2.8994,-2.8994,-2.8994,-2.8994,-2.812,-2.7622,-2.7622,-2.701,-2.6691,-2.6691,-2.6691,-2.6691,-2.6691,-2.6691,-2.6691,-2.6691,-2.6691,-2.7533,-2.8961,-2.8342,-2.8429,-2.8994,-2.8994,-2.8994,-2.8994,-2.8994,-2.8642,-2.7965,-2.7042,-2.6691,-2.6691,0.0,0.0,-0.8115,-0.8781,0.0,0.0,0.0,0.0,0.0,0.0,0.0,-0.8891,0.0,0.0,0.0,-0.8891,0.0,0.0,0.0,0.0,0.0,0.0,0.0,0.0,0.0,0.0,0.0,0.0,0.0,0.0,0.0,0.0,-1.4213,-1.4497,0.0,-1.4127,0.0,0.0,0.0,0.0,-1.4429,-1.4005,-1.3405,-1.3405,0.0,0.0,0.0,0.0,0.0,0.0,0.0,0.0,-1.5199,-1.5199,-1.5805,-1.8927,-1.7859,-1.5567,-1.5146,-1.7334,-2.0438,-2.3314,-2.3164,-2.231,-2.231,-2.3212,-2.4054,-2.418,-2.4199,-2.4228,-2.4284,-2.7395,-2.9936,-2.9936,-3.0196,-2.9985,-2.8841,-2.9658,-3.0076,-2.9218,-2.9138,-2.9093,-2.9017,-2.8994,-2.8994,-2.8994,-2.8994,-2.8994,-2.8994,-2.8994,-2.8994,-2.8994,-2.7651,-2.6841,-2.6691,-2.6691,-2.6691,-2.6691,-2.6691,-2.6691,-2.6691,-2.6691,-2.7473,-2.8725,-2.7452,-2.7701,-2.8994,-2.8994,-2.8994,-2.8994,-2.8994,-2.8057,-2.6691,-2.6691,-2.6691,-2.6657,0.0,0.0,-0.8115,-0.8781,0.0,0.0,0.0,0.0,-0.8891,-0.8891,-0.8891,-0.8891,-0.8891,-0.8434,0.0,-0.8858,-0.8891,0.0,0.0,0.0,0.0,0.0,0.0,0.0,0.0,0.0,0.0,0.0,0.0,0.0,0.0,0.0,0.0,-1.4497,0.0,-1.4408,0.0,0.0,0.0,-1.4453,-1.3862,-1.3544,-1.3405,-1.3405,-1.3405,0.0,0.0,0.0,0.0,0.0,0.0,0.0,-1.5199,-1.5199,-1.5334,-1.6074,-1.7686,-1.9181,-1.9072,-2.1057,0.0,-2.2777,-2.2497,-2.231,-2.231,-2.2525,-2.2993,-2.3985,-2.4199,-2.4383,-2.4965,-2.5796,-2.6399,-2.6399,-2.8648,-2.939,-2.6502,-2.8586,-3.033,-3.0128,-3.0099,-2.9815,-2.9058,-2.8994,-2.8994,-2.8994,-2.8994,-2.8994,-2.8994,-2.8994,-2.8994,-2.8994,-2.8667,-2.7909,-2.6725,-2.6691,-2.6691,-2.6691,-2.6691,-2.6691,-2.6691,-2.6691,-2.6865,-2.7246,-2.8112,-2.8691,-2.8994,-2.8994,-2.8994,-2.8994,-2.8994,-2.8057,-2.6691,-2.6691,-2.6691,-2.6361,0.0,0.0,0.0,0.0,0.0,0.0,0.0,0.0,-0.8891,-0.8891,-0.8891,-0.8891,-0.8891,-0.8301,0.0,0.0,-0.8891,-0.8891,0.0,0.0,0.0,0.0,0.0,0.0,0.0,0.0,0.0,0.0,0.0,0.0,0.0,0.0,0.0,-1.4497,0.0,-1.4497,0.0,0.0,-1.0672,-1.2166,-1.1786,-1.1626,-1.1626,-1.1626,-1.1473,-1.148,-1.3283,0.0,0.0,0.0,0.0,0.0,0.0,0.0,-1.5199,-1.5199,-1.6458,-1.8145,-1.9463,0.0,0.0,-2.2479,0.0,-2.231,-2.231,-2.231,-2.2659,-2.3935,-2.4199,-2.4426,-2.5161,-2.5293,-2.5293,-2.5293,-2.6793,-2.7331,-2.5543,-2.6822,-2.7956,-2.7956,-2.7956,-2.7768,-2.7278,-2.6904,-2.6704,-2.6704,-2.6704,-2.6704,-2.6704,-2.6704,-2.6704,-2.6704,-2.6704,-2.6308,-2.55,-2.4914,-2.4594,-2.4594,-2.4594,-2.4594,-2.4644,-2.6057,-2.6691,-2.6783,-2.8325,-2.8994,-2.8994,-2.8994,-2.8994,-2.8994,-2.8994,-2.8057,-2.6522,-2.511,-2.4594,-2.4374,0.0,0.0,0.0,0.0,0.0,0.0,0.0,0.0,0.0,-0.9035,-0.8957,-0.8891,-0.8891,-0.8301,-0.8121,0.0,0.0,0.0,-0.8891,0.0,0.0,0.0,0.0,0.0,0.0,0.0,0.0,0.0,0.0,0.0,0.0,0.0,0.0,-1.4313,0.0,0.0,0.0,0.0,-0.9698,-0.9691,-0.9601,-0.9568,-0.9576,-0.9666,-0.9421,-0.9448,-1.2557,-1.4088,-1.4678,-1.5071,0.0,0.0,0.0,0.0,-1.5226,-1.5207,-1.5199,-1.5797,-1.855,0.0,-2.1848,-2.1848,-2.1848,-2.1915,-2.2245,-2.231,-2.2659,-2.3935,-2.4199,-2.4426,-2.5161,-2.5293,-2.5293,-2.5293,-2.5293,-2.5293,-2.5293,-2.5293,-2.5293,-2.5293,-2.5293,-2.5293,-2.5293,-2.4761,-2.4339,-2.4218,-2.4199,-2.4199,-2.4199,-2.4199,-2.4199,-2.4199,-2.4199,-2.4199,-2.4199,-2.2951,-2.231,-2.231,-2.231,-2.231,-2.2395,-2.4831,-2.6218,-2.6783,-2.8325,-2.8994,-2.8994,-2.8994,-2.8994,-2.8994,-2.8994,-2.7763,-2.5642,-2.3207,-2.231,-2.233,0.0,0.0,0.0,0.0,0.0,0.0,0.0,0.0,0.0,0.0,-0.9188,-0.8891,-0.8891,-0.8301,-0.7935,-0.8026,-0.8559,-0.8891,0.0,0.0,0.0,0.0,0.0,0.0,0.0,0.0,0.0,0.0,0.0,0.0,0.0,0.0,0.0,-1.3567,0.0,0.0,0.0,0.0,-0.9698,-0.9658,-0.9198,-0.9003,-0.9055,-0.9525,-0.9658,-0.9664,-1.016,-1.2394,-1.5124,-1.5177,-1.528,0.0,0.0,0.0,-1.5347,-1.5226,-1.5199,-1.5797,-1.855,0.0,-2.005,0.0,-2.005,-2.0439,-2.1953,-2.231,-2.2659,-2.3935,-2.4199,-2.4426,-2.5161,-2.5293,-2.5293,-2.5293,-2.5293,-2.5293,-2.5293,-2.5293,-2.5293,-2.5293,-2.5293,-2.5293,-2.5293,-2.5213,-2.4891,-2.4256,-2.4199,-2.4199,-2.4199,-2.4199,-2.4199,-2.4199,-2.4199,-2.4199,-2.4199,-2.2951,-2.231,-2.231,-2.231,-2.231,-2.2319,-2.2716,-2.4289,-2.6783,-2.8325,-2.8994,-2.8994,-2.8994,-2.8994,-2.8994,-2.8994,-2.6503,-2.2852,-2.2454,-2.231,-2.2451,0.0,0.0,0.0,0.0,0.0,0.0,0.0,0.0,0.0,0.0,0.0,-0.8891,-0.8891,-0.8301,-0.8046,-0.8422,-0.8735,0.0,0.0,0.0,0.0,0.0,0.0,0.0,0.0,0.0,0.0,0.0,0.0,0.0,0.0,-1.3501,-1.4978,0.0,0.0,0.0,0.0,0.0,-0.9698,-0.9658,-0.9117,-0.9076,-0.9376,-0.9609,-0.9698,-0.9719,-0.9869,-1.097,-1.2651,-1.4639,-1.5347,-1.539,-1.5333,0.0,0.0,0.0,-1.5262,-1.519,-1.5119,-1.7349,-1.9682,0.0,-1.9682,-2.0147,-2.1915,-2.231,-2.2659,-2.3935,-2.4199,-2.4426,-2.5161,-2.5293,-2.5293,-2.5293,-2.5293,-2.5293,-2.5293,-2.5293,-2.5293,-2.5293,-2.5293,-2.5293,-2.5293,-2.5293,-2.499,-2.4256,-2.4199,-2.4199,-2.4199,-2.4199,-2.4199,-2.4199,-2.4199,-2.4199,-2.4199,-2.2951,-2.231,-2.231,-2.231,-2.231,-2.231,-2.231,-2.3021,-2.4313,-2.5715,-2.6319,-2.6319,-2.6319,-2.6319,-2.6319,-2.6319,-2.5098,-2.3368,-2.3368,-2.3368,-2.3436,0.0,0.0,0.0,0.0,0.0,0.0,0.0,0.0,0.0,0.0,0.0,-0.8891,-0.8891,0.0,0.0,0.0,-0.8891,0.0,0.0,0.0,0.0,0.0,0.0,0.0,0.0,0.0,0.0,0.0,0.0,0.0,-0.8292,-1.4774,-1.6766,0.0,-1.5474,0.0,0.0,0.0,0.0,-0.9465,-0.9066,-0.9138,-0.9689,-1.1471,-1.1122,-0.9732,-1.0001,-1.0118,-1.0557,-1.3209,-1.4678,-1.54,-1.54,-1.54,0.0,0.0,0.0,-1.3961,0.0,0.0,-1.9682,-1.9682,-2.0015,-2.0698,-2.2011,-2.231,-2.257,-2.3513,-2.3976,-2.4426,-2.5161,-2.5293,-2.5293,-2.5293,-2.5293,-2.5293,-2.5293,-2.5293,-2.5293,-2.5293,-2.5293,-2.5293,-2.5293,-2.5293,-2.499,-2.4256,-2.4199,-2.4199,-2.4199,-2.4199,-2.4199,-2.4199,-2.4199,-2.4199,-2.4199,-2.2951,-2.231,-2.231,-2.231,-2.231,-2.231,-2.231,-2.2479,-2.2833,-2.3792,-2.4199,-2.4199,-2.4199,-2.4199,-2.4199,-2.4199,-2.4199,-2.4199,-2.4199,-2.4199,-2.4199,0.0,0.0,0.0,0.0,0.0,0.0,0.0,0.0,0.0,0.0,0.0,-0.8891,-0.8891,-0.8869,-0.8858,-0.8891,-0.8891,0.0,0.0,0.0,0.0,0.0,0.0,0.0,0.0,0.0,0.0,0.0,0.0,0.0,-0.8973,-1.4984,-1.8228,-1.8987,-1.9042,-1.7353,-1.4488,0.0,0.0,-0.8936,-0.8913,-0.8913,-0.9666,-1.6278,-1.5016,-0.9732,-1.0001,-1.0178,-1.0322,-1.0498,-1.2725,-1.54,-1.54,-1.54,-1.5377,0.0,0.0,0.0,0.0,-1.5657,0.0,-1.9682,-2.0934,-2.218,-2.2282,-2.231,-2.231,-2.2386,-2.3368,-2.4426,-2.5161,-2.5293,-2.5293,-2.5293,-2.5293,-2.5293,-2.5293,-2.5293,-2.5293,-2.5293,-2.5293,-2.5293,-2.5293,-2.5293,-2.499,-2.4256,-2.4199,-2.4199,-2.4199,-2.4199,-2.4199,-2.4199,-2.4199,-2.4199,-2.4199,-2.2951,-2.231,-2.231,-2.231,-2.231,-2.231,-2.231,-2.2951,-2.4094,-2.417,-2.4199,-2.4199,-2.4199,-2.4199,-2.4199,-2.4199,-2.4199,-2.4199,-2.4199,-2.4199,-2.4199,0.0,0.0,0.0,0.0,0.0,0.0,0.0,0.0,0.0,0.0,0.0,0.0,0.0,-0.8891,-0.8891,-0.8891,-0.9217,0.0,0.0,0.0,0.0,0.0,0.0,0.0,0.0,0.0,0.0,0.0,0.0,-0.9241,-1.1887,-1.6577,-1.8954,-1.9222,-1.7142,-1.6729,-1.7573,-1.7573,0.0,-0.8891,-0.8891,-1.1195,-1.4955,-1.8102,-1.8133,-1.6516,-1.6605,-1.5269,-1.3443,-1.3443,-1.4262,-1.5272,-1.5272,-1.3769,-1.189,-1.1319,-1.1461,-1.1797,-1.1797,0.0,0.0,-1.7831,-2.0417,-2.231,-2.231,-2.231,-2.231,-2.231,-2.3321,-2.4426,-2.5161,-2.5293,-2.5293,-2.5293,-2.5293,-2.5293,-2.5293,-2.5293,-2.5293,-2.5293,-2.5293,-2.5293,-2.5293,-2.5293,-2.499,-2.4256,-2.4199,-2.4199,-2.4199,-2.4199,-2.4199,-2.4199,-2.4199,-2.3822,-2.2993,-2.2525,-2.231,-2.231,-2.314,-2.3082,-2.2338,-2.3164,-2.3771,-2.4199,-2.4199,-2.4199,-2.4199,-2.4199,-2.4199,-2.4199,-2.4199,-2.4199,-2.4199,-2.4199,-2.4199,-2.4199,0.0,0.0,0.0,-0.8891,0.0,-0.8968,-0.9148,-0.9312,-0.9303,-0.8946,0.0,0.0,0.0,0.0,-0.8979,-0.9158,-0.9576,0.0,0.0,0.0,0.0,0.0,0.0,0.0,0.0,0.0,0.0,0.0,0.0,0.0,0.0,-1.4853,-1.6646,-1.7601,-1.5454,-1.5692,0.0,0.0,-1.4651,-1.0407,-1.0407,-1.3371,-1.7897,-1.892,-1.9716,-2.0302,-2.0302,-1.9554,-1.8237,-1.5968,-1.5199,-1.5199,-1.5199,-1.2844,-0.9973,-0.9349,-1.0852,-1.264,-1.2404,0.0,0.0,-1.5665,-1.8581,-2.1059,-2.2082,-2.2642,-2.2951,-2.2951,-2.3808,-2.4717,-2.5213,-2.5293,-2.5293,-2.5293,-2.5293,-2.5293,-2.5293,-2.5293,-2.5293,-2.5293,-2.5293,-2.5293,-2.5293,-2.5293,-2.499,-2.4256,-2.4199,-2.4199,-2.4199,-2.4199,-2.4199,-2.4199,-2.4199,-2.3792,-2.2951,-2.2525,-2.231,-2.231,-2.358,-2.375,-2.2976,-2.3813,-2.4199,-2.4199,-2.4199,-2.4199,-2.4199,-2.4199,-2.4199,-2.4199,-2.4199,-2.4199,-2.4199,-2.4199,-2.4199,-2.4199,-1.3379,-1.1042,-0.9001,-0.8908,-0.8891,-0.9087,-0.9617,-0.9246,-0.8891,-0.8891,0.0,0.0,0.0,0.0,0.0,-0.9658,-0.9945,-1.0104,-1.0104,0.0,0.0,0.0,0.0,0.0,0.0,0.0,0.0,0.0,0.0,0.0,0.0,0.0,-1.137,-1.4359,-1.4359,-1.435,-1.4283,-1.3672,-1.3405,-1.3405,-1.3405,-1.5174,-1.7954,-1.892,-1.9785,-2.0446,-2.0339,-2.2464,-2.4312,-1.7735,-1.5438,-1.5324,-1.5228,-1.2844,-1.0052,-0.9784,-1.1985,-1.4338,0.0,0.0,0.0,-1.3405,-1.568,-1.8682,-2.1551,-2.3227,-2.4199,-2.4199,-2.478,-2.5293,-2.5293,-2.5293,-2.5303,-2.5303,-2.5303,-2.5293,-2.5293,-2.5293,-2.5293,-2.5293,-2.5293,-2.5293,-2.5293,-2.5293,-2.499,-2.4256,-2.4199,-2.4199,-2.4199,-2.4228,-2.4219,-2.4219,-2.4209,-2.417,-2.4142,-2.2926,-2.231,-2.2302,-2.3558,-2.417,-2.4199,-2.4199,-2.4199,-2.4199,-2.4199,-2.4199,-2.4199,-2.4199,-2.4199,-2.4199,-2.4199,-2.4199,-2.4199,-2.4199,-2.4199,-2.4199,-1.2973,-1.2727,-1.1466,-0.9272,-0.8891,-0.9087,-0.9617,-0.9246,-0.8891,0.0,0.0,0.0,-0.8891,-0.8891,-0.9117,-0.9658,-0.9945,-1.0104,-1.0104,-0.9918,0.0,0.0,0.0,0.0,0.0,0.0,0.0,0.0,0.0,0.0,0.0,0.0,0.0,0.0,-1.103,-1.081,-1.0575,-1.2564,-1.3405,-1.3405,-1.3405,-1.56,-1.892,-1.9193,-2.1224,-2.3626,-2.1342,-2.2698,-2.5303,-2.3431,-2.1048,-1.8465,-1.5978,-1.2844,-1.0092,-1.0011,-1.2131,-1.4453,-1.4254,0.0,0.0,0.0,0.0,0.0,-2.0263,-2.2244,-2.4199,-2.4199,-2.478,-2.5293,-2.5293,-2.5293,-2.5363,-2.5554,-2.5431,-2.5293,-2.5293,-2.5293,-2.5293,-2.5293,-2.5293,-2.5293,-2.5293,-2.5293,-2.499,-2.4256,-2.4199,-2.4199,-2.4199,-2.4717,-2.499,-2.499,-2.4476,-2.375,-2.2824,-2.2479,-2.231,-2.231,-2.2668,-2.3298,-2.4199,-2.4199,-2.4199,-2.4199,-2.4199,-2.4199,-2.4199,-2.4199,-2.4199,-2.4199,-2.4199,-2.4199,-2.4199,-2.4199,-2.4199,-2.4199,-1.2812,-1.3405,-1.2846,-1.1076,-1.1033,-1.0896,-0.986,-0.9246,-0.8891,0.0,0.0,0.0,-0.9035,-1.0018,-1.1038,-1.1653,-1.0718,-1.0047,-0.994,-0.9784,-0.9465,-0.8925,-0.8891,-0.834,0.0,0.0,0.0,0.0,0.0,0.0,0.0,0.0,0.0,0.0,-0.9367,-0.9198,-0.901,-1.078,-1.1516,-1.1736,-1.4225,-1.6053,-1.7624,-2.0654,-2.2399,-2.3171,-2.284,-2.4014,-2.5703,-2.5703,-2.3293,-1.9956,-1.7965,-1.4978,-1.2228,-1.2228,-1.3448,-1.5037,-1.6186,-1.4982,-1.3405,-1.3405,0.0,0.0,-1.7488,-1.9812,-2.1767,-2.0427,-2.2906,-2.5293,-2.5293,-2.5293,-2.5356,-2.5513,-2.5406,-2.5293,-2.5293,-2.5293,-2.5293,-2.5293,-2.5293,-2.5293,-2.5293,-2.5293,-2.499,-2.4256,-2.4199,-2.4199,-2.4199,-2.4891,-2.5293,-2.5293,-2.4588,-2.3589,-2.2302,-2.231,-2.231,-2.231,-2.231,-2.2976,-2.4199,-2.4199,-2.4199,-2.4199,-2.4199,-2.4199,-2.4199,-2.4199,-2.4199,-2.4199,-2.4199,-2.4199,-2.4199,-2.4199,-2.4199,-2.4199,0.0,-1.3463,-1.3405,-1.3405,-1.4005,-1.3545,-1.0672,-0.9757,-0.9399,0.0,-1.1728,-1.2499,-1.0145,-1.1991,-1.37,-1.4441,-1.1782,-0.9956,-0.9712,-0.965,-0.9394,-0.8925,-0.8891,-0.8583,-0.7914,0.0,0.0,0.0,0.0,0.0,0.0,0.0,0.0,0.0,-0.8891,-0.8891,-0.8891,-0.8891,-0.8936,-0.9486,-1.5151,-1.6475,-1.5771,-2.2678,-2.3447,-2.128,-2.4498,-2.5659,-2.566,-2.5693,-2.3559,-2.0832,-2.0433,-1.8208,-1.5766,-1.5766,-1.5497,-1.5797,-1.855,-1.6722,-1.4058,-1.4058,-1.4058,0.0,-1.4432,-1.6986,-1.8511,-1.5718,-2.0257,-2.4861,-2.5226,-2.5293,-2.5293,-2.5293,-2.5293,-2.5293,-2.5293,-2.5293,-2.5293,-2.5293,-2.5293,-2.5293,-2.5293,-2.5293,-2.499,-2.4256,-2.4199,-2.4199,-2.4199,-2.4891,-2.5293,-2.5293,-2.4588,-2.3589,-2.2302,-2.231,-2.231,-2.231,-2.231,-2.2976,-2.4199,-2.4199,-2.4199,-2.4199,-2.4199,-2.4199,-2.4199,-2.4199,-2.4199,-2.4199,-2.4199,-2.4199,-2.4199,-2.4199,-2.4199,-2.4199,-1.405,-1.3812,-1.3405,-1.3405,-1.4005,-1.4286,-1.3664,-1.297,-1.2524,-1.2524,-1.3032,-1.4091,-1.5874,-1.4462,-1.37,-1.4441,-1.1607,-0.9752,-0.9706,-0.9294,-0.9003,-0.8902,-0.8891,-0.8583,-0.7914,-0.7899,0.0,0.0,0.0,0.0,0.0,0.0,0.0,0.0,-0.8891,-0.8891,-0.8891,-0.8891,-0.9148,-0.9869,-1.3627,-1.6442,-1.8873,-2.3526,-2.4889,-2.4418,-2.5113,-2.5377,-2.541,-2.5631,-2.5232,-2.4137,-2.1217,-1.984,-1.9302,-1.9302,-1.7359,-1.5797,-1.855,-1.8745,-1.8145,-1.8145,-1.8145,0.0,-1.5059,-1.6986,-1.9277,-1.9192,-2.0292,-2.2092,-2.4793,-2.5293,-2.5293,-2.5293,-2.5293,-2.5293,-2.5293,-2.5293,-2.5293,-2.5293,-2.5293,-2.5293,-2.5293,-2.5293,-2.499,-2.4256,-2.4199,-2.4199,-2.4199,-2.4891,-2.5293,-2.5293,-2.4588,-2.3589,-2.2302,-2.231,-2.231,-2.231,-2.231,-2.2976,-2.4199,-2.4199,-2.4199,-2.4199,-2.4199,-2.4199,-2.4199,-2.4199,-2.4199,-2.4199,-2.4199,-2.4199,-2.4199,-2.4199,-2.4199,-2.4199,-1.4429,-1.4202,-1.3833,-1.3454,-1.4005,-1.4384,-1.4005,-1.3646,-1.3405,-1.3405,-1.4673,-1.6162,-1.765,-1.6483,-1.5154,-1.4053,-1.281,-1.1407,-0.9799,-0.9198,-0.8891,-0.8891,-0.8891,-0.8746,-0.8409,-0.8074,0.0,0.0,0.0,0.0,0.0,0.0,0.0,0.0,-0.8891,-0.8891,-0.8913,-0.9188,-1.0526,-1.2563,-1.3946,-1.7636,-2.2511,-2.453,-2.5072,-2.4752,-2.4752,-2.499,-2.5348,-2.5615,-2.5703,-2.5356,-2.3407,-2.165,-2.0629,-2.2294,-2.04,-1.8039,-1.9413,-1.9553,-1.9305,-1.9305,-1.9305,0.0,0.0,-1.9581,-1.9899,-2.0225,-2.0302,-2.0812,-2.2496,-2.2803,-2.2803,-2.2803,-2.2803,-2.339,-2.5053,-2.5293,-2.5293,-2.5293,-2.5293,-2.5293,-2.5293,-2.5293,-2.499,-2.4256,-2.4199,-2.4199,-2.4199,-2.4891,-2.5293,-2.5293,-2.4588,-2.3589,-2.2302,-2.231,-2.2615,-2.3259,-2.3259,-2.358,-2.4199,-2.4199,-2.4199,-2.4199,-2.4199,-2.4199,-2.4199,-2.4199,-2.4199,-2.4199,-2.4199,-2.4199,-2.4199,-2.4199,-2.4199,-2.4199,-1.4497,-1.4497,-1.4313,-1.3715,-1.4616,-1.4972,-1.3605,-1.3887,-1.426,-1.426,-1.6088,-1.74,-1.74,-1.7658,-1.661,-1.3659,-1.4074,-1.3407,-1.0791,-0.964,-0.9055,-0.9055,-0.8957,-0.8891,-0.8891,-0.8371,0.0,0.0,0.0,0.0,0.0,-0.8891,-0.8891,-0.8928,0.0,0.0,-0.9132,-1.027,-1.2486,-1.5171,-1.4785,-1.8923,-2.5274,-2.5139,-2.4717,-2.417,-2.3915,-2.4376,-2.5135,-2.5496,-2.5193,-2.474,-2.5158,-2.3438,-2.1784,-2.4505,-2.2928,-2.0302,-2.0302,-1.9899,-1.9495,-1.9495,-1.9973,-2.0977,0.0,0.0,0.0,-2.0302,-2.0812,-2.1071,-2.0427,-2.0302,-2.0302,-2.0302,-2.0718,-2.1997,-2.4712,-2.4656,-2.4572,-2.5216,-2.5293,-2.5293,-2.5293,-2.5293,-2.5051,-2.4469,-2.4409,-2.4409,-2.4409,-2.4978,-2.5293,-2.5293,-2.4588,-2.3589,-2.2302,-2.2543,-2.3179,-2.4199,-2.4199,-2.4199,-2.4199,-2.4199,-2.4199,-2.4199,-2.4199,-2.4199,-2.4199,-2.4199,-2.4199,-2.4199,-2.4199,-2.4199,-2.4199,-2.4199,-2.4199,-2.4199,-1.4497,-1.4497,-1.4464,-1.4396,-1.6808,-1.7542,-1.3947,-1.5621,-1.7304,-1.7304,-1.6548,-1.6032,-1.6032,-1.7101,-1.661,-1.3659,-1.4074,-1.4332,-1.3985,-1.1233,-0.9609,-0.9609,-0.9158,-0.8891,-0.8891,0.0,0.0,0.0,0.0,0.0,0.0,0.0,-0.8891,-0.9044,-1.2381,-1.2282,-0.9823,-1.316,-1.4826,-1.5199,-1.5143,-1.9206,-2.5223,-2.4572,-2.4266,-2.4054,-2.2926,-2.3294,-2.4425,-2.5115,-2.3369,-2.143,-2.437,-2.5034,-2.4803,-2.5187,-2.2928,-2.0302,-2.0302,-2.0243,-2.0189,-2.0189,-2.2413,-2.3946,-2.134,0.0,-2.0302,-2.0302,0.0,-2.3813,-2.085,0.0,0.0,-2.0302,-2.2246,-2.3896,-2.4275,-2.2328,-2.1967,-2.4947,-2.5293,-2.5293,-2.5293,-2.5293,-2.5273,-2.5182,-2.518,-2.518,-2.518,-2.5253,-2.5293,-2.5293,-2.4588,-2.3589,-2.2302,-2.3413,-2.4054,-2.4199,-2.4199,-2.4199,-2.4199,-2.4199,-2.4199,-2.4199,-2.4199,-2.4199,-2.4199,-2.4199,-2.4199,-2.4199,-2.4199,-2.4199,-2.4199,-2.4199,-2.4199,-2.4199,-1.4497,-1.4497,-1.4497,-1.4497,-1.5628,-1.639,-1.6015,-1.7008,-1.7811,-1.7811,-1.7304,-1.7227,-1.7994,-1.8578,-1.8114,-1.6122,-1.7828,-1.8531,-1.7357,-1.427,-1.2489,-1.2489,-1.1855,-1.0686,-0.8934,-0.8891,0.0,0.0,-0.8891,0.0,0.0,0.0,-0.9066,-0.951,-1.2955,-1.3905,-1.3122,-1.6665,-1.7006,-1.5535,-1.9477,-2.2755,-2.5012,-2.2355,-2.2075,-2.3017,-2.2497,-2.2642,-2.3271,-2.4307,-2.4008,-2.3447,-2.4861,-2.5293,-2.5321,-2.5493,-2.454,-2.3426,-2.3426,-2.3426,-2.3396,-2.3245,-2.2794,-2.2025,-2.0619,-2.0302,-2.0302,-2.0302,0.0,0.0,0.0,0.0,0.0,0.0,-2.1211,-2.1938,-2.1938,-2.0995,-2.1534,-2.4899,-2.5293,-2.5293,-2.5293,-2.5293,-2.4486,-2.2544,-2.4197,-2.5293,-2.5293,-2.4891,-2.4657,-2.4657,-2.4366,-2.3935,-2.3422,-2.3935,-2.4199,-2.4199,-2.4199,-2.4199,-2.4199,-2.4199,-2.4199,-2.4199,-2.4199,-2.4199,-2.4199,-2.4199,-2.4199,-2.4199,-2.4199,-2.4199,-2.4256,-2.4687,-2.4836,-2.478,-1.4497,-1.4497,-1.4497,-1.4497,-1.4497,-1.5251,-1.7467,-1.7811,-1.8107,-1.8936,-1.9037,-1.8932,-1.8664,-1.9256,-1.9507,-1.906,-2.105,-2.167,-2.0222,-1.7148,-1.5409,-1.5409,-1.4891,-1.321,-1.0195,-0.9315,-0.8891,0.0,-0.8891,0.0,0.0,0.0,-0.9322,-0.9836,-1.3058,-1.5282,-1.6756,-1.9254,-1.8869,-1.6949,-2.0929,-2.3523,-2.4632,-2.1366,-2.1015,-2.2245,-2.1751,-2.1593,-2.1841,-2.361,-2.4687,-2.5293,-2.5293,-2.5293,-2.5346,-2.5619,-2.5703,-2.5703,-2.5703,-2.5703,-2.5649,-2.5459,-2.2832,-2.0302,-2.0302,-2.0302,-2.0302,-2.0302,-2.0302,0.0,0.0,0.0,-2.0302,-2.0302,0.0,-2.0302,-2.0302,-1.9494,-2.015,-2.3524,-2.3928,-2.4284,-2.5207,-2.5293,-2.3909,-2.0552,-2.2544,-2.4322,-2.5245,-2.4795,-2.4409,-2.4218,-2.4199,-2.4199,-2.4199,-2.4199,-2.4199,-2.4199,-2.4199,-2.4199,-2.4199,-2.4199,-2.4199,-2.4199,-2.4199,-2.4199,-2.4199,-2.4199,-2.4199,-2.4199,-2.4199,-2.4321,-2.4566,-2.5096,-2.5293,-2.5192,-1.4497,-1.4497,0.0,-1.4497,-1.4497,-1.5251,-1.7467,-1.7811,-1.886,-2.1786,-2.2175,-2.0577,-1.6385,-1.8197,-2.0374,-2.2009,-2.2251,-2.2268,-2.2222,-1.9358,-1.7681,-1.7681,-1.7667,-1.628,-1.332,-1.039,-0.8891,-0.8891,-0.8891,0.0,0.0,0.0,0.0,0.0,-1.3058,-1.6599,-2.0148,-2.0254,-2.0244,-1.9869,-1.6766,-1.9015,-2.4095,-2.2712,-2.2245,-2.2086,-2.0379,-1.9782,-2.0241,-2.3199,-2.4687,-2.5293,-2.5293,-2.5293,-2.5346,-2.5619,-2.5703,-2.5703,-2.5703,-2.5703,-2.5703,-2.5693,-2.2968,-2.0302,-2.0302,-2.0302,-2.0302,-2.0302,-2.0302,-2.0302,-2.0302,-2.0302,-2.0302,-2.0302,-2.0302,0.0,0.0,-1.7449,-1.6631,-2.0052,-2.0465,-2.1736,-2.4986,-2.5293,-2.3909,-2.0552,-2.0408,-2.188,-2.513,-2.5283,-2.4939,-2.4228,-2.4199,-2.4199,-2.4199,-2.4199,-2.4199,-2.4199,-2.4199,-2.4199,-2.4199,-2.4199,-2.4199,-2.4199,-2.4199,-2.4199,-2.4199,-2.4199,-2.4199,-2.4199,-2.4199,-2.4636,-2.5273,-2.5293,-2.5293,-2.5192,-1.4497,0.0,-1.4497,-1.4497,-1.4101,-1.4691,-1.7398,-1.9502,-2.1152,-2.2175,-2.231,-2.1737,-2.0266,-2.0874,-2.1653,-2.2245,-2.231,-2.231,-2.231,-2.1355,-1.99,-1.7896,-1.7811,-1.7337,-1.6331,-1.3405,-1.0898,-0.8891,-0.8891,-0.8891,0.0,0.0,0.0,0.0,-1.0846,-1.4668,-2.0456,-2.2669,-2.3611,-2.3467,-2.1823,-2.186,-2.2901,-2.2451,-2.1584,-2.0314,-1.8299,-1.7585,-1.8127,-2.1727,-2.3989,-2.5293,-2.5293,-2.5424,-2.558,-2.5672,-2.5703,-2.5703,-2.5703,-2.5703,-2.5703,-2.5703,-2.2976,-2.0302,-2.0302,-2.0302,-2.0937,-2.3149,-2.3611,-2.3611,-2.3611,-2.3611,-2.3611,-2.3611,-2.1746,-2.0302,0.0,-1.7359,-1.5632,-1.6785,-1.8927,-2.0754,-2.188,-2.1986,-2.1515,-2.0389,-2.2351,-2.4101,-2.5235,-2.5293,-2.5191,-2.4939,-2.4442,-2.4199,-2.4199,-2.4199,-2.4199,-2.4199,-2.4199,-2.4199,-2.4199,-2.4199,-2.4199,-2.4199,-2.4199,-2.4199,-2.4199,-2.4199,-2.4199,-2.4256,-2.4747,-2.5084,-2.5293,-2.5293,-2.499,-2.4533,-1.5526,-1.568,-1.5348,-1.4298,-1.4585,-1.5604,-1.7515,-2.0374,-2.231,-2.231,-2.231,-2.231,-2.231,-2.231,-2.231,-2.231,-2.1713,-2.1393,-2.1393,-2.1953,-2.1439,-1.9494,-1.9409,-1.891,-1.7828,-1.5942,-1.3506,-1.05,-1.05,-1.05,0.0,0.0,0.0,0.0,0.0,-1.4715,-2.0523,-2.388,-2.5149,-2.4841,-2.3897,-2.2652,-2.1275,-2.0515,-1.9551,-1.8373,-1.6993,-1.6993,-1.8129,-2.1241,-2.3648,-2.5293,-2.5293,-2.5478,-2.5703,-2.5703,-2.5703,-2.5703,-2.5703,-2.5703,-2.5703,-2.5703,-2.3947,-2.1884,-2.059,-2.0302,-2.1246,-2.4611,-2.5293,-2.5293,-2.5293,-2.5293,-2.5293,-2.5293,-2.2486,-1.9812,0.0,-1.6341,-1.4948,-1.4948,-1.7041,-1.8875,-1.9847,-1.8907,-1.8717,-1.9865,-2.3025,-2.5015,-2.5283,-2.5293,-2.5293,-2.5293,-2.4588,-2.4199,-2.4199,-2.4199,-2.4199,-2.4199,-2.4199,-2.4199,-2.4199,-2.4199,-2.4199,-2.4199,-2.4199,-2.4199,-2.4199,-2.4199,-2.4199,-2.4266,-2.5015,-2.5293,-2.5273,-2.5012,-2.4604,-2.4199,-1.7386,-1.7811,-1.6923,-1.4116,-1.5942,-1.7862,-1.7991,-2.0475,-2.231,-2.231,-2.231,-2.231,-2.231,-2.231,-2.231,-2.231,-2.0706,-1.9754,-1.9818,-2.1393,-2.231,-2.231,-2.231,-2.0966,-1.8099,-1.8031,-1.6585,-1.3625,-1.3472,-1.3405,0.0,0.0,0.0,0.0,-1.3132,-1.6635,-2.0472,-2.3813,-2.4836,-2.4083,-2.2799,-2.1268,-1.9486,-1.7429,-1.6704,-1.6776,-1.6667,-1.798,-1.9987,-2.1713,-2.3648,-2.5293,-2.5293,-2.5478,-2.5703,-2.5703,-2.5703,-2.5703,-2.5703,-2.5703,-2.5703,-2.5703,-2.5703,-2.4797,-2.1346,-2.0558,-2.1448,-2.4639,-2.5293,-2.5293,-2.5293,-2.5293,-2.5245,-2.5072,-2.2343,-1.8953,-1.5265,-1.4598,-1.4552,-1.4717,-1.4985,-1.619,-1.8807,-1.6445,-1.594,-1.8831,-2.2097,-2.4258,-2.4963,-2.5187,-2.5293,-2.5293,-2.4611,-2.4247,-2.4247,-2.4247,-2.4247,-2.4199,-2.4199,-2.4199,-2.4199,-2.4199,-2.4199,-2.4199,-2.4199,-2.4199,-2.4199,-2.4199,-2.4228,-2.4321,-2.5037,-2.5293,-2.5213,-2.4476,-2.4199,-2.4199,-1.7695,-1.7811,-1.7566,-1.6805,-1.7304,-1.8572,-2.0813,-2.1811,-2.231,-2.231,-2.231,-2.231,-2.231,-2.231,-2.231,-2.231,-2.0706,-2.0243,-2.1554,-2.2049,-2.231,-2.231,-2.231,-2.1947,-2.1169,-2.1152,-1.9688,-1.6678,-1.4462,-1.3405,-1.3421,0.0,0.0,0.0,0.0,-1.6383,-1.9777,-2.307,-2.4374,-2.4083,-2.2799,-2.1268,-1.9646,-1.9088,-1.9675,-2.0654,-1.9346,-1.9244,-1.9987,-2.1713,-2.3648,-2.5293,-2.5293,-2.5478,-2.5703,-2.5703,-2.5703,-2.5703,-2.5703,-2.5703,-2.5703,-2.5703,-2.5703,-2.5458,-2.4528,-2.4162,-2.4255,-2.512,-2.5293,-2.5293,-2.5293,-2.5293,-2.4476,-2.1986,-2.0437,-1.9207,-1.8208,-1.6013,-1.5398,-1.7775,-1.6065,-1.496,-1.5659,-1.7151,-1.7417,-1.5857,-1.873,-2.0631,-2.0821,-2.3675,-2.5293,-2.5293,-2.5117,-2.5024,-2.5024,-2.5024,-2.4737,-2.4199,-2.4199,-2.4199,-2.4199,-2.4199,-2.4199,-2.4199,-2.4199,-2.4199,-2.4199,-2.4199,-2.4517,-2.5037,-2.5233,-2.5293,-2.5213,-2.4476,-2.4199,-2.4199,-1.7811,-1.8868,-1.9782,-1.9782,-1.9782,-1.9908,-2.0281,-2.1465,-2.231,-2.231,-2.231,-2.231,-2.231,-2.231,-2.231,-2.231,-2.1393,-2.126,-2.2245,-2.231,-2.231,-2.231,-2.231,-2.257,-2.3116,-2.2588,-2.083,-1.7811,-1.6136,-1.4656,-1.3421,0.0,0.0,0.0,0.0,-1.6289,-1.9525,-2.2804,-2.3885,-2.3307,-2.2597,-2.1268,0.0,-2.054,-2.1454,-2.218,-2.1197,-2.0837,-2.0999,-2.1982,-2.3413,-2.4887,-2.5202,-2.5478,-2.5703,-2.5703,-2.5703,-2.5703,-2.5703,-2.5703,-2.5703,-2.5703,-2.5703,-2.5703,-2.5703,-2.558,-2.5441,-2.5322,-2.5391,-2.5472,-2.5472,-2.5472,-2.4335,-2.0862,-1.974,-1.9305,-1.9305,-1.7738,-1.727,-1.9069,-1.7702,-1.6601,-1.6601,-1.6958,-1.7032,-1.6628,-1.8271,-1.8684,-1.728,-2.2342,-2.5293,-2.5293,-2.5293,-2.5293,-2.5293,-2.5293,-2.5084,-2.4687,-2.4687,-2.4517,-2.4199,-2.4199,-2.4199,-2.4199,-2.4199,-2.4199,-2.4199,-2.4199,-2.4626,-2.5293,-2.5293,-2.5293,-2.5253,-2.4836,-2.4476,-2.4199,-1.8403,-2.0509,-2.231,-2.231,-2.231,-2.1558,-1.9316,-2.1194,-2.275,-2.2361,-2.231,-2.231,-2.231,-2.231,-2.231,-2.231,-2.231,-2.231,-2.231,-2.231,-2.231,-2.231,-2.231,-2.2901,-2.417,-2.3116,-2.1182,-1.8403,-1.7997,-1.6289,-1.3421,0.0,0.0,0.0,0.0,-1.6289,-1.9525,-2.2804,-2.3459,-2.231,-2.231,-2.1268,-1.9882,-2.1623,-2.231,-2.231,-2.231,-2.231,-2.231,-2.231,-2.3206,-2.4469,-2.5105,-2.5478,-2.5703,-2.5703,-2.5703,-2.5703,-2.5703,-2.5703,-2.5703,-2.5703,-2.5703,-2.5703,-2.5703,-2.5703,-2.5634,-2.5406,-2.5539,-2.5703,-2.5703,-2.5703,-2.4664,-2.1476,-2.0106,-1.939,-1.9305,-1.9187,-1.9104,-1.9104,-1.8756,0.0,-1.9253,-1.639,-1.5665,-1.8454,-1.8665,-1.7628,-1.5261,-2.1183,-2.4851,-2.5284,-2.5293,-2.5293,-2.5293,-2.5293,-2.5293,-2.5293,-2.5293,-2.4956,-2.4339,-2.4238,-2.4199,-2.4199,-2.4199,-2.4199,-2.4199,-2.4199,-2.4626,-2.5293,-2.5293,-2.5293,-2.5293,-2.5293,-2.4891,-2.433,-2.1515,-2.1947,-2.231,-2.231,-2.231,-2.2945,-2.4847,-2.5592,-2.5059,-2.2632,-2.231,-2.231,-2.231,-2.231,-2.231,-2.231,-2.231,-2.231,-2.231,-2.231,-2.231,-2.231,-2.231,-2.2901,-2.417,-2.3985,-2.3101,-2.1515,-1.9029,-1.6289,-1.3421,0.0,0.0,0.0,0.0,-1.6289,-1.9525,-2.2804,-2.3459,-2.231,-2.231,-2.1268,-1.9882,-2.1623,-2.231,-2.231,-2.231,-2.231,-2.231,-2.231,-2.3542,-2.5128,-2.5253,-2.5478,-2.5703,-2.5703,-2.5703,-2.5703,-2.5703,-2.5703,-2.5703,-2.5703,-2.5703,-2.5703,-2.5703,-2.5703,-2.5693,-2.5636,-2.5671,-2.5703,-2.5703,-2.5703,-2.5422,-2.4557,-2.201,-1.9931,-1.9385,-1.8589,-1.8065,-1.8065,-1.5909,-1.5722,-1.8978,-1.639,-1.4726,-1.5307,-1.5343,-1.6252,-1.8344,-2.0188,-2.2438,-2.5207,-2.5293,-2.5293,-2.5293,-2.5293,-2.5293,-2.5293,-2.5293,-2.5223,-2.5094,-2.4476,-2.4199,-2.4199,-2.4199,-2.4199,-2.4199,-2.4199,-2.4626,-2.5293,-2.5293,-2.5293,-2.5293,-2.5293,-2.5213,-2.5105,-2.4289,-2.3359,-2.231,-2.231,-2.231,-2.33,-2.6243,-2.6691,-2.5642,-2.2699,-2.3638,-2.4002,-2.2479,-2.231,-2.231,-2.231,-2.231,-2.231,-2.231,-2.231,-2.231,-2.231,-2.231,-2.2901,-2.417,-2.4199,-2.3894,-2.3283,-2.0111,-1.701,-1.3977,-1.4325,-1.4497,-1.457,0.0,-1.7849,-1.9525,-2.2804,-2.3459,-2.231,-2.231,-2.1789,-2.1134,-2.1982,-2.231,-2.2377,-2.3042,-2.3283,-2.3283,-2.3283,-2.4178,-2.5293,-2.5293,-2.5478,-2.5703,-2.5703,-2.5703,-2.5703,-2.5703,-2.5703,-2.5703,-2.5703,-2.5703,-2.5703,-2.5703,-2.5703,-2.566,-2.5517,-2.5603,-2.5703,-2.5703,-2.5703,-2.5605,-2.5338,-2.3947,-2.2055,-1.9645,-2.0345,-2.0287,-1.807,-1.5198,-1.4938,-1.8923,-1.639,-1.4497,-1.4497,-1.4497,-1.5187,-1.6729,-1.903,-2.1832,-2.5187,-2.5293,-2.5293,-2.5293,-2.5293,-2.5293,-2.5293,-2.5293,-2.5293,-2.5274,-2.4533,-2.4199,-2.4199,-2.4199,-2.4199,-2.4228,-2.4611,-2.4978,-2.5293,-2.5293,-2.5293,-2.5293,-2.5293,-2.5293,-2.5293,-2.6234,-2.4831,-2.3046,-2.242,-2.2826,-2.4027,-2.6344,-2.6987,-2.6232,-2.3596,-2.5531,-2.6286,-2.3984,-2.3119,-2.2588,-2.233,-2.231,-2.231,-2.231,-2.231,-2.231,-2.231,-2.231,-2.2901,-2.417,-2.4199,-2.4199,-2.4199,-2.0904,-1.7995,-1.5518,-1.4818,-1.4854,-1.5637,-1.817,-1.97,-2.0501,-2.3098,-2.3633,-2.2712,-2.2712,-2.2712,-2.2712,-2.2712,-2.2712,-2.2833,-2.3843,-2.4199,-2.4219,-2.4374,-2.4823,-2.5293,-2.5293,-2.5478,-2.5703,-2.5703,-2.5703,-2.5703,-2.5703,-2.5703,-2.5703,-2.5703,-2.5703,-2.5703,-2.5703,-2.5703,-2.5636,-2.5431,-2.5551,-2.5703,-2.5703,-2.5703,-2.5605,-2.5338,-2.5293,-2.4137,-2.081,-2.1969,-2.1887,-1.853,-1.6077,-1.5931,-1.9193,-1.6562,-1.4647,-1.4647,-1.4558,-1.4535,-1.4647,-1.8248,-2.1505,-2.4149,-2.4928,-2.5293,-2.5293,-2.5293,-2.5293,-2.5293,-2.5293,-2.5293,-2.5274,-2.4533,-2.4199,-2.4199,-2.4199,-2.4199,-2.4256,-2.499,-2.5293,-2.5293,-2.5293,-2.5293,-2.5293,-2.5293,-2.5293,-2.5293,-2.664,-2.6471,-2.5439,-2.2784,-2.4518,-2.6378,-2.6657,-2.7881,-2.8182,-2.6522,-2.7741,-2.8673,-2.8396,-2.5777,-2.3567,-2.2405,-2.231,-2.231,-2.231,-2.231,-2.231,-2.231,-2.231,-2.2901,-2.417,-2.4199,-2.4199,-2.4199,-2.0904,-1.9158,-1.8785,-1.5876,-1.6059,-1.8858,-1.9176,-2.0941,-2.3758,-2.407,-2.4122,-2.4025,-2.4025,-2.4025,-2.4025,-2.4025,-2.4025,-2.4034,-2.4151,-2.4199,-2.4294,-2.4978,-2.5234,-2.5293,-2.5293,-2.5478,-2.5703,-2.5703,-2.5703,-2.5703,-2.5703,-2.5703,-2.5703,-2.5703,-2.5703,-2.5703,-2.5703,-2.5703,-2.5693,-2.5672,-2.5683,-2.5703,-2.5703,-2.5703,-2.5605,-2.5338,-2.5293,-2.4934,-2.3896,-2.1437,-1.9613,-1.9214,-1.8922,-1.9133,-2.0106,-1.7131,-1.5127,-1.5127,-1.4738,-1.4698,-1.5107,-1.8415,-2.0446,-2.0764,-2.3717,-2.5293,-2.5293,-2.5293,-2.5293,-2.5293,-2.5293,-2.5293,-2.5274,-2.4533,-2.4199,-2.4199,-2.4199,-2.4199,-2.4256,-2.499,-2.5293,-2.5293,-2.5293,-2.5293,-2.5293,-2.5293,-2.5293,-2.5293,-2.6691,-2.6691,-2.6327,-2.5152,-2.5913,-2.701,-2.7937,-2.9082,-2.9619,-2.9001,-2.8968,-2.8994,-2.8994,-2.786,-2.6495,-2.5079,-2.494,-2.4188,-2.2429,-2.231,-2.231,-2.231,-2.3042,-2.3676,-2.4199,-2.4199,-2.4199,-2.4199,-2.2877,-2.2235,-2.2162,-1.8904,-1.9115,-2.2235,-2.2235,-2.2969,-2.4199,-2.4199,-2.4199,-2.4199,-2.4199,-2.4199,-2.4199,-2.4199,-2.4199,-2.4199,-2.4199,-2.4199,-2.4303,-2.5049,-2.5293,-2.5293,-2.5293,-2.5478,-2.5703,-2.5703,-2.5703,-2.5703,-2.5703,-2.5703,-2.5703,-2.5703,-2.5703,-2.5703,-2.5703,-2.5703,-2.5703,-2.5703,-2.5703,-2.5703,-2.5703,-2.5571,-2.5415,-2.5322,-2.3611,-2.2063,-2.1366,-2.0124,-1.9305,-1.9305,-1.9667,-1.9192,-1.7406,-1.7859,-1.741,-1.5343,-1.4776,-1.4699,-1.5177,-2.0342,-2.238,-2.036,-2.1592,-2.3265,-2.5274,-2.5293,-2.5293,-2.5293,-2.5293,-2.5072,-2.4626,-2.4339,-2.4199,-2.4199,-2.4199,-2.4452,-2.4877,-2.5182,-2.5293,-2.5293,-2.5293,-2.5293,-2.5293,-2.5293,-2.5293,-2.5293,-2.6691,-2.6691,-2.6691,-2.6691,-2.7074,-2.7828,-2.9207,-2.9968,-3.0398,-3.0398,-2.9815,-2.9314,-2.903,-2.8994,-2.8377,-2.6841,-2.6691,-2.582,-2.3731,-2.2784,-2.231,-2.231,-2.3513,-2.4199,-2.4199,-2.4199,-2.4199,-2.4199,-2.4199,-2.4199,-2.4144,-2.1822,-2.178,-2.3633,-2.3633,-2.3843,-2.4199,-2.4199,-2.4199,-2.4209,-2.4434,-2.4517,-2.4517,-2.4517,-2.4392,-2.4199,-2.4199,-2.4339,-2.4595,-2.5128,-2.5293,-2.5293,-2.5293,-2.5478,-2.5703,-2.5703,-2.5703,-2.5703,-2.5703,-2.5703,-2.5703,-2.5703,-2.5703,-2.5703,-2.5703,-2.5703,-2.5703,-2.5703,-2.5703,-2.5703,-2.5703,-2.5478,-2.5293,-2.5293,-2.3303,-2.1186,-1.952,-1.9305,-1.937,-1.9567,-2.0011,-1.935,-1.6929,-1.8888,-1.8888,-1.5459,-1.5816,-1.5913,-1.5235,-2.0688,-2.3197,-2.1803,-2.0804,-2.1909,-2.5264,-2.5293,-2.5293,-2.5303,-2.5084,-2.4693,-2.4199,-2.4199,-2.4199,-2.4199,-2.4199,-2.462,-2.5293,-2.5293,-2.5293,-2.5293,-2.5293,-2.5293,-2.5293,-2.5293,-2.5293,-2.5293,-2.6691,-2.6691,-2.6691,-2.6691,-2.7974,-2.9284,-3.0238,-3.0388,-3.0398,-3.0398,-3.0388,-3.0022,-2.9093,-2.8994,-2.8377,-2.6841,-2.6691,-2.6674,-2.664,-2.3926,-2.231,-2.231,-2.3513,-2.4199,-2.4199,-2.4199,-2.4199,-2.4199,-2.4199,-2.4199,-2.4199,-2.4153,-2.35,-2.233,-2.233,-2.3017,-2.4199,-2.4199,-2.4199,-2.4266,-2.499,-2.5283,-2.5283,-2.5283,-2.4836,-2.4199,-2.4199,-2.4672,-2.5283,-2.5303,-2.5293,-2.5293,-2.5293,-2.5478,-2.5703,-2.5703,-2.5703,-2.5703,-2.5703,-2.5703,-2.5703,-2.5703,-2.5703,-2.5703,-2.5703,-2.5703,-2.5703,-2.5703,-2.5703,-2.5703,-2.5703,-2.5478,-2.5293,-2.5293,-2.5264,-2.3852,-1.9863,-1.9305,-1.9549,-2.0208,-2.0294,-2.0283,-2.0244,-2.0283,-1.8888,-1.5459,-1.8323,-1.8756,-1.5382,-1.8484,-2.1852,-2.5139,-2.2025,-2.1909,-2.5264,-2.5293,-2.5293,-2.5293,-2.4556,-2.4218,-2.4199,-2.4199,-2.4199,-2.4199,-2.4199,-2.462,-2.5293,-2.5293,-2.5293,-2.5293,-2.5293,-2.5293,-2.5293,-2.5293,-2.5293,-2.5293,-2.6691,-2.6691,-2.6691,-2.6691,-2.8492,-3.0129,-3.0658,-3.0741,-3.0741,-3.0741,-3.0535,-3.0037,-2.9093,-2.8994,-2.8377,-2.6841,-2.6691,-2.6691,-2.6691,-2.582,-2.4399,-2.2403,-2.3513,-2.4199,-2.4199,-2.4199,-2.4199,-2.4199,-2.4199,-2.375,-2.2901,-2.2901,-2.2686,-2.231,-2.231,-2.3017,-2.4199,-2.4199,-2.4493,-2.4978,-2.5213,-2.5293,-2.5293,-2.5293,-2.4836,-2.4275,-2.4766,-2.5096,-2.5293,-2.5293,-2.5293,-2.533,-2.5522,-2.5633,-2.5703,-2.5703,-2.5703,-2.5703,-2.5703,-2.5703,-2.5703,-2.5703,-2.5703,-2.5703,-2.5703,-2.5703,-2.5703,-2.5703,-2.5703,-2.5703,-2.5703,-2.5478,-2.5293,-2.5293,-2.5293,-2.4043,-2.0478,-1.9971,-2.006,-2.0277,-2.0302,-2.0302,-2.0302,-2.0302,-1.985,-1.8763,-1.9686,-1.8811,-1.5382,-1.8446,-2.1832,-2.5187,-2.4265,-2.4216,-2.5284,-2.5293,-2.5049,-2.455,-2.4303,-2.4199,-2.4199,-2.4199,-2.4199,-2.4228,-2.4723,-2.5084,-2.5293,-2.5293,-2.5293,-2.5293,-2.5293,-2.5293,-2.5293,-2.5293,-2.5293,-2.5293,-2.6691,-2.6691,-2.6865,-2.7443,-2.9244,-3.0619,-3.0697,-3.0818,-3.0898,-3.0898,-3.061,-3.0037,-2.9093,-2.8489,-2.7739,-2.6774,-2.6691,-2.6691,-2.6691,-2.6691,-2.5871,-2.4036,-2.4708,-2.4851,-2.4217,-2.4199,-2.4199,-2.4199,-2.4199,-2.3792,-2.3017,-2.3017,-2.3017,-2.3017,-2.3017,-2.3468,-2.4209,-2.4493,-2.4877,-2.5293,-2.5293,-2.5293,-2.5293,-2.5293,-2.4836,-2.4247,-2.4723,-2.5051,-2.5293,-2.5293,-2.5293,-2.5357,-2.5617,-2.5703,-2.5703,-2.5703,-2.5703,-2.5703,-2.5703,-2.5703,-2.5703,-2.5703,-2.5703,-2.5703,-2.5703,-2.5703,-2.5703,-2.5703,-2.5703,-2.5703,-2.5703,-2.5478,-2.5293,-2.5293,-2.5293,-2.4563,-2.2467,-2.1082,-2.0302,-2.0302,-2.0302,-2.0302,-2.0302,-2.0302,-2.0302,-2.0302,-2.0302,-1.9369,-1.7227,-1.9148,-2.1832,-2.5187,-2.5293,-2.5293,-2.5293,-2.5293,-2.493,-2.4199,-2.4199,-2.4199,-2.4199,-2.4199,-2.4348,-2.4642,-2.5105,-2.5293,-2.5293,-2.5293,-2.5293,-2.5293,-2.5293,-2.5293,-2.5293,-2.5293,-2.5293,-2.5293,-2.6691,-2.6691,-2.7206,-2.8817,-3.0076,-3.0765,-3.0449,-3.0656,-3.0868,-3.0898,-3.061,-3.0003,-2.8943,-2.7417,-2.6496,-2.6496,-2.6496,-2.6496,-2.6496,-2.6615,-2.6691,-2.6691,-2.6808,-2.6013,-2.4244,-2.4199,-2.4199,-2.4199,-2.4199,-2.4199,-2.4199,-2.4199,-2.4199,-2.4199,-2.4199,-2.4199,-2.4256,-2.499,-2.5293,-2.5293,-2.5293,-2.5293,-2.5293,-2.5234,-2.4795,-2.4199,-2.4199,-2.4642,-2.5223,-2.5223,-2.5253,-2.5357,-2.5617,-2.5703,-2.5703,-2.5703,-2.5703,-2.5703,-2.5703,-2.5703,-2.5703,-2.5703,-2.5703,-2.5703,-2.5703,-2.5703,-2.5703,-2.5703,-2.5703,-2.5703,-2.5703,-2.5478,-2.5293,-2.5293,-2.5293,-2.5293,-2.5293,-2.2409,-2.0302,-2.0302,-2.0302,-2.0277,-2.0234,-2.0269,-2.0408,-2.0629,-2.0437,-2.0408,-2.0639,-2.0658,-2.2073,-2.5197,-2.5293,-2.5293,-2.5293,-2.5253,-2.4877,-2.4199,-2.4199,-2.4199,-2.4199,-2.4199,-2.4595,-2.5284,-2.5043,-2.4947,-2.4966,-2.5197,-2.5293,-2.5293,-2.5293,-2.5293,-2.5293,-2.5293,-2.5293,-2.5293,-2.6691,-2.6691,-2.7423,-2.9668,-3.0325,-3.0492,-3.0402,-3.0471,-3.061,-3.0867,-3.061,-2.9593,-2.7481,-2.5493,-2.4333,-2.4333,-2.4333,-2.4333,-2.4333,-2.5803,-2.6691,-2.6691,-2.7833,-2.712,-2.4263,-2.4199,-2.4199,-2.4199,-2.4199,-2.4199,-2.4199,-2.4199,-2.4199,-2.4199,-2.4199,-2.4199,-2.4256,-2.499,-2.5293,-2.5293,-2.5293,-2.5293,-2.5243,-2.4663,-2.4348,-2.4199,-2.4199,-2.4303,-2.4459,-2.4459,-2.4836,-2.5357,-2.5617,-2.5703,-2.5703,-2.5703,-2.5703,-2.5703,-2.5703,-2.5703,-2.5703,-2.5703,-2.5703,-2.5703,-2.5703,-2.5703,-2.5703,-2.5703,-2.5703,-2.5703,-2.5703,-2.5478,-2.5293,-2.5293,-2.5293,-2.5293,-2.5293,-2.2409,-2.0302,-2.0302,-2.0302,-2.0098,-1.9589,-2.0001,-2.1352,-2.3918,-2.1746,-2.1427,-2.3976,-2.412,-2.4476,-2.5264,-2.5293,-2.5293,-2.5293,-2.4737,-2.4366,-2.4199,-2.4199,-2.4199,-2.4199,-2.4199,-2.4595,-2.5159,-2.2582,-2.1477,-2.1678,-2.4236,-2.5293,-2.5293,-2.5293,-2.5293,-2.5293,-2.5293,-2.5293,-2.5293,-2.6691,-2.6691,-2.7985,-3.2027,-3.1443,-3.026,-2.9841,-3.0128,-3.0519,-3.0856,-3.0231,-2.8987,-2.692,-2.4831,-2.312,-2.1939,-2.2935,-2.3602,-2.3602,-2.5537,-2.6691,-2.6691,-2.8175,-2.8191,-2.6438,-2.6392,-2.5676,-2.4199,-2.4199,-2.4199,-2.4199,-2.4199,-2.4199,-2.4199,-2.4199,-2.4199,-2.4256,-2.499,-2.5293,-2.5264,-2.493,-2.4795,-2.4752,-2.4348,-2.4409,-2.4657,-2.4321,-2.4199,-2.4199,-2.4199,-2.4687,-2.5322,-2.5467,-2.5601,-2.5703,-2.5703,-2.5703,-2.5703,-2.5703,-2.5703,-2.5703,-2.5703,-2.5703,-2.5703,-2.5703,-2.5703,-2.5703,-2.5703,-2.5703,-2.566,-2.5543,-2.5398,-2.5293,-2.5293,-2.5293,-2.5293,-2.5293,-2.2409,-2.0869,-2.2399,-2.2582,-2.2441,-2.2073,-2.2371,-2.3332,-2.5159,-2.3611,-2.338,-2.5197,-2.5293,-2.5293,-2.5293,-2.5293,-2.5293,-2.5293,-2.4572,-2.4199,-2.4199,-2.4199,-2.4199,-2.4209,-2.455,-2.4917,-2.5197,-2.338,-2.2582,-2.2726,-2.4543,-2.5293,-2.5293,-2.5293,-2.5293,-2.5111,-2.3572,-2.3976,-2.5082,-2.7376,-2.7004,-2.8352,-3.3602,-3.2658,-3.0738,-2.9405,-2.9765,-3.0365,-3.0845,-2.9589,-2.8021,-2.6412,-2.4304,-2.2172,-1.9991,-2.1798,-2.3172,-2.3551,-2.5537,-2.6691,-2.6691,-2.8175,-2.8994,-2.8994,-2.8994,-2.7668,-2.4924,-2.4437,-2.4199,-2.4199,-2.4199,-2.4199,-2.4199,-2.4199,-2.4199,-2.4238,-2.4864,-2.5128,-2.5072,-2.4442,-2.4199,-2.4199,-2.4199,-2.4588,-2.5049,-2.4417,-2.4199,-2.4199,-2.4199,-2.4687,-2.5293,-2.5293,-2.5478,-2.5703,-2.5703,-2.5703,-2.5703,-2.5703,-2.5703,-2.5693,-2.5648,-2.5636,-2.5636,-2.5636,-2.5636,-2.5636,-2.5636,-2.5636,-2.5574,-2.5338,-2.5293,-2.5293,-2.5293,-2.5293,-2.5293,-2.5293,-2.2842,-2.2101,-2.4957,-2.5293,-2.5293,-2.5293,-2.5293,-2.5293,-2.5293,-2.5293,-2.5293,-2.5293,-2.5293,-2.5293,-2.5293,-2.5293,-2.5243,-2.5138,-2.4517,-2.4199,-2.4199,-2.4199,-2.4199,-2.4209,-2.4442,-2.4812,-2.5264,-2.4755,-2.4543,-2.4543,-2.4543,-2.4543,-2.4543,-2.4543,-2.4543,-2.4197,-2.1342,-2.2092,-2.414,-3.0497,-2.8442,-2.739,-2.9619,-3.2602,-3.3687,-3.0648,-2.9633,-2.9614,-3.0749,-2.8662,-2.6293,-2.4284,-2.185,-2.0232,-1.985,-2.0181,-2.1321,-2.3457,-2.5537,-2.6691,-2.6691,-2.8175,-2.8994,-2.8994,-2.8994,-2.8755,-2.8242,-2.5529,-2.4199,-2.4199,-2.4199,-2.4199,-2.4199,-2.4199,-2.4199,-2.4218,-2.4321,-2.4366,-2.4366,-2.4238,-2.4199,-2.4199,-2.4199,-2.4266,-2.4357,-2.4238,-2.4199,-2.4199,-2.4199,-2.4687,-2.5293,-2.5293,-2.5478,-2.5703,-2.5703,-2.5703,-2.5703,-2.5703,-2.5703,-2.5647,-2.5417,-2.5363,-2.5363,-2.5363,-2.5363,-2.5363,-2.5363,-2.5363,-2.5347,-2.5313,-2.5293,-2.5293,-2.5293,-2.5293,-2.5293,-2.5293,-2.4851,-2.4716,-2.5235,-2.5293,-2.5293,-2.5293,-2.5293,-2.5293,-2.5293,-2.5293,-2.5293,-2.5293,-2.5293,-2.5293,-2.5293,-2.5293,-2.5003,-2.4383,-2.4256,-2.4199,-2.4199,-2.4199,-2.4199,-2.4136,-2.203,-2.2621,-2.5139,-2.2303,-2.1081,-2.1081,-2.1081,-2.1081,-2.1081,-2.1081,-2.1081,-2.1014,-2.0494,-2.0629,-2.1004,-3.119,-3.0074,-2.8826,-2.792,-3.0102,-3.2267,-3.3034,-3.1373,-3.017,-3.0585,-2.8346,-2.5394,-2.1937,-2.0514,-1.9805,-1.9805,-2.1037,-2.2363,-2.3508,-2.5537,-2.6691,-2.6691,-2.8175,-2.8994,-2.8994,-2.8994,-2.8994,-2.8994,-2.7521,-2.6796,-2.6796,-2.6796,-2.586,-2.4199,-2.4199,-2.4199,-2.4199,-2.4199,-2.4199,-2.4199,-2.4199,-2.4199,-2.4199,-2.4199,-2.4199,-2.4199,-2.4199,-2.4199,-2.4247,-2.4657,-2.5015,-2.5293,-2.5293,-2.5376,-2.5483,-2.5483,-2.5593,-2.5703,-2.5703,-2.5703,-2.5644,-2.5371,-2.5293,-2.5293,-2.5293,-2.5293,-2.5293,-2.5293,-2.5293,-2.5293,-2.5293,-2.5293,-2.5293,-2.5293,-2.5293,-2.5293,-2.5293,-2.5293,-2.5293,-2.5293,-2.5293,-2.4591,-2.2774,-2.4236,-2.5293,-2.5293,-2.5293,-2.5293,-2.5293,-2.5293,-2.5293,-2.5293,-2.5293,-2.5149,-2.4804,-2.4392,-2.4199,-2.4199,-2.4199,-2.3466,-2.206,-2.0852,-2.114,-2.2515,-2.0975,-2.0302,-2.0302,-2.0302,-2.0302,-2.0302,-2.0302,-2.0302,-2.0302,-2.0302,-2.0302,-2.0302,-3.119,-3.119,-3.0243,-2.7224,-2.7974,-3.0126,-3.3473,-3.198,-3.037,-3.0107,-2.8106,-2.515,-2.1129,-2.0657,-2.0657,-2.0657,-2.2455,-2.3794,-2.43,-2.6155,-2.7246,-2.7246,-2.8377,-2.8994,-2.8994,-2.8994,-2.8994,-2.8994,-2.8994,-2.8994,-2.8994,-2.8994,-2.7291,-2.4199,-2.4199,-2.4199,-2.4209,-2.4374,-2.4357,-2.4199,-2.4199,-2.4199,-2.4199,-2.4199,-2.4199,-2.4199,-2.4199,-2.4199,-2.4303,-2.5049,-2.5293,-2.5293,-2.5293,-2.5293,-2.5293,-2.5293,-2.5488,-2.5703,-2.5703,-2.5703,-2.5648,-2.5441,-2.5357,-2.5293,-2.5293,-2.5293,-2.5293,-2.5293,-2.5293,-2.5293,-2.5293,-2.5293,-2.5293,-2.5293,-2.5293,-2.5293,-2.5293,-2.5293,-2.5293,-2.5293,-2.5293,-2.4284,-2.1707,-2.3072,-2.4457,-2.5235,-2.5293,-2.5293,-2.5293,-2.5293,-2.4937,-2.4159,-2.414,-2.414,-2.414,-2.3422,-2.3537,-2.4442,-2.3682,-2.2246,-2.0302,-2.0302,-2.0302,-2.0302,-2.0302,-2.0302,-2.0302,-2.0302,-2.0302,-2.0302,-2.0302,-2.0302,-2.0302,-2.0302,-2.0302,-2.0302,-3.119,-3.119,-3.0243,-2.7224,-2.7974,-2.9113,-2.9425,-2.9292,-2.9138,-2.9115,-2.7712,-2.5822,-2.355,-2.3311,-2.3311,-2.3311,-2.3501,-2.4415,-2.6342,-2.7947,-2.8839,-2.8839,-2.8938,-2.8994,-2.8994,-2.8994,-2.8994,-2.8994,-2.8994,-2.8994,-2.8994,-2.8994,-2.7291,-2.4199,-2.4199,-2.4199,-2.4238,-2.4939,-2.4823,-2.4199,-2.4199,-2.4199,-2.4199,-2.4199,-2.4199,-2.4199,-2.4199,-2.4199,-2.4303,-2.5049,-2.5293,-2.5293,-2.5293,-2.5293,-2.5293,-2.5293,-2.5488,-2.5703,-2.5703,-2.5703,-2.5703,-2.5682,-2.5478,-2.5293,-2.5293,-2.5293,-2.5293,-2.5293,-2.5293,-2.5293,-2.5293,-2.5293,-2.5293,-2.5293,-2.5293,-2.5293,-2.5293,-2.5293,-2.5293,-2.5293,-2.5293,-2.5197,-2.4957,-2.2342,-2.1957,-2.5062,-2.5293,-2.5293,-2.5293,-2.5293,-2.388,-2.0773,-2.0677,-2.0677,-2.0677,-1.9997,-2.1527,-2.5174,-2.2067,-2.0492,-2.0302,-2.0302,-2.0302,-2.0302,-2.0302,-2.0302,-2.0302,-2.0302,-2.0302,-2.0302,-2.0302,-2.0302,-2.0302,-2.0302,-2.0302,-2.0302,-3.2598,-3.2822,-3.2447,-3.1291,-3.1601,-3.1311,-2.9287,-2.8994,-2.8994,-2.8994,-2.8489,-2.7455,-2.5725,-2.5529,-2.5529,-2.5529,-2.5529,-2.6251,-2.8012,-2.8667,-2.8994,-2.8994,-2.8994,-2.8994,-2.8994,-2.8994,-2.8994,-2.8994,-2.8994,-2.8994,-2.8994,-2.8994,-2.8342,-2.719,-2.719,-2.6321,-2.4904,-2.5182,-2.5139,-2.4877,-2.4877,-2.4877,-2.4877,-2.4877,-2.4877,-2.4877,-2.4877,-2.4877,-2.4917,-2.5213,-2.5293,-2.5293,-2.5293,-2.5293,-2.5293,-2.5293,-2.5488,-2.5703,-2.5703,-2.5703,-2.5703,-2.5703,-2.5621,-2.5503,-2.5339,-2.5293,-2.5293,-2.5293,-2.5293,-2.5293,-2.5293,-2.5293,-2.5293,-2.5293,-2.5293,-2.5293,-2.5293,-2.5293,-2.5293,-2.5293,-2.5293,-2.5293,-2.5293,-2.4149,-2.3928,-2.5197,-2.5293,-2.5293,-2.5293,-2.3322,-2.1611,-2.034,-2.0302,-2.0302,-2.0302,-2.005,-2.0689,-2.2178,-2.0917,-2.0302,-2.0302,-2.0302,-2.0302,-2.0302,-2.0302,-2.0302,-2.0302,-2.0302,-2.0302,-2.0302,-2.0302,-2.0302,-2.0302,-2.0302,-2.0302,-2.0302,-3.3569,-3.3798,-3.3798,-3.3798,-3.3798,-3.3064,-3.0852,-2.9635,-2.8994,-2.8994,-2.8994,-2.8608,-2.7533,-2.7422,-2.7422,-2.7422,-2.7422,-2.7853,-2.8929,-2.8994,-2.8994,-2.8994,-2.8994,-2.8994,-2.8994,-2.8994,-2.8994,-2.8994,-2.8994,-2.8994,-2.8994,-2.8994,-2.8994,-2.9007,-2.9314,-2.848,-2.6899,-2.6899,-2.6899,-2.6899,-2.6899,-2.6255,-2.5293,-2.5293,-2.5293,-2.5293,-2.5293,-2.5293,-2.5293,-2.5293,-2.5293,-2.5293,-2.5293,-2.5293,-2.5293,-2.5293,-2.5428,-2.5586,-2.5682,-2.5703,-2.5703,-2.5703,-2.5703,-2.5633,-2.5363,-2.5293,-2.5293,-2.5293,-2.5293,-2.5223,-2.5003,-2.4943,-2.4943,-2.4943,-2.5149,-2.5293,-2.5293,-2.5293,-2.5293,-2.5293,-2.5293,-2.5293,-2.5293,-2.5387,-2.5431,-2.5431,-2.5347,-2.4841,-2.3784,-2.1544,-2.0302,-2.0302,-2.0302,-2.0302,-2.0302,-2.0302,-2.0302,-2.0302,-2.0302,-2.0302,-2.0302,-2.0302,-2.0302,-2.0302,-2.0302,-2.0302,-2.0302,-2.0302,-2.0302,-2.0302,-2.0302,-2.0302,-2.0302,-2.0302,-2.0302,-2.0302,-3.3798,-3.3798,-3.3798,-3.3798,-3.3798,-3.3798,-3.3798,-3.1081,-2.8994,-2.8994,-2.8994,-2.8994,-2.8994,-2.8994,-2.8994,-2.8994,-2.8994,-2.8994,-2.8994,-2.8994,-2.8994,-2.8994,-2.8994,-2.8994,-2.8994,-2.8994,-2.8994,-2.8994,-2.8994,-2.8994,-2.8994,-2.8994,-2.9007,-2.9044,-2.9983,-3.0398,-3.0398,-3.0398,-3.0398,-3.0398,-3.0398,-2.8369,-2.5341,-2.5341,-2.5312,-2.5293,-2.5293,-2.5293,-2.5293,-2.5293,-2.5293,-2.5293,-2.5293,-2.5293,-2.5293,-2.5293,-2.5293,-2.5354,-2.5631,-2.5703,-2.5703,-2.5703,-2.5703,-2.5633,-2.5363,-2.5303,-2.5293,-2.5293,-2.5303,-2.5072,-2.433,-2.4199,-2.4199,-2.4199,-2.4809,-2.5293,-2.5293,-2.5293,-2.5293,-2.5293,-2.5293,-2.5293,-2.5303,-2.5537,-2.5703,-2.5703,-2.5453,-2.3832,-2.0485,-2.0302,-2.0302,-2.0302,-2.0302,-2.0302,-2.0302,-2.0302,-2.0302,-2.0302,-2.0302,-2.0302,-2.0302,-2.0302,-2.0302,-2.0302,-2.0302,-2.0302,-2.0302,-2.0302,-2.0302,-2.0302,-2.0302,-2.0302,-2.0302,-2.0302,-2.0302,-2.0302,-3.3798,-3.3798,-3.3798,-3.3798,-3.3798,-3.3798,-3.3798,-3.1081,-2.8994,-2.8994,-2.8994,-2.8994,-2.8994,-2.8994,-2.8994,-2.8994,-2.8994,-2.8994,-2.8994,-2.8994,-2.8994,-2.8994,-2.8994,-2.8994,-2.8994,-2.8994,-2.8994,-2.8994,-2.8994,-2.8994,-2.8994,-2.8994,-2.9346,-2.9983,-3.0273,-3.0398,-3.0398,-3.0398,-3.0398,-3.0398,-3.0398,-2.9783,-2.8879,-2.8879,-2.7389,-2.5293,-2.5293,-2.5293,-2.5293,-2.5293,-2.5293,-2.5293,-2.5293,-2.5293,-2.5293,-2.5293,-2.5293,-2.5354,-2.5631,-2.5703,-2.5703,-2.5703,-2.5703,-2.5683,-2.5601,-2.5444,-2.5293,-2.5293,-2.4891,-2.4459,-2.4238,-2.4199,-2.4199,-2.4199,-2.4374,-2.4717,-2.5233,-2.5293,-2.5293,-2.5293,-2.5293,-2.5369,-2.5558,-2.5649,-2.5703,-2.5703,-2.5453,-2.3832,-2.0485,-2.0302,-2.0302,-2.0302,-2.0302,-2.0302,-2.0302,-2.0302,-2.0302,-2.0302,-2.0302,-2.0302,-2.0302,-2.0302,-2.0302,-2.0302,-2.0302,-2.0302,-2.0302,-2.0302,-2.0383,-2.0499,-2.0354,-2.0302,-2.0302,-2.0302,-2.0302,-2.0302,-3.3798,-3.3798,-3.3798,-3.3798,-3.3798,-3.3798,-3.3798,-3.2155,-3.0907,-3.0907,-2.9782,-2.8994,-2.8994,-2.8994,-2.8994,-2.8994,-2.8994,-2.8994,-2.8994,-2.8994,-2.8994,-2.8994,-2.8994,-2.8994,-2.8994,-2.8994,-2.8994,-2.8994,-2.8994,-2.8994,-2.8994,-2.8994,-2.9504,-3.0398,-3.0398,-3.0398,-3.0398,-3.0398,-3.0398,-3.0398,-3.0398,-3.0398,-3.0398,-3.0398,-2.8273,-2.5293,-2.5293,-2.5293,-2.5322,-2.5424,-2.5459,-2.5459,-2.5459,-2.5459,-2.5444,-2.533,-2.5293,-2.534,-2.5503,-2.5619,-2.5703,-2.5703,-2.5703,-2.5672,-2.5571,-2.5417,-2.5293,-2.5293,-2.4708,-2.4199,-2.4199,-2.4199,-2.4199,-2.4199,-2.4199,-2.4469,-2.5202,-2.5293,-2.5339,-2.5457,-2.5459,-2.5517,-2.5683,-2.5703,-2.5659,-2.5551,-2.5391,-2.3832,-2.0485,-2.0302,-2.0302,-2.0302,-2.0302,-2.0302,-2.0302,-2.0302,-2.0302,-2.0302,-2.0302,-2.0302,-2.0302,-2.0302,-2.0302,-2.0302,-2.0302,-2.0302,-2.031,-2.0388,-2.0486,-2.0585,-2.0474,-2.0369,-2.0302,-2.0302,-2.0302,-2.0302,-3.3798,-3.3798,-3.3798,-3.3798,-3.3798,-3.3798,-3.3798,-3.3798,-3.3798,-3.3798,-3.1008,-2.8994,-2.8994,-2.8994,-2.8994,-2.8994,-2.8994,-2.8994,-2.8994,-2.8994,-2.8994,-2.8994,-2.8994,-2.8994,-2.8994,-2.8994,-2.8994,-2.8994,-2.8994,-2.8994,-2.8994,-2.8994,-2.9504,-3.0398,-3.0398,-3.0398,-3.0398,-3.0398,-3.0398,-3.0398,-3.0398,-3.0398,-3.0398,-3.0398,-2.8466,-2.5716,-2.5409,-2.5293,-2.5348,-2.5615,-2.5703,-2.5703,-2.5703,-2.5703,-2.5647,-2.5377,-2.5293,-2.5303,-2.5331,-2.5508,-2.5703,-2.5703,-2.5703,-2.5633,-2.5363,-2.5293,-2.5283,-2.5213,-2.4672,-2.4199,-2.4199,-2.4199,-2.4199,-2.4199,-2.4199,-2.4469,-2.5202,-2.5293,-2.5398,-2.5672,-2.5703,-2.5703,-2.5703,-2.5703,-2.5595,-2.5312,-2.5014,-2.3515,-2.0465,-2.0302,-2.0302,-2.0302,-2.0302,-2.0302,-2.0302,-2.0302,-2.0302,-2.0302,-2.0302,-2.0302,-2.0302,-2.0302,-2.0302,-2.0302,-2.0302,-2.0302,-2.0306,-2.0501,-2.0575,-2.0596,-2.0596,-2.0493,-2.0335,-2.0335,-2.0323,-2.0302,-3.3798,-3.3798,-3.3798,-3.3798,-3.3798,-3.3798,-3.3798,-3.3798,-3.3798,-3.3798,-3.1008,-2.8994,-2.8994,-2.8994,-2.8994,-2.8994,-2.8994,-2.8994,-2.8994,-2.8994,-2.8994,-2.8994,-2.8994,-2.8994,-2.8994,-2.8994,-2.8994,-2.8994,-2.8994,-2.8994,-2.8994,-2.8994,-2.9504,-3.0398,-3.0398,-3.0398,-3.0398,-3.0398,-3.0398,-3.0398,-3.0398,-3.0398,-3.0398,-3.0398,-2.9936,-2.8937,-2.6255,-2.5293,-2.5348,-2.5615,-2.5703,-2.5703,-2.5703,-2.5703,-2.5647,-2.5377,-2.5293,-2.5357,-2.5564,-2.5659,-2.5703,-2.5703,-2.5703,-2.5633,-2.5363,-2.5293,-2.5149,-2.4566,-2.4312,-2.4199,-2.4199,-2.4199,-2.4199,-2.4199,-2.4199,-2.4469,-2.5202,-2.5293,-2.5398,-2.5672,-2.5703,-2.5703,-2.5703,-2.5703,-2.5595,-2.5312,-2.2871,-2.1071,-2.034,-2.0302,-2.0302,-2.0302,-2.0302,-2.0302,-2.0302,-2.0302,-2.0302,-2.0302,-2.0302,-2.0302,-2.0302,-2.0302,-2.0302,-2.0302,-2.0302,-2.0302,-2.0292,-2.035,-2.0457,-2.0596,-2.0596,-2.0574,-2.0533,-2.0533,-2.0443,-2.0302,-3.3798,-3.3798,-3.3798,-3.3798,-3.3798,-3.3798,-3.3798,-3.3798,-3.3798,-3.3798,-3.1008,-2.9571,-3.1127,-2.991,-2.8994,-2.8994,-2.8994,-2.8994,-2.8994,-2.8994,-2.8994,-2.8994,-2.8994,-2.8994,-2.8994,-2.8994,-2.8994,-2.8994,-2.8994,-2.8994,-2.8994,-2.8994,-2.9251,-2.9731,-2.9731,-2.9731,-2.9765,-3.0215,-3.0398,-3.0398,-3.0398,-3.0398,-3.0398,-3.0398,-3.0398,-2.9946,-2.6524,-2.5385,-2.5508,-2.5648,-2.5703,-2.5703,-2.5703,-2.5703,-2.5672,-2.5525,-2.5398,-2.5321,-2.5467,-2.5508,-2.5543,-2.5672,-2.5603,-2.5467,-2.533,-2.5293,-2.5084,-2.4348,-2.4199,-2.4199,-2.4199,-2.4199,-2.4199,-2.4199,-2.4199,-2.4469,-2.5202,-2.5403,-2.5543,-2.5683,-2.5703,-2.5703,-2.5703,-2.5703,-2.5595,-2.5312,-2.3678,-2.2688,-2.2688,-2.1177,-2.0302,-2.0302,-2.0302,-2.0302,-2.0302,-2.0302,-2.0302,-2.0302,-2.0302,-2.0302,-2.0302,-2.0302,-2.0302,-2.0302,-2.0302,-2.0302,-2.0302,-2.0302,-2.0357,-2.0474,-2.0561,-2.0596,-2.0596,-2.0596,-2.0531,-2.0441,-3.3798,-3.3798,-3.3798,-3.3798,-3.3798,-3.3798,-3.3798,-3.3798,-3.3798,-3.3798,-3.1485,-3.0852,-3.3513,-3.1066,-2.924,-2.924,-2.9102,-2.8994,-2.8994,-2.8994,-2.8994,-2.8994,-2.8994,-2.8994,-2.8994,-2.8994,-2.8994,-2.8994,-2.8994,-2.8994,-2.8994,-2.8994,-2.8994,-2.8994,-2.8994,-2.8994,-2.9067,-3.0007,-3.0398,-3.0398,-3.0398,-3.0398,-3.0398,-3.0398,-3.0398,-3.0023,-2.7187,-2.5966,-2.5693,-2.5647,-2.5633,-2.5636,-2.5693,-2.5703,-2.5703,-2.5703,-2.5508,-2.5293,-2.5293,-2.5293,-2.5346,-2.5577,-2.5455,-2.5293,-2.5293,-2.5293,-2.5084,-2.4348,-2.4199,-2.4199,-2.4199,-2.4294,-2.4401,-2.4401,-2.4401,-2.4604,-2.5213,-2.5535,-2.5703,-2.5703,-2.5703,-2.5703,-2.5703,-2.5703,-2.5613,-2.5385,-2.5331,-2.5043,-2.4476,-2.1803,-2.0302,-2.0302,-2.0302,-2.0302,-2.0302,-2.0302,-2.0302,-2.0302,-2.033,-2.0347,-2.0347,-2.0347,-2.0332,-2.0302,-2.0302,-2.0302,-2.0302,-2.0302,-2.0302,-2.0323,-2.048,-2.0573,-2.0596,-2.0596,-2.0596,-2.0596,-3.3798,-3.3798,-3.3798,-3.3798,-3.3798,-3.3798,-3.3798,-3.3798,-3.3798,-3.3798,-3.3421,-3.332,-3.3752,-3.1638,-3.0215,-3.0215,-2.9466,-2.8994,-2.8994,-2.8994,-2.8994,-2.8994,-2.8994,-2.8994,-2.8994,-2.8994,-2.8994,-2.8994,-2.8994,-2.8994,-2.8994,-2.8994,-2.8994,-2.8994,-2.8994,-2.8994,-2.9067,-3.0007,-3.0398,-3.0398,-3.0398,-3.0398,-3.0398,-3.0398,-3.0398,-3.0331,-2.9879,-2.7984,-2.5661,-2.5428,-2.5346,-2.5391,-2.5631,-2.5703,-2.5703,-2.5703,-2.5508,-2.5293,-2.5293,-2.5293,-2.5313,-2.5348,-2.5331,-2.5293,-2.5293,-2.5293,-2.5084,-2.4348,-2.4199,-2.4199,-2.4199,-2.4723,-2.515,-2.515,-2.515,-2.5191,-2.5283,-2.5535,-2.5703,-2.5703,-2.5703,-2.5703,-2.5703,-2.5703,-2.5683,-2.5648,-2.5428,-2.4024,-2.1131,-2.0552,-2.0302,-2.0302,-2.0302,-2.0302,-2.0302,-2.0302,-2.0302,-2.0302,-2.0484,-2.056,-2.056,-2.056,-2.0464,-2.0302,-2.0302,-2.0302,-2.0302,-2.0302,-2.0302,-2.0302,-2.0332,-2.0455,-2.0596,-2.0596,-2.0596,-2.0596,-3.3449,-3.3798,-3.3798,-3.3798,-3.3798,-3.3798,-3.3798,-3.3798,-3.3798,-3.3798,-3.3798,-3.3798,-3.3798,-3.1776,-3.0398,-3.0398,-2.9533,-2.8994,-2.8994,-2.8994,-2.8994,-2.8994,-2.8994,-2.8994,-2.8994,-2.8994,-2.8994,-2.8994,-2.9523,-2.9514,-2.8994,-2.8994,-2.8994,-2.8994,-2.8994,-2.8994,-2.9067,-3.0007,-3.0398,-3.0398,-3.0398,-3.0398,-3.0398,-3.0398,-3.0398,-3.0175,-2.8414,-2.688,-2.566,-2.5391,-2.5293,-2.5312,-2.5434,-2.5482,-2.5482,-2.5482,-2.5391,-2.5293,-2.5293,-2.5293,-2.5293,-2.5293,-2.5293,-2.5293,-2.5293,-2.5293,-2.5213,-2.4877,-2.4809,-2.4809,-2.4809,-2.5084,-2.5293,-2.5293,-2.5293,-2.5293,-2.5293,-2.5535,-2.5703,-2.5703,-2.5703,-2.5703,-2.5703,-2.5703,-2.5703,-2.5703,-2.5453,-2.4649,-2.3169,-2.1321,-2.0347,-2.0464,-2.0464,-2.0464,-2.0464,-2.0464,-2.0464,-2.0467,-2.056,-2.0596,-2.0596,-2.0596,-2.0548,-2.046,-2.0357,-2.0302,-2.0302,-2.0302,-2.0302,-2.0302,-2.0302,-2.0415,-2.0596,-2.0596,-2.0596,-2.0596]},{"header":{"parameterUnit":"m.s-1","parameterCategory":1,"la1":30.6,"la2":28.766,"lo1":-90.7593,"lo2":-88.6598,"dy":0.0162,"dx":0.0183,"nx":116,"ny":114,"refTime":"2024-07-03T18:00:00:Z","depth":0,"parameterNumber":3,"parameterNumberName":"V-component_of_WINDS"},"data":[0.0,0.0,0.0,0.0,0.0,0.0,0.0,0.0,0.0,0.0,0.0,0.0,0.0,0.0,0.0,0.0,0.0,0.0,0.0,0.0,0.0,0.0,0.0,0.0,0.0,0.0,0.0,0.0,0.0,0.0,0.0,0.0,0.0,0.0,0.0,0.0,0.0,0.0,0.0,0.0,0.0,0.0,0.0,0.0,0.0,0.0,0.0,0.0,0.0,0.0,0.0,0.0,0.0,0.0,0.0,0.0,0.0,0.0,0.0,0.0,0.0,0.0,0.0,0.0,0.0,0.0,0.0,0.0,0.0,0.0,0.0,0.0,0.0,0.0,0.0,0.0,0.0,0.0,0.0,0.0,0.0,0.0,0.0,0.0,0.0,0.0,0.0,0.0,0.0,0.0,0.0,0.0,0.0,0.0,0.0,0.0,0.0,0.0,0.0,0.0,0.0,0.0,0.0,0.0,0.0,0.0,0.0,0.0,0.0,0.0,0.0,0.0,0.0,0.0,0.0,0.0,0.0,0.0,0.0,0.0,0.0,0.0,0.0,0.0,0.0,0.0,0.0,0.0,0.0,0.0,0.0,0.0,0.0,0.0,0.0,0.0,0.0,0.0,0.0,0.0,0.0,0.0,0.0,0.0,0.0,0.0,0.0,0.0,0.0,0.0,0.0,0.0,0.0,0.0,0.0,0.0,0.0,0.0,0.0,0.0,0.0,0.0,0.0,0.0,0.0,0.0,0.0,0.0,0.0,0.0,0.0,0.0,0.0,0.0,0.0,0.0,0.0,0.0,0.0,0.0,0.0,0.0,0.0,0.0,0.0,0.0,0.0,0.0,0.0,0.0,0.0,0.0,0.0,0.0,0.0,0.0,0.0,0.0,0.0,0.0,0.0,0.0,0.0,0.0,0.0,0.0,0.0,0.0,0.0,0.0,0.0,0.0,0.0,0.0,0.0,0.0,0.0,0.0,0.0,0.0,0.0,0.0,0.0,0.0,0.0,0.0,0.0,0.0,0.0,0.0,0.0,0.0,0.0,0.0,0.0,0.0,0.0,0.0,0.0,0.0,0.0,0.0,0.0,0.0,0.0,0.0,0.0,0.0,0.0,0.0,0.0,0.0,0.0,0.0,0.0,0.0,0.0,0.0,0.0,0.0,0.0,0.0,0.0,0.0,0.0,0.0,0.0,0.0,0.0,0.0,0.0,0.0,0.0,0.0,0.0,0.0,0.0,0.0,0.0,0.0,0.0,0.0,0.0,0.0,0.0,0.0,0.0,0.0,0.0,0.0,0.0,0.0,0.0,0.0,0.0,0.0,0.0,0.0,0.0,0.0,0.0,0.0,0.0,0.0,0.0,0.0,0.0,0.0,0.0,0.0,0.0,0.0,0.0,0.0,0.0,0.0,0.0,0.0,0.0,0.0,0.0,0.0,0.0,0.0,0.0,0.0,0.0,0.0,0.0,0.0,0.0,0.0,0.0,0.0,0.0,0.0,0.0,0.0,0.0,0.0,0.0,0.0,0.0,0.0,0.0,0.0,0.0,0.0,0.0,0.0,0.0,0.0,0.0,0.0,0.0,0.0,0.0,0.0,0.0,0.0,0.0,0.0,0.0,0.0,0.0,0.0,0.0,0.0,0.0,0.0,0.0,0.0,0.0,0.0,0.0,0.0,0.0,0.0,0.0,0.0,0.0,0.0,0.0,0.0,0.0,0.0,0.0,0.0,0.0,0.0,0.0,0.0,0.0,0.0,0.0,0.0,0.0,0.0,0.0,0.0,0.0,0.0,0.0,0.0,0.0,0.0,0.0,0.0,0.0,0.0,0.0,0.0,0.0,0.0,0.0,0.0,0.0,0.0,0.0,0.0,0.0,0.0,0.0,0.0,0.0,0.0,0.0,0.0,0.0,0.0,0.0,0.0,0.0,0.0,0.0,0.0,0.0,0.0,0.0,0.0,0.0,0.0,0.0,0.0,0.0,0.0,0.0,0.0,0.0,0.0,0.0,0.0,0.0,0.0,0.0,0.0,0.0,0.0,0.0,0.0,0.0,0.0,0.0,0.0,0.0,0.0,0.0,0.0,0.0,0.0,0.0,0.0,0.0,0.0,0.0,0.0,0.0,0.0,0.0,0.0,0.0,0.0,0.0,0.0,0.0,0.0,0.0,0.0,0.0,0.0,0.0,0.0,0.0,0.0,0.0,0.0,0.0,0.0,0.0,0.0,0.0,0.0,0.0,0.0,0.0,0.0,0.0,0.0,0.0,0.0,0.0,0.0,0.0,0.0,0.0,0.0,0.0,0.0,0.0,0.0,0.0,0.0,0.0,0.0,0.0,0.0,0.0,0.0,0.0,0.0,0.0,0.0,0.0,0.0,0.0,0.0,0.0,0.0,0.0,0.0,0.0,0.0,0.0,0.0,0.0,0.0,0.0,0.0,0.0,0.0,0.0,0.0,0.0,0.0,0.0,0.0,0.0,0.0,0.0,0.0,0.0,0.0,0.0,0.0,0.0,0.0,0.0,0.0,0.0,0.0,0.0,0.0,0.0,0.0,0.0,0.0,0.0,0.0,0.0,0.0,0.0,0.0,0.0,0.0,0.0,0.0,0.0,0.0,0.0,0.0,0.0,0.0,0.0,0.0,0.0,0.0,0.0,0.0,0.0,0.0,0.0,0.0,0.0,0.0,0.0,0.0,0.0,0.0,0.0,0.0,0.0,0.0,0.0,0.0,0.0,0.0,0.0,0.0,0.0,0.0,0.0,0.0,0.0,0.0,0.0,0.0,0.0,0.0,0.0,0.0,0.0,0.0,0.0,0.0,0.0,0.0,0.0,0.0,0.0,0.0,0.0,0.0,0.0,0.0,0.0,0.0,0.0,0.0,0.0,0.0,0.0,0.0,0.0,0.0,0.0,0.0,0.0,0.0,0.0,0.0,0.0,0.0,0.0,0.0,0.0,0.0,0.0,0.0,0.0,0.0,0.0,0.0,0.0,0.0,0.0,0.0,0.0,0.0,0.0,0.0,0.0,0.0,0.0,0.0,0.0,0.0,0.0,0.0,0.0,0.0,0.0,0.0,0.0,0.0,0.0,0.0,0.0,0.0,0.0,0.0,0.0,0.0,0.0,0.0,0.0,0.0,0.0,0.0,0.0,0.0,0.0,0.0,0.0,0.0,0.0,0.0,0.0,0.0,0.0,0.0,0.0,0.0,0.0,0.0,0.0,0.0,0.0,0.0,0.0,0.0,0.0,0.0,0.0,0.0,0.0,0.0,0.0,0.0,0.0,0.0,0.0,0.0,0.0,0.0,0.0,0.0,0.0,0.0,0.0,0.0,0.0,0.0,0.0,0.0,0.0,0.0,0.0,0.0,0.0,0.0,0.0,0.0,0.0,0.0,0.0,0.0,0.0,0.0,0.0,0.0,0.0,0.0,0.0,0.0,0.0,0.0,0.0,0.0,0.0,0.0,0.0,0.0,0.0,0.0,0.0,0.0,0.0,0.0,0.0,0.0,0.0,0.0,0.0,0.0,0.0,0.0,0.0,0.0,0.0,0.0,0.0,0.0,0.0,0.0,0.0,0.0,0.0,0.0,0.0,0.0,0.0,0.0,0.0,0.0,0.0,0.0,0.0,0.0,0.0,0.0,0.0,0.0,0.0,0.0,0.0,0.0,0.0,0.0,0.0,0.0,0.0,0.0,0.0,0.0,0.0,0.0,0.0,0.0,0.0,0.0,0.0,0.0,0.0,0.0,0.0,0.0,0.0,0.0,0.0,0.0,0.0,0.0,0.0,0.0,0.0,0.0,0.0,0.0,0.0,0.0,0.0,0.0,0.0,0.0,0.0,0.0,0.0,0.0,0.0,0.0,0.0,0.0,0.0,0.0,0.0,0.0,0.0,0.0,0.0,0.0,0.0,0.0,0.0,0.0,0.0,0.0,0.0,0.0,0.0,0.0,0.0,0.0,0.0,0.0,0.0,0.0,0.0,0.0,0.0,0.0,0.0,0.0,0.0,0.0,0.0,0.0,0.0,0.0,0.0,0.0,0.0,0.0,0.0,0.0,0.0,0.0,0.0,0.0,0.0,0.0,0.0,0.0,0.0,0.0,0.0,0.0,0.0,0.0,0.0,0.0,0.0,0.0,0.0,0.0,0.0,0.0,0.0,0.0,0.0,0.0,0.0,0.0,0.0,0.0,0.0,0.0,0.0,0.0,0.0,0.0,0.0,0.0,0.0,0.0,0.0,0.0,0.0,0.0,0.0,0.0,0.0,0.0,0.0,0.0,0.0,0.0,0.0,0.0,0.0,0.0,0.0,0.0,0.0,0.0,0.0,0.0,0.0,0.0,0.0,0.0,0.0,0.0,0.0,0.0,0.0,0.0,0.0,0.0,0.0,0.0,0.0,0.0,0.0,0.0,0.0,0.0,0.0,0.0,0.0,0.0,0.0,0.0,0.0,0.0,0.0,0.0,0.0,0.0,0.0,0.0,0.0,0.0,0.0,0.0,0.0,0.0,0.0,0.0,0.0,0.0,0.0,0.0,0.0,0.0,0.0,0.0,0.0,0.0,0.0,0.0,0.0,0.0,0.0,0.0,0.0,0.0,0.0,0.0,0.0,0.0,0.0,0.0,0.0,0.0,0.0,0.0,0.0,0.0,0.0,0.0,0.0,0.0,0.0,0.0,0.0,0.0,0.0,0.0,0.0,0.0,0.0,0.0,0.0,0.0,0.0,0.0,0.0,0.0,0.0,0.0,0.0,0.0,0.0,0.0,0.0,0.0,0.0,0.0,0.0,0.0,0.0,0.0,0.0,0.0,0.0,0.0,0.0,0.0,0.0,0.0,0.0,0.0,0.0,0.0,0.0,0.0,0.0,0.0,0.0,0.0,0.0,0.0,0.0,0.0,0.0,0.0,0.0,0.0,0.0,0.0,0.0,0.0,0.0,0.0,0.0,0.0,0.0,0.0,0.0,0.0,0.0,0.0,0.0,0.0,0.0,0.0,0.0,0.0,0.0,0.0,0.0,0.0,0.0,0.0,0.0,0.0,0.0,0.0,0.0,0.0,0.0,0.0,0.0,0.0,0.0,0.0,0.0,0.0,0.0,0.0,0.0,0.0,0.0,0.0,0.0,0.0,0.0,0.0,0.0,0.0,0.0,0.0,0.0,0.0,0.0,0.0,0.0,0.0,0.0,0.0,0.0,0.0,0.0,0.0,0.0,0.0,0.0,0.0,0.0,0.0,0.0,0.0,0.0,0.0,0.0,0.0,0.0,0.0,0.0,0.0,0.0,0.0,0.0,0.0,0.0,0.0,0.0,0.0,0.0,0.0,0.0,0.0,0.0,0.0,0.0,0.0,0.0,0.0,0.0,0.0,0.0,0.0,0.0,0.0,0.0,0.0,0.0,0.0,0.0,0.0,0.0,0.0,0.0,0.0,0.0,0.0,0.0,0.0,0.0,0.0,0.0,0.0,0.0,0.0,0.0,0.0,0.0,0.0,0.0,0.0,0.0,0.0,0.0,0.0,0.0,0.0,0.0,0.0,0.0,0.0,0.0,0.0,0.0,0.0,0.0,0.0,0.0,0.0,0.0,0.0,0.0,0.0,0.0,0.0,0.0,0.0,0.0,0.0,0.0,0.0,0.0,0.0,0.0,0.0,0.0,0.0,0.0,0.0,0.0,0.0,0.0,0.0,0.0,0.0,0.0,0.0,0.0,0.0,0.0,0.0,0.0,0.0,0.0,0.0,0.0,0.0,0.0,0.0,0.0,0.0,0.0,0.0,0.0,0.0,0.0,0.0,0.0,0.0,0.0,0.0,0.0,0.0,0.0,0.0,0.0,0.0,0.0,0.0,0.0,0.0,0.0,0.0,0.0,0.0,0.0,0.0,0.0,0.0,0.0,0.0,0.0,0.0,0.0,0.0,0.0,0.0,0.0,0.0,0.0,0.0,0.0,0.0,0.0,0.0,0.0,0.0,0.0,0.0,0.0,0.0,0.0,0.0,0.0,0.0,0.0,0.0,0.0,0.0,0.0,0.0,0.0,0.0,0.0,0.0,0.0,0.0,0.0,0.0,0.0,0.0,0.0,0.0,0.0,0.0,0.0,0.0,0.0,0.0,0.0,0.0,-1.6802,-1.6901,0.0,0.0,0.0,0.0,0.0,0.0,0.0,0.0,0.0,0.0,0.0,0.0,0.0,0.0,0.0,0.0,0.0,0.0,0.0,0.0,0.0,0.0,0.0,-0.5108,-0.5151,-0.5291,-0.5665,-0.5936,-0.6052,0.0,0.0,0.0,0.0,0.0,-0.6599,-0.6319,-0.619,-0.619,-0.6128,-0.6084,-0.6084,-0.6079,-0.5934,-0.5742,0.0,0.0,0.0,0.0,0.0,0.0,0.0,0.0,0.0,0.0,0.0,0.0,0.0,0.0,0.0,0.0,0.0,0.0,0.0,0.0,0.0,0.0,0.0,0.0,0.0,0.0,0.0,0.0,0.0,0.0,0.0,0.0,0.0,0.0,0.0,0.0,0.0,0.0,0.0,0.0,0.0,0.0,0.0,0.0,0.0,0.0,0.0,0.0,0.0,0.0,0.0,0.0,0.0,0.0,0.0,0.0,0.0,0.0,0.0,0.0,0.0,0.0,0.0,0.0,0.0,0.0,0.0,0.0,0.0,0.0,-1.9972,-1.8819,0.0,0.0,0.0,0.0,0.0,0.0,0.0,0.0,0.0,0.0,0.0,0.0,0.0,0.0,0.0,0.0,0.0,0.0,0.0,0.0,0.0,-0.5108,-0.5108,-0.5108,-0.5142,-0.5215,-0.5726,-0.6035,-0.601,-0.6463,0.0,0.0,0.0,-0.6708,-0.6655,-0.6647,-0.6606,-0.6543,-0.6598,-0.6714,-0.687,-0.7251,-0.7227,-0.6876,-0.7146,0.0,0.0,0.0,0.0,0.0,0.0,0.0,0.0,0.0,0.0,0.0,0.0,0.0,0.0,0.0,0.0,0.0,0.0,0.0,0.0,0.0,0.0,0.0,0.0,0.0,0.0,0.0,0.0,0.0,0.0,0.0,0.0,0.0,0.0,0.0,0.0,0.0,0.0,0.0,0.0,0.0,0.0,0.0,0.0,0.0,0.0,0.0,0.0,0.0,0.0,0.0,0.0,0.0,0.0,0.0,0.0,0.0,0.0,0.0,0.0,0.0,0.0,0.0,-1.9682,-2.0607,-2.2369,-2.4251,-2.53,-2.5444,-2.1934,-2.0322,-2.0212,-2.0897,0.0,0.0,0.0,0.0,0.0,0.0,0.0,0.0,0.0,0.0,0.0,0.0,0.0,0.0,0.0,0.0,0.0,0.0,0.0,-0.5108,-0.5108,-0.5108,-0.5263,-0.5681,-0.6253,-0.654,-0.6427,-0.6965,0.0,0.0,-0.7038,-0.7159,-0.6864,-0.7083,-0.7038,-0.6764,-0.7283,-0.7905,-0.8662,-0.8726,-0.8721,-0.8633,-0.8416,-0.8681,-0.9279,0.0,0.0,0.0,0.0,0.0,0.0,0.0,0.0,0.0,0.0,0.0,0.0,0.0,0.0,0.0,0.0,0.0,0.0,0.0,0.0,0.0,0.0,0.0,0.0,0.0,0.0,0.0,0.0,0.0,0.0,0.0,0.0,0.0,0.0,0.0,0.0,0.0,0.0,0.0,0.0,0.0,-0.4233,-0.0867,0.0,0.0,0.0,0.0,0.0,0.0,0.0,0.0,0.0,0.0,0.0,0.0,0.0,-1.1992,-1.5583,-1.5938,-1.7283,-1.9682,-1.9682,-2.0607,-2.2358,-2.3729,-2.47,-2.5337,-2.5002,0.0,-2.3603,-2.4333,0.0,0.0,0.0,0.0,0.0,0.0,0.0,0.0,0.0,0.0,0.0,0.0,0.0,0.0,0.0,0.0,0.0,0.0,0.0,0.0,0.0,-0.5326,-0.5571,-0.5783,-0.6559,-0.7018,-0.6947,-0.7694,-0.7971,-0.7577,-0.7932,-0.7898,-0.7354,-0.7576,-0.7684,-0.7689,-0.8201,-0.8758,-0.9394,-0.9348,-0.9627,-1.0164,-0.9992,-0.9794,-0.9552,-0.8996,0.0,0.0,0.0,0.0,0.0,0.0,0.0,0.0,0.0,0.0,0.0,0.0,0.0,0.0,0.0,0.0,0.0,0.0,0.0,0.0,0.0,0.0,0.0,0.0,0.0,0.0,0.0,0.0,0.0,0.0,0.0,0.0,0.0,0.0,0.0,0.0,0.0,0.0,0.0,-0.7135,-0.5426,-0.2398,-0.3142,-0.5736,0.0,0.0,0.0,0.0,0.0,0.0,0.0,0.0,0.0,-1.1763,-1.3073,-1.4678,-1.646,-1.6515,-1.7585,-1.9682,-1.9682,-2.012,-2.0894,-2.2441,-2.3696,-2.4689,-2.4811,-2.4836,-2.4846,-2.5329,-2.4708,-2.3436,0.0,0.0,0.0,0.0,-1.7344,-1.6384,0.0,0.0,0.0,0.0,0.0,0.0,0.0,0.0,0.0,0.0,0.0,0.0,-0.5108,-0.5518,-0.5847,-0.595,-0.6929,-0.7505,0.0,-0.838,-0.875,-0.8311,-0.8701,-0.8567,-0.7801,-0.7986,-0.8367,-0.892,-0.9077,-0.952,-1.0245,-0.9929,-1.022,-1.1055,-1.0899,-1.0573,-1.0123,-0.9466,-0.935,0.0,0.0,0.0,0.0,0.0,0.0,0.0,0.0,0.0,0.0,0.0,0.0,0.0,0.0,0.0,0.0,0.0,0.0,0.0,0.0,0.0,0.0,0.0,0.0,0.0,0.0,0.0,0.0,0.0,0.0,0.0,0.0,0.0,0.0,0.0,0.0,0.0,0.0,-0.9022,-0.8346,-0.6313,-0.7558,-1.0499,0.0,0.0,0.0,0.0,0.0,0.0,-1.4104,-1.3311,-1.2881,-1.2881,-1.5248,-1.6515,-1.6515,-1.6515,-1.7312,-1.8893,-1.9442,-1.9682,-1.9754,-2.1031,-2.2405,-2.3719,-2.3719,-2.4035,-2.4591,-2.53,-2.5598,-2.5564,-2.5168,-2.4472,-2.3383,-2.0702,-1.8334,-1.6515,0.0,0.0,0.0,0.0,0.0,0.0,0.0,0.0,0.0,0.0,0.0,-0.5108,-0.5108,-0.5518,-0.596,-0.6338,-0.7471,-0.811,0.0,0.0,-0.9172,-0.8345,-0.9097,-0.9067,-0.8018,-0.8244,-0.9016,-1.0309,-0.9801,-1.0314,-1.1665,-1.0723,-1.0547,-1.0987,-1.0534,-1.0857,-1.1668,-1.1055,-1.0758,-1.0614,0.0,0.0,0.0,0.0,0.0,0.0,0.0,0.0,0.0,0.0,0.0,0.0,0.0,0.0,0.0,0.0,0.0,0.0,0.0,0.0,0.0,0.0,0.0,0.0,0.0,0.0,0.0,0.0,0.0,0.0,0.0,0.0,0.0,0.0,0.0,0.0,0.0,0.0,0.0,-1.273,-1.283,0.0,0.0,0.0,0.0,-1.9364,-1.7595,-1.6431,-1.6352,-1.4152,-1.2881,-1.2881,-1.5248,-1.6515,-1.6515,-1.6515,-1.6558,-1.6674,-1.8734,-1.9682,-1.9682,-1.9782,-2.0756,-2.2405,-2.2405,-2.2415,-2.2591,-2.454,-2.5312,-2.5245,-2.4531,-2.3486,-2.2183,-2.0371,-1.8334,-1.6515,0.0,0.0,0.0,-0.5108,-0.5108,-0.5108,-0.5108,-0.5108,-0.5108,-0.5108,-0.5108,-0.5108,0.0,-0.5518,-0.5933,-0.6249,-0.7462,-0.8327,-0.8628,0.0,-1.0372,-1.0158,-1.0668,-1.0494,-0.95,-0.9632,-0.9889,-1.0351,-1.0743,-1.1336,-1.2103,-1.1829,-1.1987,-1.2363,-1.163,-1.1509,-1.1778,-1.0578,-1.0191,-1.033,-0.9283,-0.9029,0.0,0.0,0.0,0.0,0.0,0.0,0.0,0.0,0.0,0.0,0.0,0.0,0.0,0.0,0.0,0.0,0.0,0.0,0.0,0.0,0.0,0.0,0.0,0.0,0.0,0.0,0.0,0.0,0.0,0.0,0.0,0.0,0.0,0.0,0.0,0.0,0.0,-1.2883,-1.2028,0.0,-1.6604,-1.6944,-1.7167,-1.7599,-1.6915,-1.6515,-1.6515,-1.57,-1.5203,-1.5203,-1.6064,-1.6515,-1.6515,-1.6515,-1.7225,-1.8631,-1.9389,-2.0641,-2.2203,-2.2203,-2.1637,-2.064,-2.064,-2.064,-2.0667,-2.1403,-2.283,-2.448,-2.3397,-2.202,-2.0374,-1.837,-1.7153,-1.6515,-0.5108,-0.5108,0.0,-0.5108,-0.5108,-0.5108,-0.5108,-0.5108,-0.5108,-0.5108,-0.5239,-0.5326,-0.5326,-0.5975,-0.6472,-0.6667,-0.7932,-0.8885,-0.9241,-1.0298,-1.0923,-1.0932,-1.109,-1.1059,-1.0738,-1.0658,-1.0723,-1.098,-1.1435,-1.197,-1.2552,-1.2314,-1.2436,-1.2877,-1.2068,-1.1742,-1.1716,-1.0721,-1.0336,-1.0438,-0.9891,-0.9836,-0.9926,0.0,0.0,0.0,0.0,0.0,0.0,0.0,0.0,0.0,0.0,0.0,0.0,0.0,0.0,0.0,0.0,0.0,0.0,0.0,0.0,0.0,0.0,0.0,0.0,0.0,0.0,0.0,0.0,0.0,0.0,0.0,0.0,0.0,0.0,-1.0677,-1.1587,-1.2744,-1.1865,-1.2275,-1.5025,-1.5293,-1.5605,-1.6429,-1.6515,-1.6848,-1.7582,-1.7626,-1.7626,-1.7626,-1.7626,-1.7626,-1.7626,-1.7626,-1.8361,-1.9805,-1.9805,-2.1135,-2.3602,-2.3602,-2.2645,-2.1006,-2.1006,-2.1006,-2.1006,-2.1006,-2.2189,-2.3834,-2.2106,-2.0706,-1.9442,-1.7312,-1.6515,-1.6515,-0.5108,-0.5108,-0.5108,-0.5108,-0.5108,-0.5108,-0.5108,-0.5108,-0.5108,-0.5108,-0.5508,-0.5803,-0.5803,-0.6876,-0.7592,-0.7592,-0.8932,-0.9786,-0.9805,-1.0481,-1.076,-1.0456,-1.0312,-1.0657,-1.1599,-1.1223,-1.1446,-1.2282,-1.1877,-1.2126,-1.2962,-1.2098,-1.1892,-1.2345,-1.1877,-1.1669,-1.1669,-1.1626,-1.1371,-1.1056,-1.1415,-1.1625,-1.1524,0.0,0.0,0.0,0.0,0.0,0.0,0.0,0.0,0.0,0.0,0.0,0.0,0.0,0.0,0.0,0.0,0.0,0.0,0.0,0.0,0.0,0.0,0.0,0.0,0.0,0.0,0.0,0.0,0.0,0.0,0.0,0.0,0.0,-1.0361,-1.1821,-1.2881,-1.2881,-1.2881,-1.2881,-1.2881,-1.2973,-1.3978,-1.6337,-1.6541,-1.7551,-1.9685,-1.9805,-1.9805,-1.9805,-1.9805,-1.9805,-1.9805,-1.9805,-1.9805,-1.9805,-1.9805,-2.1135,-2.3602,-2.3602,-2.3602,-2.3602,-2.3602,-2.3602,-2.3602,-2.3602,-2.3602,-2.3348,-2.0797,-1.9802,-1.9561,-1.7418,-1.6616,-1.6616,-0.5108,-0.5108,-0.5108,-0.5108,-0.5108,-0.5171,-0.5349,-0.5228,-0.5171,-0.5373,-0.5637,-0.5803,-0.5803,-0.6627,-0.7234,-0.738,-0.8597,-0.9525,-0.9925,-1.0534,-1.1103,-1.1537,-1.106,-1.1217,-1.2158,-1.1753,-1.1737,-1.2218,-1.2513,-1.2721,-1.2918,-1.313,-1.3258,-1.3375,-1.2905,-1.2671,-1.2671,-1.2213,-1.1807,-1.1419,-1.1176,-1.0888,-1.0666,0.0,0.0,0.0,0.0,0.0,0.0,0.0,0.0,0.0,0.0,0.0,0.0,0.0,0.0,0.0,0.0,0.0,0.0,0.0,0.0,0.0,0.0,0.0,0.0,0.0,0.0,0.0,0.0,0.0,0.0,0.0,-1.1035,-1.2214,-1.2214,-1.2583,-1.2881,-1.2881,-1.2881,-1.2881,-1.2881,-1.4479,-1.5794,-1.6429,-1.8003,-1.9164,-1.9767,-1.9805,-1.9805,-1.9805,-1.9805,-1.9805,-1.9805,-1.9805,-1.9805,-1.9805,-1.9805,-2.1135,-2.3602,-2.3602,-2.3602,-2.3602,-2.3602,-2.3602,-2.3602,-2.3602,-2.3602,-2.3527,-2.2802,-2.2525,-2.2246,-1.9806,-1.8901,-1.8901,-0.5108,-0.5108,-0.5108,-0.5108,-0.5108,-0.5151,-0.531,-0.519,-0.5151,-0.531,-0.5749,-0.6113,-0.6277,-0.6981,-0.7567,-0.7941,-0.893,-0.9644,-0.9951,-1.0436,-1.1081,-1.1851,0.0,-1.1384,-1.2335,-1.2072,-1.2124,-1.25,-1.2814,-1.2944,-1.2929,-1.3238,-1.3415,-1.3404,-1.3144,-1.3022,-1.2975,-1.2632,-1.2375,-1.2186,-1.1923,-1.1526,-1.1206,-1.1919,-1.1544,-1.0586,-1.0148,-0.9403,-0.8761,-0.9601,0.0,0.0,0.0,0.0,0.0,0.0,0.0,0.0,0.0,0.0,0.0,0.0,0.0,0.0,0.0,0.0,0.0,0.0,0.0,0.0,0.0,0.0,0.0,0.0,-1.2222,-1.2881,-1.2881,-1.2881,-1.2881,-1.2881,-1.2881,-1.3164,-1.3872,-1.6313,-1.789,-1.789,-1.9076,-1.9805,-1.9805,-1.9805,-1.9805,-1.9805,-1.9805,-1.9805,-1.9805,-1.9805,-1.9805,-1.9805,-1.9805,-2.0564,-2.2032,-2.312,-2.3602,-2.3602,-2.3602,-2.3602,-2.3602,-2.3602,-2.3602,-2.3602,0.0,0.0,0.0,0.0,-1.9805,-1.9631,-0.5108,-0.5108,-0.5108,-0.5108,-0.5108,-0.5108,-0.5151,-0.5108,-0.5112,-0.5151,-0.5923,-0.6589,-0.6884,-0.7599,-0.8254,-0.8716,-0.9506,-0.9991,-1.0033,-1.0347,-1.087,-1.1682,-1.1143,-1.1255,-1.2199,-1.2183,-1.2391,-1.2808,-1.2808,-1.2832,-1.2881,-1.2881,-1.2881,-1.2881,-1.2881,-1.2881,-1.2881,-1.2881,-1.3007,-1.3189,-1.3181,-1.2935,-1.2519,-1.2375,-1.2639,-1.3053,-1.3163,-1.1927,-1.0276,-1.0276,0.0,0.0,0.0,0.0,0.0,0.0,0.0,0.0,0.0,0.0,0.0,0.0,0.0,0.0,0.0,0.0,0.0,0.0,0.0,0.0,0.0,0.0,0.0,0.0,-1.2881,-1.2881,-1.2881,-1.2881,-1.2881,-1.2881,-1.2881,-1.355,-1.5244,-1.8047,-1.9805,-1.9805,-1.9805,-1.9805,-1.9805,-1.9805,0.0,0.0,0.0,-1.9805,-1.9805,-1.9805,-1.9805,-1.9805,-1.9805,-1.9805,-1.9895,-2.2455,-2.3602,-2.3602,-2.3602,-2.3602,-2.3602,-2.3602,-2.3602,-2.3551,-2.3267,-2.1798,-1.9747,-1.9417,-1.9521,-1.9365,-0.5108,-0.5108,-0.5108,-0.5108,-0.5108,-0.5171,-0.5392,-0.5228,-0.5171,-0.5392,-0.6268,-0.6746,-0.6385,-0.7574,-0.8269,-0.7966,-0.9005,-1.0047,0.0,0.0,-1.091,-1.166,0.0,0.0,0.0,0.0,0.0,0.0,-1.2353,-1.2539,-1.2881,-1.2881,-1.2881,-1.2881,-1.2881,-1.2881,-1.2881,-1.2881,-1.3193,-1.3652,-1.3728,-1.3532,-1.3208,-1.3132,-1.2675,-1.218,-1.2943,-1.2922,-1.2559,-1.2559,-1.1393,-0.9899,-0.9899,0.0,0.0,0.0,0.0,0.0,0.0,0.0,0.0,0.0,0.0,0.0,0.0,0.0,0.0,0.0,0.0,0.0,0.0,0.0,0.0,-1.2832,-1.2881,-1.2881,-1.2881,-1.2881,-1.2881,-1.2881,-1.2881,-1.355,-1.5244,-1.8047,-1.9805,-1.9805,-1.9805,-1.9805,-1.9805,-1.9805,-1.9805,-1.9805,-1.9805,-1.9805,-1.9805,-1.9805,-1.9805,-1.9805,-1.9805,0.0,-1.9895,-2.2455,-2.3602,-2.3602,-2.3602,-2.3602,-2.3602,-2.3602,-2.3602,-2.3406,-2.1321,-2.0232,-1.9521,-1.7113,-1.7775,-1.9365,-0.5108,-0.5108,-0.5108,-0.5108,-0.5108,-0.5151,-0.5272,-0.519,-0.5151,-0.5291,-0.629,-0.6847,-0.6499,-0.7428,-0.8107,-0.8156,-0.9227,0.0,0.0,-1.0937,-1.094,-1.133,0.0,0.0,0.0,0.0,0.0,0.0,0.0,-1.2456,-1.2881,-1.2881,-1.2881,-1.2881,-1.2881,-1.2881,-1.2925,-1.3243,-1.3695,-1.4261,-1.4603,-1.4838,-1.4851,-1.4033,-1.3186,-1.2544,-1.3019,-1.3198,-1.3198,-1.3198,-1.2459,-1.1539,-1.1539,-1.0803,-1.0021,0.0,0.0,0.0,0.0,0.0,0.0,0.0,0.0,0.0,0.0,0.0,0.0,0.0,0.0,-1.1582,-1.1582,0.0,-1.2881,-1.2881,-1.2881,-1.2881,-1.2881,-1.2881,-1.2881,-1.2881,-1.3628,-1.4478,-1.5332,-1.6727,-1.8209,-1.9695,-1.9805,-1.9805,-1.9805,-1.9805,-1.9805,-1.9805,-1.9805,-1.9085,-1.7605,-1.7605,-1.7605,-1.7611,-1.9085,-1.9805,-1.985,-2.1135,-2.2409,-2.3602,-2.3602,-2.3602,-2.3602,-2.3602,-2.2839,-2.1561,-2.0276,-1.8927,-1.7446,-1.5963,-1.6342,-1.739,-0.5108,-0.5108,-0.5108,-0.5108,-0.5108,-0.5108,-0.5108,-0.5108,-0.5112,-0.5171,-0.6206,-0.6864,-0.6627,-0.7335,-0.8056,0.0,0.0,0.0,0.0,0.0,0.0,0.0,0.0,0.0,0.0,0.0,0.0,0.0,0.0,0.0,-1.306,-1.2973,-1.2973,-1.3055,-1.3055,-1.3157,-1.3291,-1.3784,-1.4324,-1.4926,-1.5404,-1.6039,-1.6515,-1.5101,-1.4154,-1.3553,-1.3283,-1.3425,-1.3709,-1.3709,-1.3486,-1.3198,-1.3198,-1.2193,-1.126,-1.2289,-1.2209,0.0,0.0,0.0,0.0,0.0,0.0,0.0,0.0,-1.1768,-1.2881,-1.2881,-1.2881,-1.2881,-1.2881,-1.2881,-1.2881,-1.2881,-1.2881,-1.2881,-1.2881,-1.3164,-1.3374,-1.3374,-1.458,-1.541,-1.541,-1.541,-1.6404,-1.8762,-1.9475,-1.9805,-1.9805,-1.9805,-1.9805,-1.9805,-1.9551,-1.8165,-1.5415,-1.541,-1.5581,-1.5913,-1.7956,-1.9254,-1.9805,-1.9805,-2.1176,-2.3602,-2.3602,-2.3602,-2.3602,-2.3602,-2.2079,-1.9805,-1.9805,-1.7993,-1.541,-1.541,-1.541,-1.541,-0.5108,-0.5108,-0.5108,-0.5108,-0.5108,-0.5108,-0.5108,-0.5108,-0.519,-0.543,-0.6209,-0.661,-0.6288,-0.7433,-0.8458,-0.8985,0.0,0.0,0.0,0.0,0.0,0.0,0.0,0.0,0.0,0.0,0.0,0.0,0.0,0.0,-1.3684,-1.3147,-1.32,-1.3684,-1.3684,-1.4009,-1.452,-1.4566,-1.4966,-1.5499,-1.5582,-1.6238,-1.7157,-1.6487,-1.5726,-1.4827,-1.3632,-1.4181,-1.5514,-1.5514,-1.447,-1.3198,-1.3198,-1.4094,-1.5172,-1.5321,0.0,-1.2314,-1.4719,-1.7065,-1.8351,-1.6461,-1.4746,-1.3436,0.0,-1.2858,-1.2881,-1.2881,-1.2881,-1.2881,-1.2881,-1.2881,-1.2881,-1.2881,-1.2881,-1.2881,-1.2881,-1.418,-1.5127,-1.5127,-1.5298,-1.541,-1.541,-1.541,-1.5522,-1.5853,-1.8317,-1.9805,-1.9805,-1.9805,-1.9805,-1.9805,-1.8779,-1.7277,-1.5425,-1.541,-1.6186,-1.77,-1.6497,-1.728,-1.9805,-1.9805,-2.1176,-2.3602,-2.3602,-2.3602,-2.3602,-2.3602,-2.2079,-1.9805,-1.9805,-1.7993,-1.541,-1.541,-1.541,-1.541,-0.5108,-0.5108,-0.5108,-0.5108,-0.5108,-0.5108,-0.5108,-0.5108,-0.519,-0.5473,-0.62,-0.6564,-0.6236,-0.7462,-0.8512,-0.9056,-1.0188,-1.0741,-1.0404,-1.1052,0.0,0.0,0.0,0.0,0.0,0.0,0.0,0.0,0.0,0.0,-1.4335,-1.4066,-1.4066,-1.4329,-1.4329,-1.4468,-1.4744,-1.5398,-1.5828,-1.6133,-1.6802,-1.7348,-1.78,-1.7861,-1.7286,-1.6199,-1.4567,-1.4091,0.0,0.0,-1.4627,-1.3198,-1.3198,-1.4406,-1.5799,-1.5799,-1.5012,0.0,-1.5833,-1.6059,-1.6021,-1.6392,-1.4738,-1.3022,-1.3022,-1.2981,-1.2881,-1.2881,-1.2881,-1.2881,-1.2881,-1.2881,-1.2881,-1.2881,-1.3711,-1.4351,-1.4351,-1.4966,-1.541,-1.541,-1.541,-1.541,-1.541,-1.541,-1.541,-1.541,-1.8149,-1.9032,-1.7335,-1.7219,-1.8592,-2.1644,-1.9329,-1.7656,-1.6929,-1.6924,-1.729,-1.7998,-1.727,-1.8612,-2.1744,-2.1744,-2.2394,-2.359,-2.341,-2.3305,-2.3305,-2.3305,-2.1931,-1.9805,-1.9805,-1.7993,-1.541,-1.541,-1.541,-1.541,-0.5108,-0.5108,-0.5108,-0.5108,-0.5108,-0.5108,-0.5108,-0.5171,-0.5305,-0.5582,-0.6176,-0.661,-0.6771,-0.7818,-0.8732,-0.9283,-1.0565,-1.1058,0.0,-1.1085,0.0,0.0,0.0,0.0,0.0,0.0,0.0,0.0,0.0,0.0,-1.492,-1.4795,-1.4789,-1.4971,-1.4971,-1.5017,-1.5242,-1.6225,-1.6653,-1.6731,-1.7726,-1.8178,-1.8359,-1.8541,-1.836,-1.7741,-1.6011,-1.4745,0.0,0.0,-1.4627,-1.3198,-1.3198,-1.4406,-1.5656,-1.4914,-1.5323,-1.5928,-1.5672,-1.4857,-1.4481,-1.6078,-1.4703,-1.2881,-1.2881,-1.2881,-1.2881,-1.2881,-1.2881,-1.2881,-1.2881,-1.2881,-1.2881,-1.2881,-1.4307,-1.541,-1.541,-1.541,-1.541,-1.541,-1.541,-1.541,-1.541,-1.541,-1.541,-1.541,-1.739,-1.7846,-1.622,-1.6128,-1.8253,-2.2955,-2.0707,-1.8977,-1.8008,-1.8008,-1.8008,-1.8008,-1.8008,-1.9808,-2.3132,-2.3969,-2.4489,-2.4648,-2.3563,-2.3078,-2.3078,-2.3078,-2.2184,-2.0607,-1.9688,-1.803,-1.6069,-1.5591,-1.541,-1.541,-0.5108,-0.5108,-0.5108,-0.5108,-0.5108,-0.5108,-0.5108,-0.533,-0.5582,-0.585,-0.6081,-0.6728,-0.8087,-0.8732,-0.9302,-0.983,-1.0414,-1.0737,-1.0786,-1.0882,-1.093,0.0,0.0,0.0,0.0,0.0,0.0,0.0,0.0,0.0,0.0,-1.4966,-1.5011,-1.5582,-1.5582,-1.5908,-1.6466,-1.7028,-1.7264,-1.7305,-1.786,-1.8419,-1.8828,-1.8172,-1.8651,-1.9437,-1.8108,0.0,0.0,0.0,-1.4627,-1.3198,-1.3198,-1.4406,0.0,-1.2673,-1.4081,-1.6004,-1.3891,-1.4807,-1.6434,-1.6497,-1.4703,-1.2881,-1.2881,-1.2881,-1.2881,-1.2881,-1.2881,-1.2881,-1.2881,-1.2881,-1.2881,-1.2881,-1.4307,-1.541,-1.541,-1.541,-1.541,-1.541,-1.541,-1.541,-1.541,-1.541,-1.541,-1.541,-1.5463,-1.6204,-1.7842,-1.793,-1.9488,-2.3005,-2.3005,-2.1342,-1.8008,-1.8008,-1.8008,-1.8008,-1.8008,-1.9808,-2.3185,-2.6126,-2.7472,-2.7339,-2.4379,-2.3078,-2.3078,-2.3078,-2.3034,-2.2651,-1.9341,-1.7997,-1.7729,-1.6035,-1.541,-1.541,-0.5108,-0.5108,-0.5108,-0.5108,-0.5248,-0.5368,-0.5368,-0.5291,-0.5401,-0.585,-0.6545,0.0,0.0,0.0,0.0,0.0,-1.0374,-1.0479,-0.9973,-1.0526,-1.0812,0.0,0.0,0.0,0.0,0.0,0.0,0.0,0.0,0.0,0.0,-1.597,-1.6014,-1.6188,-1.6593,-1.6847,-1.707,-1.798,-1.8373,-1.8419,-1.8968,-1.9288,-1.942,-1.9162,-1.8795,-1.844,0.0,0.0,0.0,0.0,-1.2716,-1.1286,-1.2735,0.0,0.0,-1.4759,-1.4625,-1.4143,-1.3398,-1.4807,-1.6113,-1.4525,-1.3478,-1.2881,-1.2881,-1.2881,-1.2881,-1.2881,-1.416,-1.4795,-1.3205,-1.2881,-1.2881,-1.2881,-1.4307,-1.541,-1.541,-1.541,-1.541,-1.541,-1.541,-1.541,-1.541,-1.541,-1.541,-1.541,-1.6479,-1.8387,-2.1238,-2.1404,-2.1916,-2.3071,-2.3078,-2.1473,-1.8008,-1.8008,-1.8008,-1.8071,-2.2315,-2.4963,-2.6126,-2.7122,-2.7625,-2.7451,-2.4412,-2.3078,-2.3078,-2.3078,-2.1785,-1.9617,-1.8462,-1.8008,-1.7939,-1.7353,-1.7633,-1.8047,-0.5108,-0.5108,-0.5108,-0.5108,-0.533,0.0,0.0,0.0,0.0,0.0,0.0,0.0,0.0,0.0,0.0,0.0,0.0,-1.0171,-0.9574,-1.0081,-1.0487,0.0,0.0,0.0,-1.3492,-1.4223,0.0,0.0,0.0,0.0,0.0,-1.6132,-1.6298,-1.6507,-1.6867,-1.7229,-1.7626,-1.8334,-1.8605,-1.8591,-1.9138,-1.9196,-1.8964,-1.8814,-1.8612,0.0,0.0,0.0,0.0,-1.2385,-1.1092,-1.0295,-1.249,0.0,0.0,-1.4888,-1.4857,-1.4369,-1.4369,-1.4807,-1.4841,-1.3296,-1.2881,-1.2881,-1.2881,-1.2881,-1.3157,-1.4025,-1.5427,-1.5744,-1.3339,-1.2881,-1.2881,-1.2881,-1.4307,-1.541,-1.541,-1.541,-1.541,-1.541,-1.541,-1.541,-1.541,-1.541,-1.541,-1.541,-1.645,-1.8839,-2.2901,-2.3078,-2.3078,-2.3078,-2.3078,-2.2039,-1.9868,-1.9803,-2.0367,-2.1487,-2.5633,-2.7625,-2.7625,-2.7625,-2.7012,-2.5903,-2.3969,-2.2433,-2.1279,-2.1279,-1.9998,-1.8008,-1.8008,-1.8782,-1.9803,-1.9803,-2.0318,-2.0527,-0.5108,-0.5108,-0.5108,0.0,0.0,0.0,0.0,0.0,0.0,0.0,0.0,0.0,0.0,0.0,0.0,0.0,0.0,0.0,-0.9536,0.0,0.0,0.0,-1.1047,-1.1503,-1.2484,-1.3537,-1.406,0.0,0.0,0.0,0.0,0.0,-1.5919,-1.6428,-1.6434,-1.7027,-1.8009,-1.8048,-1.799,-1.7942,-1.8429,-1.8242,-1.7645,-1.7266,0.0,0.0,0.0,0.0,0.0,0.0,0.0,0.0,0.0,0.0,0.0,-1.3301,-1.4845,-1.6515,-1.6515,-1.4749,-1.2881,-1.2881,-1.2881,-1.2881,-1.2881,-1.3022,-1.3752,-1.602,-1.638,-1.5611,-1.3344,-1.2881,-1.2881,-1.2881,-1.4307,-1.541,-1.541,-1.541,-1.541,-1.541,-1.541,-1.5449,-1.5537,-1.5542,-1.5542,-1.5542,-1.5542,-1.7777,-2.2832,-2.3078,-2.3078,-2.3078,-2.3078,-2.3078,-2.3078,-2.3078,-2.4634,-2.7625,-2.7625,-2.7625,-2.7567,-2.7458,-2.5795,-2.3078,-2.2938,-2.102,-1.8008,-1.8008,-1.8008,-1.8008,-1.8008,-2.0063,-2.3078,-2.3078,-2.3011,-2.2365,0.0,0.0,0.0,0.0,0.0,0.0,0.0,0.0,0.0,0.0,0.0,0.0,0.0,0.0,0.0,0.0,0.0,0.0,-0.8678,0.0,0.0,0.0,0.0,0.0,-1.2401,-1.3088,0.0,0.0,0.0,0.0,0.0,0.0,-1.5195,0.0,-1.5743,-1.6209,-1.6796,-1.7199,-1.7506,-1.7722,0.0,-1.741,-1.7283,0.0,0.0,0.0,0.0,0.0,0.0,0.0,0.0,0.0,0.0,-1.1024,-1.1632,-1.4734,-1.6082,-1.6515,-1.6515,-1.4749,-1.2881,-1.2881,-1.2881,-1.2881,-1.2881,-1.4299,-1.575,-1.638,-1.5062,-1.361,-1.3022,-1.2881,-1.2881,-1.2881,-1.4307,-1.541,-1.541,-1.541,-1.541,-1.541,-1.541,-1.5918,-1.7222,-1.7349,-1.7349,-1.7349,-1.7349,-1.9041,-2.2913,-2.3078,-2.3078,-2.3078,-2.3078,-2.3078,-2.3078,-2.3078,-2.4634,-2.7625,-2.7625,-2.7625,-2.7509,-2.5294,-2.3859,-2.2944,-2.0381,-1.8782,-1.8008,-1.8008,-1.8008,-1.8008,-1.8008,-2.0063,-2.3078,-2.3078,-2.1473,-1.9166,0.0,0.0,0.0,0.0,0.0,0.0,0.0,0.0,0.0,0.0,0.0,0.0,0.0,0.0,0.0,0.0,0.0,0.0,0.0,0.0,0.0,0.0,0.0,0.0,0.0,0.0,0.0,0.0,0.0,0.0,0.0,0.0,-1.3928,-1.4181,-1.4745,-1.5387,-1.6021,0.0,0.0,0.0,0.0,0.0,0.0,0.0,0.0,0.0,0.0,0.0,0.0,0.0,0.0,-1.1421,-1.1421,-1.2152,-1.3458,-1.5837,0.0,-1.625,-1.5203,-1.3931,-1.2881,-1.2881,-1.2881,-1.2881,-1.2881,-1.3931,-1.5197,-1.6293,-1.4566,-1.2881,-1.2881,-1.1475,-1.0471,-1.0989,-1.3511,-1.541,-1.541,-1.541,-1.541,-1.541,-1.4613,-1.4451,-1.5428,-1.701,-1.8008,-1.8008,-1.9359,-2.1089,-2.3005,-2.3078,-2.3078,-2.3078,-2.3078,-2.3078,-2.3078,-2.3078,-2.3969,-2.5624,-2.5624,-2.5624,-2.557,-2.3852,-2.2304,-2.0766,-1.8844,-1.8008,-1.8008,-1.8008,-1.8008,-1.8134,-1.9677,-2.1404,-2.3078,-2.3078,-2.0962,-1.8008,0.0,0.0,0.0,0.0,0.0,0.0,0.0,0.0,0.0,-0.811,-0.7938,-0.8145,0.0,-0.9008,0.0,0.0,0.0,0.0,0.0,0.0,0.0,0.0,0.0,0.0,0.0,0.0,0.0,0.0,0.0,0.0,0.0,0.0,0.0,0.0,0.0,0.0,0.0,0.0,0.0,0.0,0.0,0.0,0.0,0.0,0.0,0.0,0.0,0.0,0.0,0.0,-1.2881,-1.2881,-1.2881,-1.434,-1.6107,-1.6429,-1.6287,-1.5567,-1.3478,-1.2881,-1.2881,-1.2881,-1.2881,-1.2881,-1.2881,-1.27,-1.316,-1.5238,-1.3998,-1.2534,-1.2534,-0.9731,-0.7843,-0.911,-1.2549,-1.4974,-1.4773,-1.4746,-1.4746,-1.4746,-1.3326,-1.2301,-1.2301,-1.5794,-1.8008,-1.8008,-2.1147,-2.3078,-2.3078,-2.3078,-2.3078,-2.3078,-2.3078,-2.3078,-2.3078,-2.3078,-2.3078,-2.3078,-2.3078,-2.3078,-2.3078,-2.3078,-2.1215,-1.8008,-1.8008,-1.8008,-1.8013,-1.8457,-1.8654,-1.8972,-2.1922,-2.3078,-2.3071,-2.2561,-2.0574,-1.8008,0.0,0.0,0.0,0.0,0.0,0.0,0.0,0.0,0.0,0.0,0.0,0.0,0.0,0.0,0.0,0.0,0.0,0.0,0.0,0.0,0.0,0.0,0.0,0.0,0.0,0.0,0.0,0.0,0.0,0.0,0.0,0.0,0.0,0.0,0.0,0.0,0.0,0.0,0.0,0.0,0.0,0.0,0.0,0.0,0.0,0.0,0.0,0.0,0.0,0.0,-1.2881,-1.2881,-1.2881,-1.3205,-1.3936,-1.5926,-1.5113,-1.343,-1.3022,-1.2881,-1.2881,-1.2881,-1.2881,-1.2881,-1.2881,-1.1768,-1.0884,-1.1304,-1.104,-1.0732,-1.0732,-1.0195,-1.0289,-1.1898,-1.2812,-1.2885,-1.1626,-1.1413,-1.1413,-1.1413,-1.1926,-1.2301,-1.2301,-1.5794,-1.8008,-1.8008,-2.1147,-2.3078,-2.3078,-2.3078,-2.3078,-2.3078,-2.3078,-2.3078,-2.3078,-2.3078,-2.3078,-2.3078,-2.3078,-2.3078,-2.3078,-2.3078,-2.1215,-1.8008,-1.8008,-1.8008,-1.8207,-2.1026,-2.2237,-2.2298,-2.2878,-2.3078,-2.275,-1.9933,-1.8524,-1.8008,0.0,0.0,0.0,0.0,0.0,0.0,0.0,0.0,0.0,0.0,0.0,0.0,0.0,0.0,0.0,0.0,0.0,0.0,0.0,0.0,0.0,0.0,0.0,0.0,0.0,-1.0418,-1.0556,-1.0268,0.0,0.0,0.0,0.0,0.0,0.0,0.0,0.0,0.0,0.0,0.0,0.0,0.0,0.0,0.0,0.0,0.0,0.0,0.0,0.0,0.0,0.0,-1.2129,-1.2881,-1.2881,-1.2881,-1.3113,-1.4299,-1.38,-1.2881,-1.2881,-1.2881,-1.2881,-1.2881,-1.2881,-1.2881,-1.2881,0.0,0.0,-1.0283,-1.0283,-1.0283,-1.0283,-1.0283,-1.0854,-1.2598,-1.2881,-1.2945,-1.3084,-1.1655,-1.085,-1.1393,-1.1961,-1.2301,-1.2301,-1.5794,-1.8715,-2.0509,-2.2169,-2.3078,-2.3078,-2.3078,-2.3078,-2.3078,-2.3078,-2.3078,-2.3078,-2.3078,-2.3078,-2.3078,-2.3078,-2.3078,-2.3078,-2.3078,-2.1215,-1.8008,-1.8008,-1.8008,-1.8269,-2.1667,-2.3078,-2.3078,-2.3078,-2.1984,-2.0252,-1.8586,-1.8008,-1.7881,0.0,0.0,0.0,0.0,0.0,0.0,0.0,0.0,-0.7285,-0.7276,-0.7791,-0.8203,-0.8275,-0.8285,0.0,0.0,0.0,0.0,0.0,0.0,0.0,0.0,0.0,0.0,0.0,0.0,0.0,-1.0021,-1.0359,0.0,0.0,0.0,0.0,0.0,-1.0276,0.0,0.0,0.0,0.0,0.0,0.0,0.0,0.0,0.0,0.0,0.0,0.0,0.0,0.0,0.0,-1.1196,-1.2393,-1.2764,-1.2881,-1.2881,-1.2881,-1.2881,-1.2881,-1.2881,-1.2881,-1.2881,-1.2881,-1.2881,-1.2881,-1.2881,-1.1533,-1.0283,-1.0283,-1.0283,-1.0283,-1.0283,-1.0283,-1.0732,-1.21,-1.2642,-1.3133,-1.3867,-1.2019,-1.0992,-1.2164,-1.3018,-1.3517,-1.3517,-1.6223,-1.9425,-2.2817,-2.3689,-2.4079,-2.4079,-2.3465,-2.3078,-2.3078,-2.3078,-2.3078,-2.3078,-2.3078,-2.3078,-2.3078,-2.3078,-2.3078,-2.3078,-2.3078,-2.1655,-1.9039,-1.8337,-1.8008,-1.8269,-2.1667,-2.3078,-2.3011,-2.2298,-2.0386,-1.8008,-1.8008,-1.8008,-1.7764,0.0,0.0,0.0,0.0,0.0,0.0,0.0,0.0,-0.7193,-0.6886,-0.7336,-0.7813,-0.8243,-0.8285,0.0,0.0,0.0,0.0,0.0,0.0,0.0,0.0,0.0,0.0,0.0,0.0,0.0,-1.0353,-1.0097,0.0,0.0,0.0,0.0,0.0,0.0,-0.9692,-0.9974,0.0,0.0,0.0,0.0,0.0,0.0,0.0,0.0,0.0,0.0,0.0,0.0,0.0,0.0,-1.0837,-1.2383,-1.2881,-1.2881,-1.2881,0.0,0.0,-1.2881,-1.2881,-1.2881,-1.2881,-1.2881,-1.2881,-1.2881,0.0,-1.0283,-1.0283,-1.0283,-1.0283,-1.0283,-1.0283,-1.0332,-1.0493,-1.1851,-1.2063,-0.9729,-1.012,-1.0992,-1.2164,-1.5367,-1.751,-1.751,-1.7794,-1.9425,-2.2817,-2.5624,-2.7181,-2.7181,-2.4577,-2.3078,-2.3078,-2.3078,-2.3078,-2.3078,-2.3078,-2.3078,-2.3078,-2.3078,-2.3078,-2.3078,-2.3078,-2.2944,-2.2433,-1.9359,-1.8008,-1.8269,-2.1667,-2.3078,-2.2817,-1.9677,-1.8264,-1.8008,-1.8008,-1.8008,-1.7764,0.0,0.0,0.0,0.0,0.0,0.0,0.0,-0.6701,-0.7094,-0.684,-0.7167,-0.7535,-0.784,-0.8101,0.0,0.0,0.0,0.0,0.0,0.0,0.0,0.0,0.0,0.0,0.0,0.0,0.0,-1.0403,-1.0065,0.0,0.0,0.0,0.0,0.0,0.0,-0.9422,-0.9463,0.0,0.0,0.0,0.0,0.0,0.0,0.0,0.0,0.0,0.0,0.0,-1.0283,0.0,0.0,0.0,-1.1141,-1.1361,0.0,0.0,-1.2881,-1.2881,-1.2881,-1.2881,-1.252,-1.0842,-1.166,-1.2881,-1.2881,-1.1533,-1.0283,-1.0283,-1.0283,-1.0283,-1.0283,-1.0283,-1.0283,-1.0283,-1.0395,-1.0032,-0.8962,-1.1516,-1.4033,-1.5544,-1.7079,-1.8008,-1.8008,-1.9873,-2.2384,-2.5556,-2.6901,-2.7625,-2.7625,-2.4741,-2.3078,-2.3078,-2.3078,-2.3078,-2.3078,-2.3078,-2.3078,-2.3078,-2.3078,-2.3078,-2.3078,-2.3078,-2.3078,-2.3005,-2.1661,-1.9868,-1.8144,-1.9486,-1.9998,-1.9868,-1.8519,-1.8008,-1.8008,-1.8008,-1.7349,-1.6348,0.0,0.0,0.0,0.0,0.0,0.0,-0.5843,-0.6464,-0.6843,-0.6659,-0.6884,-0.7268,-0.7809,-0.7879,-0.832,-0.9462,0.0,0.0,0.0,0.0,0.0,0.0,0.0,0.0,0.0,0.0,0.0,-1.0228,-0.9874,-0.9653,0.0,0.0,-0.9443,-0.9235,0.0,0.0,0.0,0.0,0.0,0.0,0.0,0.0,0.0,0.0,0.0,0.0,0.0,0.0,0.0,0.0,0.0,0.0,0.0,0.0,0.0,0.0,-1.2881,-1.2725,-1.1909,-1.2269,-1.222,-0.9469,-1.0893,-1.2881,-1.2881,-1.1533,-1.0283,-1.0283,-1.0283,-1.0283,-1.0283,-0.9751,-0.9549,-1.0201,-1.0161,-1.0032,-1.0032,-1.2694,-1.5122,-1.6353,-1.7393,-1.8008,-1.8008,-2.1089,-2.4355,-2.7349,-2.7625,-2.7625,-2.7625,-2.4741,-2.3078,-2.3078,-2.3078,-2.3078,-2.3078,-2.3962,-2.3962,-2.3078,-2.3078,-2.3078,-2.3078,-2.3078,-2.3078,-2.3071,-2.2039,-2.0257,-1.8008,-1.8008,-1.8008,-1.8008,-1.8008,-1.769,-1.7241,-1.7241,-1.646,-1.541,0.0,0.0,0.0,0.0,0.0,0.0,0.0,-0.5913,-0.6428,-0.6234,-0.6382,-0.7023,-0.8345,-0.7673,-0.7864,-0.9729,0.0,0.0,0.0,0.0,0.0,0.0,0.0,0.0,0.0,0.0,0.0,0.0,0.0,-0.9056,-0.8816,-0.8816,-0.8816,-0.8816,0.0,0.0,0.0,0.0,0.0,0.0,0.0,0.0,0.0,0.0,0.0,0.0,0.0,0.0,0.0,0.0,0.0,0.0,0.0,-1.0283,-1.0625,0.0,-1.2881,-1.2318,-0.9573,-1.0842,-1.222,-0.9469,-1.0893,-1.2881,-1.2881,-1.1533,-1.0283,-1.0283,-1.0283,-1.0283,-1.0283,-0.8525,-0.7754,-0.9952,-1.1743,-1.2881,-1.2881,-1.2895,-1.2915,-1.2935,-1.5942,-1.8008,-1.8008,-2.1089,-2.4355,-2.7349,-2.7625,-2.7625,-2.7625,-2.4741,-2.3078,-2.3078,-2.3078,-2.3078,-2.3078,-2.6072,-2.6065,-2.3078,-2.3078,-2.3078,-2.3078,-2.3078,-2.3078,-2.2938,-1.9552,-1.8008,-1.8008,-1.8008,-1.8008,-1.8008,-1.8008,-1.6958,-1.5439,-1.5439,-1.543,-1.541,0.0,0.0,0.0,0.0,0.0,0.0,0.0,0.0,-0.6486,-0.6232,-0.6264,-0.6537,-0.7197,-0.7155,-0.7642,-0.8973,0.0,0.0,0.0,0.0,0.0,0.0,0.0,0.0,0.0,0.0,0.0,0.0,0.0,0.0,0.0,-0.9638,-0.9442,-0.9134,-0.89,-0.8789,0.0,0.0,0.0,0.0,0.0,0.0,-1.0283,0.0,0.0,0.0,0.0,0.0,0.0,0.0,0.0,0.0,0.0,0.0,0.0,-1.0601,-1.1993,-1.2725,-1.1859,-1.222,-1.2676,-1.181,-1.2269,-1.2881,-1.2881,-1.1533,-1.0283,-1.0283,-1.0283,-1.0283,-1.0283,-0.8488,-0.7227,-0.7919,-0.8489,-0.983,-1.2513,-1.2881,-1.2881,-1.2881,-1.4868,-1.6699,-1.7895,-2.1089,-2.3524,-2.4463,-2.452,-2.452,-2.452,-2.3636,-2.3078,-2.3078,-2.3078,-2.4079,-2.618,-2.7122,-2.6072,-2.3078,-2.3078,-2.3078,-2.3078,-2.3078,-2.3078,-2.2938,-1.9486,-1.8008,-1.8008,-1.8008,-1.8008,-1.8008,-1.8008,-1.6943,-1.541,-1.541,-1.541,-1.541,0.0,0.0,0.0,0.0,0.0,0.0,0.0,0.0,-0.65,-0.623,-0.6195,-0.6366,-0.6808,-0.6731,-0.7111,-0.8291,0.0,0.0,0.0,0.0,0.0,0.0,0.0,0.0,0.0,0.0,0.0,0.0,0.0,0.0,0.0,0.0,0.0,-0.8699,-0.8466,-0.8377,0.0,0.0,0.0,0.0,0.0,0.0,-0.9316,0.0,0.0,0.0,0.0,0.0,0.0,0.0,0.0,0.0,0.0,0.0,0.0,0.0,-0.9956,-1.0991,-1.2498,-1.2402,-1.1899,-1.1899,-1.1899,-1.1709,-1.0857,-0.983,-0.9057,-0.9057,-0.9707,-1.0283,-1.0283,-0.8488,-0.6979,-0.6979,-0.8259,-1.0072,-1.257,-1.2881,-1.3364,-1.4663,-1.5752,-1.6821,-1.7905,-2.1089,-2.3078,-2.3078,-2.3078,-2.3078,-2.3078,-2.3078,-2.3078,-2.3078,-2.3078,-2.4577,-2.7567,-2.7625,-2.6072,-2.3078,-2.3078,-2.3078,-2.3078,-2.3078,-2.3078,-2.2938,-1.9486,-1.8008,0.0,-1.8008,-1.8008,-1.7944,-1.729,-1.6367,-1.541,-1.541,-1.541,-1.541,0.0,0.0,0.0,0.0,0.0,0.0,0.0,0.0,0.0,0.0,0.0,-0.6427,-0.6953,-0.6371,0.0,0.0,0.0,0.0,0.0,0.0,0.0,0.0,0.0,0.0,0.0,0.0,0.0,-0.77,-0.9295,-0.9681,-0.8989,0.0,0.0,0.0,0.0,0.0,0.0,0.0,0.0,0.0,-0.9888,-0.9033,0.0,0.0,0.0,0.0,0.0,0.0,0.0,0.0,0.0,0.0,0.0,0.0,0.0,0.0,0.0,0.0,0.0,-1.133,-1.0244,-1.0118,-1.0079,-0.9544,-0.7471,-0.6979,0.0,-0.6979,-0.865,-1.0079,-1.0079,-0.8529,-0.7224,-0.7224,-1.0436,-1.2881,-1.2881,-1.2983,-1.4248,-1.7446,-1.7935,-1.8008,-1.8008,-2.0893,-2.2817,-2.3071,-2.3078,-2.3078,-2.3078,-2.3078,-2.3078,-2.3078,-2.3078,-2.4463,-2.7232,-2.7291,-2.5849,-2.3078,-2.3078,-2.3078,-2.3078,-2.3078,-2.2944,-2.2555,-1.9359,-1.8008,-1.8008,-1.8008,-1.7794,-1.7317,-1.5665,-1.5045,-1.5108,-1.5294,-1.541,-1.541,0.0,0.0,0.0,0.0,0.0,0.0,0.0,0.0,0.0,0.0,0.0,-0.642,-0.6212,-0.6325,0.0,0.0,0.0,0.0,0.0,0.0,0.0,0.0,0.0,0.0,0.0,0.0,0.0,-0.77,-0.7758,-0.8128,-0.8776,-0.9596,0.0,0.0,0.0,0.0,0.0,0.0,0.0,0.0,-0.683,-0.6873,0.0,0.0,0.0,0.0,-0.5862,-0.6656,0.0,0.0,0.0,0.0,0.0,0.0,0.0,0.0,-0.5794,-0.5917,-0.6833,0.0,-0.9913,-0.8203,-0.7754,-0.7634,0.0,-0.6979,-0.6979,-0.6979,0.0,-0.7754,-0.7754,-0.8731,-0.9544,-0.9544,-1.1417,-1.2881,-1.2881,-1.3994,-1.5117,-1.5928,-1.7197,-1.8008,-1.8008,-1.8721,-2.0252,-2.2878,-2.3078,-2.3078,-2.3078,-2.3078,-2.3078,-2.3078,-2.3078,-2.3465,-2.413,-2.413,-2.38,-2.3078,-2.3078,-2.3078,-2.3078,-2.3078,-2.1661,-1.9166,-1.8327,-1.8008,-1.8008,-1.8008,-1.5735,-1.2277,-1.1903,-1.1717,-1.2023,-1.4501,-1.541,-1.541,0.0,0.0,0.0,0.0,0.0,0.0,0.0,0.0,0.0,0.0,0.0,0.0,0.0,0.0,0.0,0.0,0.0,0.0,0.0,0.0,0.0,0.0,0.0,0.0,0.0,0.0,0.0,0.0,0.0,-0.8289,0.0,0.0,0.0,0.0,0.0,0.0,0.0,0.0,0.0,0.0,-0.6674,0.0,0.0,0.0,0.0,0.0,-0.5312,-0.6321,0.0,-0.77,-0.77,-0.77,0.0,0.0,0.0,0.0,-0.5312,-0.5312,-0.5312,-0.6641,-0.7704,-0.6513,-0.6627,-0.6979,-0.6979,0.0,0.0,0.0,0.0,-0.6979,-0.6979,-0.8425,-1.0022,-1.1291,-1.2261,-1.2635,-1.1957,-1.2618,-1.3773,-1.5225,-1.624,-1.7134,-1.7935,-1.8008,-1.8782,-2.0638,-2.0766,-2.1467,-2.3011,-2.3078,-2.3078,-2.3078,-2.3078,-2.3078,-2.3078,-2.3078,-2.3078,-2.3078,-2.3078,-2.2304,-2.0766,-2.0766,-1.9329,-1.686,-1.7661,-1.7554,-1.6821,-1.6821,-1.4344,-1.0624,-1.0624,-1.0624,-1.0807,-1.2565,-1.414,-1.541,0.0,0.0,0.0,0.0,0.0,0.0,0.0,0.0,0.0,0.0,0.0,0.0,0.0,0.0,0.0,0.0,0.0,0.0,0.0,0.0,0.0,0.0,0.0,0.0,0.0,0.0,0.0,0.0,0.0,0.0,0.0,0.0,-0.8479,0.0,0.0,0.0,0.0,0.0,0.0,-0.77,-0.77,0.0,0.0,0.0,0.0,0.0,0.0,0.0,0.0,-0.77,-0.77,-0.77,-0.77,0.0,0.0,0.0,0.0,0.0,-0.5312,-0.5312,-0.54,-0.5762,-0.6563,-0.7248,-0.7061,0.0,0.0,0.0,0.0,0.0,-0.6979,-0.7999,-0.9573,-1.1914,-1.2424,-1.2088,-1.0781,-1.0624,-1.1779,-1.5045,-1.541,-1.5991,-1.7466,-1.7612,-1.7612,-1.7612,-1.7612,-1.8994,-2.2151,-2.2055,-2.1933,-2.1933,-2.1933,-2.1933,-2.1933,-2.2201,-2.2201,-2.1939,-2.2207,-2.0829,-1.8008,-1.8008,-1.7207,-1.5874,-1.7085,-1.6772,-1.5352,-1.4864,-1.3049,-1.0624,-1.0624,-1.0624,-1.0624,-1.0624,-1.2324,-1.4746,0.0,0.0,0.0,0.0,0.0,0.0,0.0,0.0,0.0,0.0,0.0,0.0,0.0,0.0,0.0,0.0,0.0,0.0,0.0,0.0,0.0,0.0,0.0,0.0,0.0,0.0,0.0,0.0,0.0,0.0,-0.7021,-0.8937,-0.9843,0.0,0.0,0.0,0.0,0.0,0.0,-0.77,-0.77,0.0,0.0,0.0,0.0,0.0,0.0,0.0,0.0,-0.77,-0.77,-0.77,-0.77,0.0,0.0,0.0,0.0,0.0,-0.5312,-0.5312,-0.5762,-0.7766,-0.84,-0.8267,-0.7251,0.0,0.0,0.0,0.0,0.0,0.0,-0.7999,-0.8962,-0.9368,-1.0311,-1.0897,-1.0657,-1.0624,-1.1779,-1.5045,-1.541,-1.5518,-1.5786,-1.5811,-1.5811,-1.5811,-1.5811,-1.6688,-1.8701,-1.7385,-1.6603,-1.6603,-1.6603,-1.6603,-1.6603,-1.8076,-1.8012,-1.6619,-1.8112,-1.8524,-1.8008,-1.8008,-1.7866,-1.7544,-1.6333,-1.5659,-1.5167,-1.2447,-1.1052,-1.0624,-1.0624,-1.0624,-1.0624,-1.0624,-1.0926,-1.1717,0.0,0.0,0.0,0.0,0.0,0.0,0.0,0.0,0.0,0.0,0.0,0.0,0.0,0.0,0.0,0.0,0.0,0.0,0.0,0.0,0.0,0.0,0.0,0.0,0.0,0.0,0.0,0.0,0.0,-0.5554,-0.6165,-1.0049,-1.1543,-1.0895,0.0,0.0,0.0,0.0,-0.77,-0.7632,0.0,0.0,0.0,0.0,0.0,0.0,0.0,0.0,0.0,0.0,-0.6409,-0.6409,-0.6409,0.0,0.0,0.0,0.0,0.0,-0.5312,-0.6216,-0.7448,-0.8534,-0.8323,-0.7699,-0.7144,-0.6979,0.0,0.0,0.0,0.0,0.0,-0.8437,-0.9015,-0.9649,-1.0268,-1.0624,-1.0624,-1.0624,-1.1174,-1.2626,-1.4323,-1.541,-1.541,-1.541,-1.541,-1.541,-1.541,-1.5762,-1.6562,-1.5845,-1.541,-1.541,-1.541,-1.541,-1.541,-1.6206,-1.6201,-1.5425,-1.6226,-1.71,-1.7978,-1.7031,-1.6606,-1.662,-1.7443,-1.6896,-1.5167,-1.1962,-1.0624,-1.0624,-1.0624,-1.0624,-1.0624,-1.0624,-1.0624,-1.1048,0.0,0.0,0.0,0.0,0.0,0.0,0.0,0.0,0.0,0.0,0.0,0.0,0.0,0.0,0.0,0.0,0.0,0.0,0.0,0.0,0.0,0.0,0.0,0.0,0.0,0.0,-0.8045,-0.5312,-0.5312,-0.5661,-0.6471,-1.0524,-1.2036,0.0,0.0,0.0,0.0,0.0,-0.77,-0.7608,0.0,0.0,0.0,0.0,0.0,0.0,0.0,0.0,0.0,0.0,0.0,0.0,0.0,0.0,0.0,-0.5312,-0.5312,-0.5312,-0.5312,-0.6603,-0.8046,-0.832,-0.7909,-0.7442,-0.7442,-0.7442,-0.7442,0.0,0.0,0.0,-0.8808,-0.8808,-0.9192,-1.0371,-1.0624,-1.0624,-1.0624,-1.0624,-1.0624,-1.0624,-1.281,-1.4259,-1.4259,-1.4259,-1.4565,-1.5352,-1.541,-1.541,-1.541,-1.541,-1.541,-1.541,-1.541,-1.541,-1.541,-1.541,-1.541,-1.541,-1.541,-1.6108,-1.7358,-1.602,-1.541,-1.5522,-1.7775,-1.7501,-1.5167,-1.1962,-1.0624,-1.0624,-1.0624,-1.0624,-1.0624,-1.0624,-1.1111,-1.2081,0.0,0.0,0.0,0.0,0.0,0.0,0.0,0.0,0.0,0.0,0.0,0.0,0.0,0.0,0.0,0.0,0.0,0.0,0.0,0.0,0.0,0.0,0.0,0.0,0.0,-0.7831,-0.7008,-0.5312,-0.5312,-0.6763,-0.9583,-0.9951,-1.0102,-1.0021,0.0,0.0,0.0,0.0,-0.77,-0.7695,-0.7578,0.0,0.0,0.0,0.0,0.0,0.0,0.0,0.0,0.0,0.0,0.0,0.0,0.0,-0.5312,-0.5312,-0.5312,-0.5312,-0.5312,-0.5437,-0.5795,-0.688,-0.7923,-0.8681,-0.8681,-0.8681,0.0,-0.8681,-0.8748,-0.8808,-0.8808,-0.8808,-0.9192,-1.0371,-1.0624,-1.0624,-1.0624,-1.0624,-1.0624,-1.0624,-1.0804,-1.0926,-1.0926,-1.0926,-1.2201,-1.5172,-1.541,-1.541,-1.541,-1.541,-1.541,-1.541,-1.541,-1.541,-1.541,-1.541,-1.541,-1.541,-1.541,-1.5478,-1.5596,-1.5469,-1.541,-1.541,-1.5628,-1.5575,-1.5167,-1.1962,-1.0624,-1.0624,-1.0624,-1.0624,-1.0624,-1.0624,-1.2504,-1.5108,0.0,0.0,0.0,0.0,0.0,0.0,0.0,0.0,0.0,0.0,0.0,0.0,0.0,0.0,0.0,0.0,0.0,0.0,0.0,0.0,0.0,0.0,0.0,-0.7235,-0.6229,-0.6199,-0.6413,-0.6781,-0.7708,-0.8765,-0.9925,-1.0705,0.0,0.0,0.0,0.0,0.0,0.0,0.0,-0.7608,-0.6595,-0.5831,0.0,0.0,0.0,0.0,0.0,0.0,0.0,0.0,-0.5312,-0.5312,-0.5312,-0.5312,-0.5312,-0.5312,-0.5312,-0.5312,-0.5312,-0.5312,-0.5561,-0.673,-0.7361,0.0,0.0,-0.8273,-0.8808,-0.8808,-0.8808,-0.8808,-0.8808,-0.8808,-0.9192,-1.0371,-1.0624,-1.0624,-1.0624,-1.0624,-1.0624,-1.0624,-1.0624,-1.0624,-1.0624,-1.0624,-1.1111,-1.232,-1.2447,-1.3291,-1.5289,-1.541,-1.541,-1.541,-1.541,-1.541,-1.541,-1.541,-1.541,-1.541,-1.541,-1.541,-1.541,-1.541,-1.541,-1.5289,-1.3291,-1.2447,-1.2324,-1.1111,-1.0624,-1.0624,-1.0624,-1.0624,-1.0867,-1.2866,-1.4382,-1.541,0.0,0.0,0.0,0.0,0.0,0.0,0.0,0.0,0.0,0.0,0.0,0.0,0.0,0.0,0.0,0.0,0.0,0.0,0.0,0.0,0.0,0.0,0.0,-0.6034,-0.5306,-0.4917,-0.5705,-0.77,-0.917,-0.9899,-0.9925,0.0,0.0,0.0,0.0,0.0,0.0,0.0,0.0,0.0,-0.6291,-0.6044,0.0,0.0,0.0,0.0,0.0,0.0,0.0,0.0,-0.5312,-0.5312,-0.5312,-0.4922,-0.4596,-0.5147,-0.5312,-0.5312,-0.5312,-0.5312,-0.5651,-0.7198,0.0,0.0,-0.7585,-0.822,-0.8808,-0.8808,-0.8808,-0.8808,-0.8808,-0.8808,-0.8789,-0.8714,-0.9743,-1.0624,-1.0624,-1.0624,-1.0624,-1.0624,-1.0624,-1.0624,-1.0624,-1.0624,-1.0624,-1.0624,-1.0624,-1.2023,-1.523,-1.541,-1.541,-1.541,-1.541,-1.541,-1.541,-1.541,-1.541,-1.541,-1.541,-1.541,-1.541,-1.541,-1.4869,-1.3773,-1.1534,-1.0624,-1.0624,-1.0624,-1.0624,-1.0624,-1.0624,-1.0624,-1.0989,-1.42,-1.541,-1.541,0.0,0.0,0.0,0.0,0.0,0.0,0.0,0.0,0.0,0.0,0.0,0.0,0.0,0.0,0.0,0.0,0.0,0.0,0.0,0.0,0.0,0.0,0.0,-0.4072,-0.5269,-0.4132,-0.4921,-0.7725,-0.9197,-0.9899,-0.9899,-0.9873,0.0,0.0,0.0,0.0,0.0,0.0,0.0,0.0,-0.7022,-0.77,-0.7515,0.0,0.0,0.0,0.0,0.0,0.0,0.0,-0.5312,-0.5312,-0.5281,0.0,-0.3039,-0.4759,-0.5277,-0.5316,-0.5326,-0.5329,-0.5858,-0.8203,0.0,0.0,-0.8857,-0.8808,-0.8808,-0.8808,-0.8808,-0.8808,-0.8808,-0.8808,-0.7883,-0.5014,-0.7985,-1.0624,-1.0624,-1.0624,-1.0624,-1.0624,-1.0624,-1.0624,-1.0624,-1.0624,-1.0624,-1.0624,-1.0624,-1.202,-1.5167,-1.5352,-1.541,-1.541,-1.541,-1.541,-1.541,-1.541,-1.541,-1.541,-1.541,-1.541,-1.541,-1.541,-1.3653,-1.0624,-1.0624,-1.0624,-1.0624,-1.0624,-1.0624,-1.0624,-1.0624,-1.0624,-1.0989,-1.42,-1.541,-1.541,0.0,0.0,0.0,0.0,0.0,0.0,0.0,0.0,0.0,0.0,0.0,0.0,0.0,0.0,0.0,0.0,0.0,0.0,0.0,0.0,0.0,0.0,0.0,0.0,0.0,0.0,-0.7384,-0.9245,-1.0582,-1.0777,0.0,0.0,0.0,-0.7666,0.0,0.0,0.0,0.0,0.0,0.0,-0.5831,-0.6686,-0.7637,0.0,0.0,0.0,0.0,0.0,0.0,0.0,0.0,0.0,-0.3851,0.0,-0.2812,-0.3331,-0.4336,-0.549,-0.6283,-0.6506,0.0,-0.7375,0.0,0.0,0.0,-1.0186,0.0,-0.8808,-0.8808,-0.8808,-0.8808,-0.8808,-0.8796,-0.8801,-0.9818,-1.0624,-1.0624,-1.0624,-1.0624,-1.0624,-1.0624,-1.0624,-1.0624,-1.0624,-1.0624,-1.0624,-1.0624,-1.1052,-1.1958,-1.42,-1.541,-1.541,-1.541,-1.541,-1.541,-1.541,-1.541,-1.541,-1.541,-1.541,-1.541,-1.541,-1.3653,-1.0624,-1.0624,-1.0624,-1.0624,-1.0624,-1.0624,-1.0624,-1.0624,-1.0624,-1.0989,-1.42,-1.541,-1.541,0.0,0.0,0.0,0.0,0.0,0.0,0.0,0.0,0.0,0.0,0.0,0.0,0.0,0.0,0.0,0.0,0.0,0.0,0.0,0.0,0.0,0.0,0.0,0.0,0.0,-0.6134,-0.729,0.0,0.0,0.0,0.0,0.0,0.0,-0.6721,0.0,-0.5648,0.0,0.0,0.0,0.0,-0.5312,-0.626,-0.77,0.0,0.0,0.0,0.0,0.0,0.0,0.0,0.0,0.0,-0.3039,0.0,0.0,-0.3004,-0.3634,-0.4562,-0.5951,-0.667,0.0,-0.7612,-0.9085,-1.0842,-1.2524,-1.0795,-0.8808,-0.8808,-0.8808,-0.8808,-0.8808,-0.8055,-0.7698,-0.8388,-0.8546,-0.9,-1.0428,-0.9387,-0.9064,-1.0428,-1.0624,-1.0624,-1.0624,-1.0624,-1.0624,-1.0624,-1.0624,-1.0624,-1.0624,-1.2447,-1.3472,-1.3472,-1.4742,-1.541,-1.541,-1.541,-1.541,-1.541,-1.541,-1.541,-1.541,-1.541,-1.3653,-1.0684,-1.1958,-1.1776,-1.0624,-1.0624,-1.0624,-1.0624,-1.0624,-1.1355,-1.2744,-1.4683,-1.541,-1.541,0.0,0.0,-0.6284,-0.5276,0.0,0.0,0.0,0.0,0.0,0.0,0.0,-0.5108,0.0,0.0,0.0,-0.5108,0.0,0.0,0.0,0.0,0.0,0.0,0.0,0.0,0.0,0.0,0.0,0.0,0.0,0.0,0.0,0.0,-0.5208,-0.5312,0.0,-0.6106,0.0,0.0,0.0,0.0,-0.5467,-0.6382,-0.77,-0.77,0.0,0.0,0.0,0.0,0.0,0.0,0.0,0.0,-0.2714,-0.2714,-0.2822,-0.3337,-0.3149,-0.3132,-0.4703,-0.6138,-0.749,-0.8833,-1.1049,-1.2881,-1.2881,-1.0947,-0.9113,-0.886,-0.8808,-0.8699,-0.848,-0.6703,-0.5346,-0.5346,-0.5392,-0.651,-0.958,-0.7395,-0.6599,-0.9776,-1.0104,-1.0231,-1.0561,-1.0624,-1.0624,-1.0624,-1.0624,-1.0624,-1.0624,-1.0624,-1.0624,-1.0624,-1.3412,-1.5108,-1.541,-1.541,-1.541,-1.541,-1.541,-1.541,-1.541,-1.541,-1.3773,-1.117,-1.3837,-1.3287,-1.0624,-1.0624,-1.0624,-1.0624,-1.0624,-1.2565,-1.541,-1.541,-1.541,-1.5391,0.0,0.0,-0.6284,-0.5276,0.0,0.0,0.0,0.0,-0.5108,-0.5108,-0.5108,-0.5108,-0.5108,-0.5797,0.0,-0.5166,-0.5108,0.0,0.0,0.0,0.0,0.0,0.0,0.0,0.0,0.0,0.0,0.0,0.0,0.0,0.0,0.0,0.0,-0.5312,0.0,-0.5495,0.0,0.0,0.0,-0.5404,-0.6686,-0.7392,-0.77,-0.77,-0.77,0.0,0.0,0.0,0.0,0.0,0.0,0.0,-0.2714,-0.2714,-0.2738,-0.287,-0.3119,-0.3469,-0.388,-0.6138,0.0,-1.1418,-1.2471,-1.2881,-1.2881,-1.2421,-1.1401,-0.9267,-0.8808,-0.8099,-0.5821,-0.5014,-0.4714,-0.4714,-0.5116,-0.5513,-0.5754,-0.5557,-0.569,-0.6404,-0.6535,-0.7572,-1.0361,-1.0624,-1.0624,-1.0624,-1.0624,-1.0624,-1.0624,-1.0624,-1.0624,-1.0624,-1.1292,-1.2866,-1.5352,-1.541,-1.541,-1.541,-1.541,-1.541,-1.541,-1.541,-1.5045,-1.4259,-1.2443,-1.123,-1.0624,-1.0624,-1.0624,-1.0624,-1.0624,-1.2565,-1.541,-1.541,-1.541,-1.522,0.0,0.0,0.0,0.0,0.0,0.0,0.0,0.0,-0.5108,-0.5108,-0.5108,-0.5108,-0.5108,-0.6003,0.0,0.0,-0.5108,-0.5108,0.0,0.0,0.0,0.0,0.0,0.0,0.0,0.0,0.0,0.0,0.0,0.0,0.0,0.0,0.0,-0.5312,0.0,-0.5312,0.0,0.0,-0.3858,-0.4519,-0.534,-0.5702,-0.5702,-0.5702,-0.6004,-0.6462,-0.6515,0.0,0.0,0.0,0.0,0.0,0.0,0.0,-0.2714,-0.2714,-0.2939,-0.3486,-0.4853,0.0,0.0,-1.2524,0.0,-1.2881,-1.2881,-1.2881,-1.2112,-0.9368,-0.8808,-0.7937,-0.5005,-0.4517,-0.4517,-0.4517,-0.4785,-0.4881,-0.4561,-0.479,-0.4992,-0.4992,-0.4992,-0.5713,-0.7501,-0.8937,-0.9719,-0.9719,-0.9719,-0.9719,-0.9719,-0.9719,-0.9719,-0.9719,-0.9719,-1.0563,-1.2231,-1.3527,-1.4199,-1.4199,-1.4199,-1.4199,-1.4228,-1.5044,-1.541,-1.523,-1.2023,-1.0624,-1.0624,-1.0624,-1.0624,-1.0624,-1.0624,-1.2565,-1.5312,-1.4497,-1.4199,-1.4072,0.0,0.0,0.0,0.0,0.0,0.0,0.0,0.0,0.0,-0.4829,-0.4991,-0.5108,-0.5108,-0.6003,-0.626,0.0,0.0,0.0,-0.5108,0.0,0.0,0.0,0.0,0.0,0.0,0.0,0.0,0.0,0.0,0.0,0.0,0.0,0.0,-0.571,0.0,0.0,0.0,0.0,-0.3506,-0.3527,-0.371,-0.3769,-0.3748,-0.3566,-0.4048,-0.484,-0.4946,-0.492,-0.4628,-0.3169,0.0,0.0,0.0,0.0,-0.231,-0.2613,-0.2714,-0.3322,-0.6207,0.0,-1.352,-1.352,-1.352,-1.343,-1.2973,-1.2881,-1.2112,-0.9368,-0.8808,-0.7937,-0.5005,-0.4517,-0.4517,-0.4517,-0.4517,-0.4517,-0.4517,-0.4517,-0.4517,-0.4517,-0.4517,-0.4517,-0.4517,-0.6635,-0.8262,-0.8755,-0.8808,-0.8808,-0.8808,-0.8808,-0.8808,-0.8808,-0.8808,-0.8808,-0.8808,-1.1506,-1.2881,-1.2881,-1.2881,-1.2881,-1.293,-1.4336,-1.5137,-1.523,-1.2023,-1.0624,-1.0624,-1.0624,-1.0624,-1.0624,-1.0624,-1.2361,-1.4805,-1.3398,-1.2881,-1.2827,0.0,0.0,0.0,0.0,0.0,0.0,0.0,0.0,0.0,0.0,-0.4531,-0.5108,-0.5108,-0.6003,-0.6541,-0.6413,-0.5611,-0.5108,0.0,0.0,0.0,0.0,0.0,0.0,0.0,0.0,0.0,0.0,0.0,0.0,0.0,0.0,0.0,-0.7328,0.0,0.0,0.0,0.0,-0.3506,-0.3587,-0.4511,-0.4888,-0.479,-0.3848,-0.3587,-0.371,-0.3723,-0.3437,-0.3008,-0.2779,-0.1673,0.0,0.0,0.0,-0.067,-0.2242,-0.2714,-0.3322,-0.6207,0.0,-1.602,0.0,-1.602,-1.5472,-1.3387,-1.2881,-1.2112,-0.9368,-0.8808,-0.7937,-0.5005,-0.4517,-0.4517,-0.4517,-0.4517,-0.4517,-0.4517,-0.4517,-0.4517,-0.4517,-0.4517,-0.4517,-0.4517,-0.4844,-0.6091,-0.859,-0.8808,-0.8808,-0.8808,-0.8808,-0.8808,-0.8808,-0.8808,-0.8808,-0.8808,-1.1506,-1.2881,-1.2881,-1.2881,-1.2881,-1.2886,-1.3115,-1.4023,-1.523,-1.2023,-1.0624,-1.0624,-1.0624,-1.0624,-1.0624,-1.0624,-1.1662,-1.3193,-1.2964,-1.2881,-1.2573,0.0,0.0,0.0,0.0,0.0,0.0,0.0,0.0,0.0,0.0,0.0,-0.5108,-0.5108,-0.6003,-0.6372,-0.5815,-0.5353,0.0,0.0,0.0,0.0,0.0,0.0,0.0,0.0,0.0,0.0,0.0,0.0,0.0,0.0,-0.8152,-0.8647,0.0,0.0,0.0,0.0,0.0,-0.3506,-0.3587,-0.4671,-0.475,-0.415,-0.3689,-0.3506,-0.3418,-0.2783,-0.2407,-0.2089,-0.141,-0.067,-0.0134,-0.0938,0.0,0.0,0.0,-0.1908,-0.3577,-0.7538,-1.2489,-1.6515,0.0,-1.6515,-1.5882,-1.343,-1.2881,-1.2112,-0.9368,-0.8808,-0.7937,-0.5005,-0.4517,-0.4517,-0.4517,-0.4517,-0.4517,-0.4517,-0.4517,-0.4517,-0.4517,-0.4517,-0.4517,-0.4517,-0.4517,-0.5712,-0.859,-0.8808,-0.8808,-0.8808,-0.8808,-0.8808,-0.8808,-0.8808,-0.8808,-0.8808,-1.1506,-1.2881,-1.2881,-1.2881,-1.2881,-1.2881,-1.2881,-1.3291,-1.3826,-1.0849,-0.9579,-0.9579,-0.9579,-0.9579,-0.9579,-0.9579,-1.0013,-1.0588,-1.0588,-1.0588,-1.0435,0.0,0.0,0.0,0.0,0.0,0.0,0.0,0.0,0.0,0.0,0.0,-0.5108,-0.5108,0.0,0.0,0.0,-0.5108,0.0,0.0,0.0,0.0,0.0,0.0,0.0,0.0,0.0,0.0,0.0,0.0,0.0,-0.6277,-0.9009,-0.9294,0.0,-0.6252,0.0,0.0,0.0,0.0,-0.3969,-0.477,-0.4631,-0.3939,-0.426,-0.4021,-0.3351,-0.2217,-0.1603,-0.1203,-0.0317,0.0,0.0,0.0,0.0,0.0,0.0,0.0,-0.5324,0.0,0.0,-1.6515,-1.6515,-1.6064,-1.5107,-1.3291,-1.2881,-1.2318,-1.0285,-0.9263,-0.7937,-0.5005,-0.4517,-0.4517,-0.4517,-0.4517,-0.4517,-0.4517,-0.4517,-0.4517,-0.4517,-0.4517,-0.4517,-0.4517,-0.4517,-0.5712,-0.859,-0.8808,-0.8808,-0.8808,-0.8808,-0.8808,-0.8808,-0.8808,-0.8808,-0.8808,-1.1506,-1.2881,-1.2881,-1.2881,-1.2881,-1.2881,-1.2881,-1.2524,-1.176,-0.9673,-0.8808,-0.8808,-0.8808,-0.8808,-0.8808,-0.8808,-0.8808,-0.8808,-0.8808,-0.8808,-0.8808,0.0,0.0,0.0,0.0,0.0,0.0,0.0,0.0,0.0,0.0,0.0,-0.5108,-0.5108,-0.5146,-0.5166,-0.5108,-0.5108,0.0,0.0,0.0,0.0,0.0,0.0,0.0,0.0,0.0,0.0,0.0,0.0,0.0,-0.5259,-0.8695,-0.9138,-0.7052,-0.6931,-0.6316,-0.5309,0.0,0.0,-0.503,-0.5069,-0.5069,-0.5139,-0.6371,-0.5428,-0.3351,-0.2217,-0.107,-0.009,-0.0023,0.0,0.0,0.0,0.0,-0.0336,0.0,0.0,0.0,0.0,-1.3138,0.0,-1.6515,-1.4795,-1.3065,-1.2929,-1.2881,-1.2881,-1.273,-1.0588,-0.7937,-0.5005,-0.4517,-0.4517,-0.4517,-0.4517,-0.4517,-0.4517,-0.4517,-0.4517,-0.4517,-0.4517,-0.4517,-0.4517,-0.4517,-0.5712,-0.859,-0.8808,-0.8808,-0.8808,-0.8808,-0.8808,-0.8808,-0.8808,-0.8808,-0.8808,-1.1506,-1.2881,-1.2881,-1.2881,-1.2881,-1.2881,-1.2881,-1.1506,-0.9008,-0.8857,-0.8808,-0.8808,-0.8808,-0.8808,-0.8808,-0.8808,-0.8808,-0.8808,-0.8808,-0.8808,-0.8808,0.0,0.0,0.0,0.0,0.0,0.0,0.0,0.0,0.0,0.0,0.0,0.0,0.0,-0.5108,-0.5108,-0.5108,-0.4471,0.0,0.0,0.0,0.0,0.0,0.0,0.0,0.0,0.0,0.0,0.0,0.0,-0.6653,-0.6794,-0.773,-0.7754,-0.6949,-0.6239,-0.6089,-0.6396,-0.6396,0.0,-0.5108,-0.5108,-0.6431,-0.8332,-0.736,-0.5587,-0.3511,-0.3115,-0.2418,-0.174,-0.174,-0.172,-0.174,-0.174,-0.1478,-0.1565,-0.3623,-0.6921,-0.9899,-0.9899,0.0,0.0,-1.2485,-1.2696,-1.2881,-1.2881,-1.2881,-1.2881,-1.2881,-1.069,-0.7937,-0.5005,-0.4517,-0.4517,-0.4517,-0.4517,-0.4517,-0.4517,-0.4517,-0.4517,-0.4517,-0.4517,-0.4517,-0.4517,-0.4517,-0.5712,-0.859,-0.8808,-0.8808,-0.8808,-0.8808,-0.8808,-0.8808,-0.8808,-0.9625,-1.1401,-1.2421,-1.2881,-1.2881,-1.1099,-1.1196,-1.2832,-1.1049,-0.9725,-0.8808,-0.8808,-0.8808,-0.8808,-0.8808,-0.8808,-0.8808,-0.8808,-0.8808,-0.8808,-0.8808,-0.8808,-0.8808,0.0,0.0,0.0,-0.5108,0.0,-0.4971,-0.4611,-0.4268,-0.4289,-0.501,0.0,0.0,0.0,0.0,-0.4952,-0.4591,-0.3556,0.0,0.0,0.0,0.0,0.0,0.0,0.0,0.0,0.0,0.0,0.0,0.0,0.0,0.0,-0.5963,-0.6059,-0.6406,-0.5625,-0.5711,0.0,0.0,-0.6754,-0.5978,-0.5978,-0.772,-1.0074,-0.7837,-0.5607,-0.358,-0.358,-0.3492,-0.3257,-0.2852,-0.2714,-0.2714,-0.2714,-0.2294,-0.2165,-0.4017,-0.636,-0.8486,-0.9012,0.0,0.0,-0.9366,-1.0728,-1.2158,-1.2749,-1.2166,-1.1506,-1.1506,-0.9318,-0.6797,-0.4844,-0.4517,-0.4517,-0.4517,-0.4517,-0.4517,-0.4517,-0.4517,-0.4517,-0.4517,-0.4517,-0.4517,-0.4517,-0.4517,-0.5712,-0.859,-0.8808,-0.8808,-0.8808,-0.8808,-0.8808,-0.8808,-0.8808,-0.9673,-1.1506,-1.2421,-1.2881,-1.2881,-1.0131,-0.9777,-1.1456,-0.9621,-0.8808,-0.8808,-0.8808,-0.8808,-0.8808,-0.8808,-0.8808,-0.8808,-0.8808,-0.8808,-0.8808,-0.8808,-0.8808,-0.8808,-0.7686,-0.6343,-0.5171,-0.5117,-0.5108,-0.473,-0.3668,-0.441,-0.5108,-0.5108,0.0,0.0,0.0,0.0,0.0,-0.3587,-0.2457,-0.1804,-0.1804,0.0,0.0,0.0,0.0,0.0,0.0,0.0,0.0,0.0,0.0,0.0,0.0,0.0,-0.4138,-0.5262,-0.5262,-0.5258,-0.5411,-0.7004,-0.77,-0.77,-0.77,-0.8717,-0.9952,-0.7837,-0.558,-0.3605,-0.3541,-0.386,-0.4177,-0.3008,-0.2653,-0.2737,-0.2719,-0.2294,-0.2022,-0.3132,-0.4333,-0.5648,0.0,0.0,0.0,-0.77,-0.9053,-1.0786,-1.238,-1.0708,-0.8808,-0.8808,-0.6524,-0.4517,-0.4517,-0.4517,-0.4462,-0.4405,-0.4462,-0.4517,-0.4517,-0.4517,-0.4517,-0.4517,-0.4517,-0.4517,-0.4517,-0.4517,-0.5712,-0.859,-0.8808,-0.8808,-0.8808,-0.8699,-0.8695,-0.8695,-0.8752,-0.8857,-0.8906,-1.1556,-1.2881,-1.2876,-1.0182,-0.8857,-0.8808,-0.8808,-0.8808,-0.8808,-0.8808,-0.8808,-0.8808,-0.8808,-0.8808,-0.8808,-0.8808,-0.8808,-0.8808,-0.8808,-0.8808,-0.8808,-0.7452,-0.7311,-0.6586,-0.5326,-0.5108,-0.473,-0.3668,-0.441,-0.5108,0.0,0.0,0.0,-0.5108,-0.5108,-0.4671,-0.3587,-0.2457,-0.1804,-0.1804,-0.2565,0.0,0.0,0.0,0.0,0.0,0.0,0.0,0.0,0.0,0.0,0.0,0.0,0.0,0.0,-0.3987,-0.4422,-0.5272,-0.6964,-0.77,-0.77,-0.77,-0.7778,-0.7837,-0.7224,-0.5836,-0.3954,-0.1773,-0.109,-0.1215,-0.0869,-0.1888,-0.3256,-0.2853,-0.2294,-0.187,-0.2174,-0.3709,-0.5404,-0.5831,0.0,0.0,0.0,0.0,0.0,-0.9181,-0.8706,-0.8808,-0.8808,-0.6524,-0.4517,-0.4517,-0.4517,-0.379,-0.1619,-0.3066,-0.4517,-0.4517,-0.4517,-0.4517,-0.4517,-0.4517,-0.4517,-0.4517,-0.4517,-0.5712,-0.859,-0.8808,-0.8808,-0.8808,-0.6797,-0.5712,-0.5712,-0.7717,-0.9777,-1.1755,-1.2524,-1.2881,-1.2881,-1.2116,-1.074,-0.8808,-0.8808,-0.8808,-0.8808,-0.8808,-0.8808,-0.8808,-0.8808,-0.8808,-0.8808,-0.8808,-0.8808,-0.8808,-0.8808,-0.8808,-0.8808,-0.736,-0.77,-0.7379,-0.6363,-0.5622,-0.4794,-0.3662,-0.441,-0.5108,0.0,0.0,0.0,-0.519,-0.5755,-0.5655,-0.4357,-0.2747,-0.1999,-0.2478,-0.3132,-0.3969,-0.5049,-0.5108,-0.5813,0.0,0.0,0.0,0.0,0.0,0.0,0.0,0.0,0.0,0.0,-0.4171,-0.4511,-0.5176,-0.6192,-0.6616,-0.6742,-0.8213,-0.7786,-0.6284,-0.602,-0.5171,-0.3774,-0.0997,0.0,0.0,0.0,-0.1629,-0.3519,-0.3168,-0.2675,-0.2184,-0.2184,-0.3136,-0.449,-0.5692,-0.6828,-0.77,-0.77,0.0,0.0,-0.6977,-0.7211,-0.7923,-0.7435,-0.5817,-0.4517,-0.4517,-0.4517,-0.3903,-0.2176,-0.3345,-0.4517,-0.4517,-0.4517,-0.4517,-0.4517,-0.4517,-0.4517,-0.4517,-0.4517,-0.5712,-0.859,-0.8808,-0.8808,-0.8808,-0.6091,-0.4517,-0.4517,-0.7283,-1.0135,-1.2876,-1.2881,-1.2881,-1.2881,-1.2881,-1.1456,-0.8808,-0.8808,-0.8808,-0.8808,-0.8808,-0.8808,-0.8808,-0.8808,-0.8808,-0.8808,-0.8808,-0.8808,-0.8808,-0.8808,-0.8808,-0.8808,0.0,-0.7578,-0.77,-0.77,-0.6382,-0.493,-0.3858,-0.4654,-0.5399,0.0,-0.6737,-0.718,-0.5827,-0.6888,-0.7056,-0.5435,-0.3267,-0.2413,-0.3439,-0.3608,-0.4109,-0.5049,-0.5108,-0.5574,-0.6582,0.0,0.0,0.0,0.0,0.0,0.0,0.0,0.0,0.0,-0.5108,-0.5108,-0.5108,-0.5108,-0.503,-0.5204,-0.8441,-0.8035,-0.543,-0.4769,-0.4187,-0.3418,-0.1284,-0.0504,-0.0448,-0.0112,-0.1441,-0.3253,-0.3511,-0.3252,-0.2815,-0.2815,-0.2767,-0.3322,-0.6207,-0.7314,-0.7633,-0.7633,-0.7633,0.0,-0.5649,-0.6182,-0.6646,-0.5374,-0.4723,-0.444,-0.4505,-0.4517,-0.4517,-0.4517,-0.4517,-0.4517,-0.4517,-0.4517,-0.4517,-0.4517,-0.4517,-0.4517,-0.4517,-0.4517,-0.5712,-0.859,-0.8808,-0.8808,-0.8808,-0.6091,-0.4517,-0.4517,-0.7283,-1.0135,-1.2876,-1.2881,-1.2881,-1.2881,-1.2881,-1.1456,-0.8808,-0.8808,-0.8808,-0.8808,-0.8808,-0.8808,-0.8808,-0.8808,-0.8808,-0.8808,-0.8808,-0.8808,-0.8808,-0.8808,-0.8808,-0.8808,-0.5964,-0.6811,-0.77,-0.77,-0.6382,-0.5235,-0.4973,-0.6221,-0.7194,-0.7194,-0.7486,-0.8094,-0.9165,-0.835,-0.7056,-0.5435,-0.3996,-0.3263,-0.3485,-0.4309,-0.4888,-0.5088,-0.5108,-0.5574,-0.6582,-0.6599,0.0,0.0,0.0,0.0,0.0,0.0,0.0,0.0,-0.5108,-0.5108,-0.5108,-0.5108,-0.4611,-0.3962,-0.561,-0.6435,-0.6499,-0.5054,-0.4445,-0.4251,-0.3809,-0.3623,-0.3233,-0.0839,-0.033,-0.1054,-0.2982,-0.3498,-0.3403,-0.3403,-0.3061,-0.3322,-0.6207,-0.7055,-0.7147,-0.7147,-0.7147,0.0,-0.5593,-0.6182,-0.6403,-0.4343,-0.3853,-0.3945,-0.4428,-0.4517,-0.4517,-0.4517,-0.4517,-0.4517,-0.4517,-0.4517,-0.4517,-0.4517,-0.4517,-0.4517,-0.4517,-0.4517,-0.5712,-0.859,-0.8808,-0.8808,-0.8808,-0.6091,-0.4517,-0.4517,-0.7283,-1.0135,-1.2876,-1.2881,-1.2881,-1.2881,-1.2881,-1.1456,-0.8808,-0.8808,-0.8808,-0.8808,-0.8808,-0.8808,-0.8808,-0.8808,-0.8808,-0.8808,-0.8808,-0.8808,-0.8808,-0.8808,-0.8808,-0.8808,-0.5467,-0.5955,-0.6747,-0.7573,-0.6382,-0.5557,-0.6382,-0.718,-0.77,-0.77,-0.8472,-0.9331,-1.019,-0.9517,-0.8314,-0.6628,-0.5208,-0.4152,-0.3542,-0.4511,-0.5108,-0.5108,-0.5108,-0.5333,-0.5834,-0.6337,0.0,0.0,0.0,0.0,0.0,0.0,0.0,0.0,-0.5108,-0.5108,-0.5069,-0.4531,-0.3831,-0.322,-0.47,-0.5476,-0.5665,-0.4824,-0.5386,-0.6632,-0.6632,-0.5712,-0.4015,-0.1006,0.0,-0.0498,-0.3186,-0.3866,-0.3637,-0.3981,-0.3643,-0.3466,-0.493,-0.6118,-0.6979,-0.6979,-0.6979,0.0,0.0,-0.6127,-0.4961,-0.384,-0.358,-0.367,-0.4017,-0.4072,-0.4072,-0.4072,-0.4072,-0.4177,-0.4474,-0.4517,-0.4517,-0.4517,-0.4517,-0.4517,-0.4517,-0.4517,-0.5712,-0.859,-0.8808,-0.8808,-0.8808,-0.6091,-0.4517,-0.4517,-0.7283,-1.0135,-1.2876,-1.2881,-1.2215,-1.0846,-1.0846,-1.0131,-0.8808,-0.8808,-0.8808,-0.8808,-0.8808,-0.8808,-0.8808,-0.8808,-0.8808,-0.8808,-0.8808,-0.8808,-0.8808,-0.8808,-0.8808,-0.8808,-0.5312,-0.5312,-0.571,-0.7026,-0.6355,-0.6087,-0.7503,-0.7978,-0.8192,-0.8192,-0.9762,-1.0873,-1.0873,-1.0505,-0.959,-0.7846,-0.6229,-0.488,-0.3901,-0.4444,-0.479,-0.479,-0.4991,-0.5108,-0.5108,-0.5888,0.0,0.0,0.0,0.0,0.0,-0.5108,-0.5108,-0.5103,0.0,0.0,-0.4728,-0.3763,-0.3084,-0.2812,-0.424,-0.4674,-0.457,-0.5115,-0.6797,-0.8857,-0.942,-0.7744,-0.4886,-0.1895,-0.077,-0.1134,-0.3704,-0.4185,-0.389,-0.4376,-0.4094,-0.358,-0.358,-0.4961,-0.6334,-0.6334,-0.6442,-0.6765,0.0,0.0,0.0,-0.358,-0.367,-0.3715,-0.3602,-0.358,-0.358,-0.358,-0.4168,-0.4776,-0.5253,-0.4737,-0.4388,-0.4503,-0.4517,-0.4517,-0.4517,-0.4517,-0.5439,-0.7774,-0.799,-0.799,-0.799,-0.5767,-0.4517,-0.4517,-0.7283,-1.0135,-1.2876,-1.2368,-1.0994,-0.8808,-0.8808,-0.8808,-0.8808,-0.8808,-0.8808,-0.8808,-0.8808,-0.8808,-0.8808,-0.8808,-0.8808,-0.8808,-0.8808,-0.8808,-0.8808,-0.8808,-0.8808,-0.8808,-0.5312,-0.5312,-0.5372,-0.5526,-0.6242,-0.6999,-0.7612,-0.9019,-0.999,-0.999,-1.1695,-1.2867,-1.2867,-1.1319,-0.959,-0.7846,-0.6229,-0.5252,-0.509,-0.42,-0.3689,-0.3689,-0.4591,-0.5108,-0.5108,0.0,0.0,0.0,0.0,0.0,0.0,0.0,-0.5108,-0.5117,-0.5223,-0.4684,-0.3648,-0.3038,-0.2748,-0.2714,-0.2909,-0.3603,-0.4789,-0.7337,-0.8533,-0.9113,-1.1556,-1.0677,-0.7877,-0.4939,-0.3649,-0.3346,-0.4242,-0.447,-0.4429,-0.4498,-0.4094,-0.358,-0.358,-0.3797,-0.397,-0.397,-0.4407,-0.4655,-0.4293,0.0,-0.358,-0.358,0.0,-0.4252,-0.3676,0.0,0.0,-0.358,-0.6169,-0.8228,-0.8299,-0.5671,-0.3923,-0.4455,-0.4517,-0.4517,-0.4517,-0.4517,-0.4627,-0.4952,-0.5009,-0.5009,-0.5009,-0.468,-0.4517,-0.4517,-0.7283,-1.0135,-1.2876,-1.0486,-0.9113,-0.8808,-0.8808,-0.8808,-0.8808,-0.8808,-0.8808,-0.8808,-0.8808,-0.8808,-0.8808,-0.8808,-0.8808,-0.8808,-0.8808,-0.8808,-0.8808,-0.8808,-0.8808,-0.8808,-0.5312,-0.5312,-0.5312,-0.5312,-0.5688,-0.6747,-0.8877,-0.9819,-1.0283,-1.0283,-1.1024,-1.2459,-1.4834,-1.4385,-1.2625,-0.9496,-0.9529,-0.874,-0.6446,-0.5194,-0.4546,-0.4546,-0.5878,-0.6139,-0.5132,-0.5108,0.0,0.0,-0.5108,0.0,0.0,0.0,-0.477,-0.4209,-0.4973,-0.4451,-0.3029,-0.3164,-0.3037,-0.2774,-0.3478,-0.4064,-0.4749,-0.6941,-0.92,-1.1351,-1.2471,-1.2166,-1.0728,-0.7957,-0.5709,-0.4187,-0.444,-0.4517,-0.4181,-0.2399,-0.1716,-0.1535,-0.1535,-0.1535,-0.1944,-0.3682,-0.407,-0.3933,-0.3636,-0.358,-0.358,-0.358,0.0,0.0,0.0,0.0,0.0,0.0,-0.4848,-0.5776,-0.5776,-0.4511,-0.3846,-0.4446,-0.4517,-0.4517,-0.4517,-0.4517,-0.4373,-0.4026,-0.4321,-0.4517,-0.4517,-0.6091,-0.7012,-0.7012,-0.8153,-0.9368,-1.049,-0.9368,-0.8808,-0.8808,-0.8808,-0.8808,-0.8808,-0.8808,-0.8808,-0.8808,-0.8808,-0.8808,-0.8808,-0.8808,-0.8808,-0.8808,-0.8808,-0.8808,-0.859,-0.6904,-0.6308,-0.6524,-0.5312,-0.5312,-0.5312,-0.5312,-0.5312,-0.6434,-0.9782,-1.0283,-1.0454,-1.0933,-1.0991,-1.2177,-1.5249,-1.6158,-1.5036,-1.1339,-1.2153,-1.1705,-0.8793,-0.7412,-0.666,-0.666,-0.7793,-0.7588,-0.5857,-0.5351,-0.5108,0.0,-0.5108,0.0,0.0,0.0,-0.4248,-0.3556,-0.4753,-0.4418,-0.2992,-0.3395,-0.3327,-0.3027,-0.3737,-0.4679,-0.5914,-0.7882,-1.0421,-1.2973,-1.3658,-1.3889,-1.3384,-0.9961,-0.6904,-0.4517,-0.4517,-0.4517,-0.3901,-0.0895,0.0,0.0,0.0,0.0,-0.0504,-0.2732,-0.3412,-0.358,-0.358,-0.358,-0.358,-0.358,-0.358,0.0,0.0,0.0,-0.358,-0.358,0.0,-0.358,-0.358,-0.3437,-0.3598,-0.4201,-0.4273,-0.4337,-0.4501,-0.4517,-0.427,-0.3624,-0.4026,-0.4343,-0.4508,-0.647,-0.799,-0.8755,-0.8808,-0.8808,-0.8808,-0.8808,-0.8808,-0.8808,-0.8808,-0.8808,-0.8808,-0.8808,-0.8808,-0.8808,-0.8808,-0.8808,-0.8808,-0.8808,-0.8808,-0.8808,-0.8808,-0.8315,-0.7393,-0.5277,-0.4517,-0.4897,-0.5312,-0.5312,0.0,-0.5312,-0.5312,-0.6434,-0.9782,-1.0283,-1.0889,-1.2578,-1.2803,-1.292,-1.3269,-1.5201,-1.5493,-1.3029,-1.2847,-1.2856,-1.2701,-1.112,-1.0157,-1.0157,-1.02,-0.9399,-0.7652,-0.5969,-0.5108,-0.5108,-0.5108,0.0,0.0,0.0,0.0,0.0,-0.4753,-0.4642,-0.3553,-0.3571,-0.357,-0.3503,-0.2994,-0.514,-0.8949,-1.1697,-1.2779,-1.3205,-1.5567,-1.638,-1.5602,-1.0511,-0.6904,-0.4517,-0.4517,-0.4517,-0.3901,-0.0895,0.0,0.0,0.0,0.0,0.0,-0.0112,-0.1908,-0.358,-0.358,-0.358,-0.358,-0.358,-0.358,-0.358,-0.358,-0.358,-0.358,-0.358,-0.358,0.0,0.0,-0.3116,-0.297,-0.3536,-0.3609,-0.3882,-0.4462,-0.4517,-0.427,-0.3624,-0.3598,-0.3907,-0.4488,-0.4572,-0.593,-0.8699,-0.8808,-0.8808,-0.8808,-0.8808,-0.8808,-0.8808,-0.8808,-0.8808,-0.8808,-0.8808,-0.8808,-0.8808,-0.8808,-0.8808,-0.8808,-0.8808,-0.8808,-0.8808,-0.8808,-0.7122,-0.4627,-0.4517,-0.4517,-0.4897,-0.5312,0.0,-0.5312,-0.5312,-0.6168,-0.7648,-0.9944,-1.126,-1.2212,-1.2803,-1.2881,-1.2932,-1.2973,-1.3686,-1.3795,-1.2973,-1.2881,-1.2881,-1.2881,-1.2329,-1.1489,-1.0332,-1.0283,-1.001,-0.9429,-0.77,-0.626,-0.5108,-0.5108,-0.5108,0.0,0.0,0.0,0.0,-0.3921,-0.393,-0.3607,-0.4048,-0.4216,-0.4349,-0.6052,-0.8666,-1.1606,-1.2573,-1.3884,-1.5588,-1.7826,-1.8612,-1.7891,-1.312,-0.8377,-0.4517,-0.4517,-0.3122,-0.1341,-0.028,0.0,0.0,0.0,0.0,0.0,0.0,-0.1808,-0.358,-0.358,-0.358,-0.3692,-0.4134,-0.4216,-0.4216,-0.4216,-0.4216,-0.4216,-0.4216,-0.3883,-0.358,0.0,-0.3061,-0.2791,-0.2997,-0.3337,-0.3659,-0.3907,-0.3926,-0.3842,-0.3595,-0.3991,-0.4304,-0.4506,-0.4517,-0.4954,-0.593,-0.7824,-0.8808,-0.8808,-0.8808,-0.8808,-0.8808,-0.8808,-0.8808,-0.8808,-0.8808,-0.8808,-0.8808,-0.8808,-0.8808,-0.8808,-0.8808,-0.8808,-0.859,-0.6689,-0.5332,-0.4517,-0.4517,-0.5712,-0.7501,-0.6832,-0.7063,-0.6873,-0.6254,-0.7512,-0.9009,-1.0112,-1.1763,-1.2881,-1.2881,-1.2881,-1.2881,-1.2881,-1.2881,-1.2881,-1.2881,-1.37,-1.416,-1.416,-1.3387,-1.2378,-1.1255,-1.1206,-1.0918,-1.0293,-0.9204,-0.7759,-0.6032,-0.6032,-0.6032,0.0,0.0,0.0,0.0,0.0,-0.3943,-0.3619,-0.4264,-0.5117,-0.6251,-0.9114,-1.1855,-1.4283,-1.5043,-1.6261,-1.782,-1.9207,-1.9207,-1.7972,-1.4193,-0.9137,-0.4517,-0.4517,-0.2453,0.0,0.0,0.0,0.0,0.0,0.0,0.0,0.0,-0.115,-0.2542,-0.3399,-0.358,-0.3794,-0.4395,-0.4517,-0.4517,-0.4517,-0.4517,-0.4517,-0.4517,-0.4015,-0.3761,0.0,-0.3886,-0.3623,-0.3623,-0.3428,-0.3669,-0.4719,-0.4452,-0.4364,-0.4769,-0.5581,-0.5603,-0.4572,-0.4517,-0.4517,-0.4517,-0.7283,-0.8808,-0.8808,-0.8808,-0.8808,-0.8808,-0.8808,-0.8808,-0.8808,-0.8808,-0.8808,-0.8808,-0.8808,-0.8808,-0.8808,-0.8808,-0.8808,-0.8533,-0.5603,-0.4517,-0.4627,-0.566,-0.723,-0.8808,-0.9687,-1.0283,-0.977,-0.8109,-0.9204,-1.0312,-1.044,-1.1821,-1.2881,-1.2881,-1.2881,-1.2881,-1.2881,-1.2881,-1.2881,-1.2881,-1.5113,-1.6429,-1.6337,-1.416,-1.2881,-1.2881,-1.2881,-1.2104,-1.0449,-1.041,-0.9575,-0.7827,-0.7739,-0.77,0.0,0.0,0.0,0.0,-0.478,-0.4731,-0.3794,-0.4467,-0.6308,-0.9064,-1.1805,-1.4346,-1.6716,-1.8772,-1.9471,-1.9383,-1.9515,-1.8217,-1.6113,-1.37,-0.9137,-0.4517,-0.4517,-0.2453,0.0,0.0,0.0,0.0,0.0,0.0,0.0,0.0,0.0,-0.0595,-0.2905,-0.3533,-0.383,-0.44,-0.4517,-0.4517,-0.4517,-0.4517,-0.4508,-0.4477,-0.4091,-0.4159,-0.5219,-0.5349,-0.5332,-0.5393,-0.3876,-0.3887,-0.666,-0.5985,-0.5802,-0.6854,-0.8043,-0.7532,-0.4796,-0.4555,-0.4517,-0.4517,-0.7173,-0.8586,-0.8586,-0.8586,-0.8646,-0.8808,-0.8808,-0.8808,-0.8808,-0.8808,-0.8808,-0.8808,-0.8808,-0.8808,-0.8808,-0.8808,-0.8699,-0.8315,-0.555,-0.4517,-0.4844,-0.7717,-0.8808,-0.8808,-1.0113,-1.0283,-1.0142,-0.9702,-0.999,-1.0723,-1.2017,-1.2593,-1.2881,-1.2881,-1.2881,-1.2881,-1.2881,-1.2881,-1.2881,-1.2881,-1.5113,-1.5744,-1.3931,-1.3248,-1.2881,-1.2881,-1.2881,-1.2671,-1.2222,-1.2212,-1.1367,-0.9629,-0.835,-0.77,-0.7671,0.0,0.0,0.0,0.0,-0.5601,-0.6188,-0.7274,-0.8096,-0.9064,-1.1805,-1.4346,-1.6558,-1.7111,-1.6219,-1.4869,-1.667,-1.6951,-1.6113,-1.37,-0.9137,-0.4517,-0.4517,-0.2453,0.0,0.0,0.0,0.0,0.0,0.0,0.0,0.0,0.0,-0.0167,-0.0803,-0.2646,-0.4331,-0.4486,-0.4517,-0.4517,-0.4517,-0.4517,-0.4371,-0.3926,-0.5143,-0.6241,-0.6537,-0.5828,-0.5605,-0.647,-0.5414,-0.4933,-0.5661,-0.6243,-0.6339,-0.5772,-0.6817,-0.7154,-0.6415,-0.5194,-0.4517,-0.4517,-0.5224,-0.5605,-0.5605,-0.5605,-0.6686,-0.8808,-0.8808,-0.8808,-0.8808,-0.8808,-0.8808,-0.8808,-0.8808,-0.8808,-0.8808,-0.8808,-0.7554,-0.555,-0.4791,-0.4517,-0.4844,-0.7717,-0.8808,-0.8808,-1.0283,-1.0894,-1.1421,-1.1421,-1.1421,-1.1494,-1.1709,-1.2393,-1.2881,-1.2881,-1.2881,-1.2881,-1.2881,-1.2881,-1.2881,-1.2881,-1.416,-1.434,-1.2973,-1.2881,-1.2881,-1.2881,-1.2881,-1.2318,-1.115,-1.2264,-1.2026,-1.0283,-0.9316,-0.8462,-0.7671,0.0,0.0,0.0,0.0,-0.5929,-0.7058,-0.83,-0.9469,-1.0744,-1.2269,-1.4346,0.0,-1.5338,-1.4066,-1.3065,-1.4433,-1.4932,-1.4703,-1.3339,-0.9999,-0.6147,-0.4899,-0.2453,0.0,0.0,0.0,0.0,0.0,0.0,0.0,0.0,0.0,0.0,0.0,-0.1341,-0.2899,-0.4237,-0.3456,-0.2509,-0.2509,-0.2509,-0.2773,-0.3491,-0.5521,-0.6979,-0.6979,-0.6456,-0.6286,-0.6941,-0.6443,-0.6042,-0.6042,-0.6172,-0.6199,-0.6052,-0.665,-0.68,-0.6289,-0.5158,-0.4517,-0.4517,-0.4517,-0.4517,-0.4517,-0.4517,-0.5332,-0.6904,-0.6904,-0.7554,-0.8808,-0.8808,-0.8808,-0.8808,-0.8808,-0.8808,-0.8808,-0.8808,-0.712,-0.4517,-0.4517,-0.4517,-0.468,-0.6308,-0.7717,-0.8808,-1.0625,-1.1841,-1.2881,-1.2881,-1.2881,-1.2446,-1.1152,-1.2236,-1.3135,-1.291,-1.2881,-1.2881,-1.2881,-1.2881,-1.2881,-1.2881,-1.2881,-1.2881,-1.2881,-1.2881,-1.2881,-1.2881,-1.2881,-1.1606,-0.8857,-1.115,-1.1802,-1.0625,-1.0391,-0.9404,-0.7671,0.0,0.0,0.0,0.0,-0.5929,-0.7058,-0.83,-1.0383,-1.2881,-1.2881,-1.4346,-1.6244,-1.3842,-1.2881,-1.2881,-1.2881,-1.2881,-1.2881,-1.2881,-1.0821,-0.7774,-0.5279,-0.2453,0.0,0.0,0.0,0.0,0.0,0.0,0.0,0.0,0.0,0.0,0.0,0.0,-0.0727,-0.3345,-0.1842,0.0,0.0,0.0,-0.0807,-0.3305,-0.5293,-0.6677,-0.6979,-0.7269,-0.7429,-0.7429,-0.7247,0.0,-0.7007,-0.5965,-0.5701,-0.6717,-0.6794,-0.6416,-0.5554,-0.4793,-0.4438,-0.4515,-0.4517,-0.4517,-0.4517,-0.4517,-0.4517,-0.4517,-0.4517,-0.5819,-0.8262,-0.8643,-0.8808,-0.8808,-0.8808,-0.8808,-0.8808,-0.8808,-0.712,-0.4517,-0.4517,-0.4517,-0.4517,-0.4517,-0.6091,-0.8259,-1.2422,-1.2671,-1.2881,-1.2881,-1.2881,-1.3247,-1.4346,-1.4775,-1.4468,-1.3066,-1.2881,-1.2881,-1.2881,-1.2881,-1.2881,-1.2881,-1.2881,-1.2881,-1.2881,-1.2881,-1.2881,-1.2881,-1.2881,-1.1606,-0.8857,-0.9267,-1.0467,-1.2422,-1.0986,-0.9404,-0.7671,0.0,0.0,0.0,0.0,-0.5929,-0.7058,-0.83,-1.0383,-1.2881,-1.2881,-1.4346,-1.6244,-1.3842,-1.2881,-1.2881,-1.2881,-1.2881,-1.2881,-1.2881,-0.9511,-0.5169,-0.468,-0.2453,0.0,0.0,0.0,0.0,0.0,0.0,0.0,0.0,0.0,0.0,0.0,0.0,-0.0168,-0.0671,-0.0392,0.0,0.0,0.0,-0.0943,-0.3889,-0.4278,-0.4831,-0.6722,-0.8569,-0.9707,-0.9707,-0.8459,-0.7415,-0.7048,-0.5965,-0.5396,-0.5571,-0.5585,-0.5915,-0.6677,-0.4847,-0.4007,-0.4501,-0.4517,-0.4517,-0.4517,-0.4517,-0.4517,-0.4517,-0.4517,-0.4789,-0.5334,-0.7717,-0.8808,-0.8808,-0.8808,-0.8808,-0.8808,-0.8808,-0.712,-0.4517,-0.4517,-0.4517,-0.4517,-0.4517,-0.4844,-0.5279,-1.4023,-1.3486,-1.2881,-1.2881,-1.2881,-1.3452,-1.5151,-1.541,-1.4805,-1.3105,-1.3647,-1.3857,-1.2978,-1.2881,-1.2881,-1.2881,-1.2881,-1.2881,-1.2881,-1.2881,-1.2881,-1.2881,-1.2881,-1.1606,-0.8857,-0.8808,-0.9472,-1.0795,-0.9325,-0.7842,-0.6443,-0.5679,-0.5312,-0.5339,0.0,-0.6496,-0.7058,-0.83,-1.0383,-1.2881,-1.2881,-1.3615,-1.4525,-1.3339,-1.2881,-1.2725,-1.1301,-1.0795,-1.0795,-1.0795,-0.7973,-0.4517,-0.4517,-0.2453,0.0,0.0,0.0,0.0,0.0,0.0,0.0,0.0,0.0,0.0,0.0,0.0,-0.0448,-0.2008,-0.1062,0.0,0.0,0.0,-0.1006,-0.4013,-0.4276,-0.4738,-0.6716,-0.8479,-0.9731,-1.0224,-0.8774,-0.7529,-0.7028,-0.5965,-0.5312,-0.5312,-0.5312,-0.5528,-0.6089,-0.4525,-0.3899,-0.4498,-0.4517,-0.4517,-0.4517,-0.4517,-0.4517,-0.4517,-0.4517,-0.4517,-0.457,-0.7501,-0.8808,-0.8808,-0.8808,-0.8808,-0.8699,-0.7173,-0.5767,-0.4517,-0.4517,-0.4517,-0.4517,-0.4517,-0.4517,-0.4517,-1.5146,-1.4336,-1.3306,-1.2944,-1.3179,-1.3872,-1.521,-1.4805,-1.4169,-1.3486,-1.4007,-1.3903,-1.2552,-1.2163,-1.2264,-1.2827,-1.2881,-1.2881,-1.2881,-1.2881,-1.2881,-1.2881,-1.2881,-1.1606,-0.8857,-0.8808,-0.8808,-0.8808,-0.7609,-0.655,-0.5648,-0.543,-0.5443,-0.5691,-0.6613,-0.7121,-0.7462,-0.8407,-1.0032,-1.2013,-1.2013,-1.2013,-1.2013,-1.2013,-1.2013,-1.176,-0.9573,-0.8808,-0.8695,-0.8096,-0.6362,-0.4517,-0.4517,-0.2453,0.0,0.0,0.0,0.0,0.0,0.0,0.0,0.0,0.0,0.0,0.0,0.0,-0.0671,-0.3066,-0.1675,0.0,0.0,0.0,-0.1006,-0.4013,-0.4517,-0.5185,-0.7115,-0.7996,-0.8732,-0.9493,-0.8369,-0.7218,-0.6375,-0.5341,-0.4759,-0.4759,-0.5084,-0.5147,-0.4759,-0.4004,-0.384,-0.4312,-0.4452,-0.4517,-0.4517,-0.4517,-0.4517,-0.4517,-0.4517,-0.4517,-0.457,-0.7501,-0.8808,-0.8808,-0.8808,-0.8808,-0.859,-0.5712,-0.4517,-0.4517,-0.4517,-0.4517,-0.4517,-0.4517,-0.4517,-0.4517,-1.5381,-1.5283,-1.4687,-1.3154,-1.4155,-1.5229,-1.5391,-1.2927,-1.2035,-1.4777,-1.2789,-1.1006,-1.0829,-0.983,-1.0186,-1.2676,-1.2881,-1.2881,-1.2881,-1.2881,-1.2881,-1.2881,-1.2881,-1.1606,-0.8857,-0.8808,-0.8808,-0.8808,-0.7609,-0.6926,-0.6837,-0.5778,-0.5845,-0.6864,-0.6932,-0.7622,-0.8647,-0.8761,-0.8959,-0.9162,-0.9162,-0.9162,-0.9162,-0.9162,-0.9162,-0.9166,-0.891,-0.8808,-0.8424,-0.5767,-0.4734,-0.4517,-0.4517,-0.2453,0.0,0.0,0.0,0.0,0.0,0.0,0.0,0.0,0.0,0.0,0.0,0.0,-0.0056,-0.0336,-0.0224,0.0,0.0,0.0,-0.1006,-0.4013,-0.4517,-0.5471,-0.8228,-0.7802,-0.7187,-0.728,-0.7169,-0.6217,-0.4136,-0.333,-0.294,-0.294,-0.4401,-0.4599,-0.3039,-0.3371,-0.3605,-0.3661,-0.4235,-0.4517,-0.4517,-0.4517,-0.4517,-0.4517,-0.4517,-0.4517,-0.457,-0.7501,-0.8808,-0.8808,-0.8808,-0.8808,-0.859,-0.5712,-0.4517,-0.4517,-0.4517,-0.4517,-0.4517,-0.4517,-0.4517,-0.4517,-1.541,-1.541,-1.52,-1.4521,-1.4961,-1.4742,-1.2805,-0.966,-0.7936,-0.9214,-1.0116,-1.0624,-1.0624,-1.014,-1.111,-1.4117,-1.4399,-1.3965,-1.2949,-1.2881,-1.2881,-1.2881,-1.1301,-0.9928,-0.8808,-0.8808,-0.8808,-0.8808,-0.8327,-0.8093,-0.8066,-0.688,-0.6957,-0.8093,-0.8093,-0.836,-0.8808,-0.8808,-0.8808,-0.8808,-0.8808,-0.8808,-0.8808,-0.8808,-0.8808,-0.8808,-0.8808,-0.8808,-0.8368,-0.5496,-0.4517,-0.4517,-0.4517,-0.2453,0.0,0.0,0.0,0.0,0.0,0.0,0.0,0.0,0.0,0.0,0.0,0.0,0.0,0.0,0.0,0.0,0.0,-0.1508,-0.3121,-0.4294,-0.4216,-0.4841,-0.7357,-0.7325,-0.6979,-0.6979,-0.5779,-0.4475,-0.3187,-0.3149,-0.3109,-0.274,-0.4307,-0.4529,-0.2779,-0.3633,-0.3997,-0.359,-0.3856,-0.4155,-0.4513,-0.4517,-0.4517,-0.4517,-0.4517,-0.5386,-0.712,-0.8262,-0.8808,-0.8808,-0.8808,-0.7827,-0.6145,-0.4952,-0.4517,-0.4517,-0.4517,-0.4517,-0.4517,-0.4517,-0.4517,-0.4517,-1.541,-1.541,-1.541,-1.541,-1.4624,-1.2903,-0.9561,-0.6987,-0.5428,-0.5428,-0.7572,-0.9454,-1.0495,-1.0624,-1.19,-1.5108,-1.541,-1.4907,-1.3701,-1.3154,-1.2881,-1.2881,-1.0285,-0.8808,-0.8808,-0.8808,-0.8808,-0.8808,-0.8808,-0.8808,-0.8788,-0.7943,-0.8415,-1.0032,-1.0032,-0.9573,-0.8808,-0.8808,-0.8808,-0.8752,-0.788,-0.7554,-0.7554,-0.7554,-0.8043,-0.8808,-0.8808,-0.8262,-0.7227,-0.5169,-0.4517,-0.4517,-0.4517,-0.2453,0.0,0.0,0.0,0.0,0.0,0.0,0.0,0.0,0.0,0.0,0.0,0.0,0.0,0.0,0.0,0.0,0.0,-0.2453,-0.4517,-0.4517,-0.4161,-0.46,-0.6721,-0.6979,-0.6764,-0.6076,-0.4574,-0.3412,-0.3023,-0.3331,-0.3331,-0.2761,-0.4017,-0.4189,-0.2789,-0.3694,-0.4143,-0.3894,-0.3715,-0.3912,-0.4512,-0.4517,-0.4517,-0.4519,-0.5332,-0.6848,-0.8808,-0.8808,-0.8808,-0.8808,-0.8808,-0.7176,-0.4517,-0.4517,-0.4517,-0.4517,-0.4517,-0.4517,-0.4517,-0.4517,-0.4517,-0.4517,-1.541,-1.541,-1.541,-1.541,-1.2749,-0.9515,-0.6015,-0.5427,-0.5428,-0.5428,-0.5427,-0.6793,-1.0231,-1.0624,-1.19,-1.5108,-1.541,-1.54,-1.5381,-1.3813,-1.2881,-1.2881,-1.0285,-0.8808,-0.8808,-0.8808,-0.8808,-0.8808,-0.8808,-0.8808,-0.8808,-0.8791,-1.0218,-1.2827,-1.2827,-1.1351,-0.8808,-0.8808,-0.8808,-0.8533,-0.5712,-0.4572,-0.4572,-0.4572,-0.6308,-0.8808,-0.8808,-0.6958,-0.4572,-0.4519,-0.4517,-0.4517,-0.4517,-0.2453,0.0,0.0,0.0,0.0,0.0,0.0,0.0,0.0,0.0,0.0,0.0,0.0,0.0,0.0,0.0,0.0,0.0,-0.2453,-0.4517,-0.4517,-0.4512,-0.507,-0.6743,-0.6979,-0.6164,-0.3928,-0.3624,-0.3576,-0.357,-0.3576,-0.3331,-0.2761,-0.3272,-0.3349,-0.2747,-0.3259,-0.3902,-0.4489,-0.3933,-0.3912,-0.4512,-0.4517,-0.4517,-0.4517,-0.7391,-0.8755,-0.8808,-0.8808,-0.8808,-0.8808,-0.8808,-0.7176,-0.4517,-0.4517,-0.4517,-0.4517,-0.4517,-0.4517,-0.4517,-0.4517,-0.4517,-0.4517,-1.541,-1.541,-1.541,-1.541,-1.0795,-0.5857,-0.2278,-0.1746,-0.1746,-0.1746,-0.3885,-0.6728,-1.0231,-1.0624,-1.19,-1.5108,-1.541,-1.541,-1.541,-1.4907,-1.4087,-1.2935,-1.0285,-0.8808,-0.8808,-0.8808,-0.8808,-0.8808,-0.8808,-0.9777,-1.1606,-1.1606,-1.2062,-1.2881,-1.2881,-1.1351,-0.8808,-0.8808,-0.7664,-0.5767,-0.4844,-0.4517,-0.4517,-0.4517,-0.6308,-0.8537,-0.6578,-0.5277,-0.4517,-0.4517,-0.4517,-0.4125,-0.2065,-0.0783,0.0,0.0,0.0,0.0,0.0,0.0,0.0,0.0,0.0,0.0,0.0,0.0,0.0,0.0,0.0,0.0,0.0,-0.2453,-0.4517,-0.4517,-0.4517,-0.4565,-0.4681,-0.4703,-0.4401,-0.3667,-0.358,-0.358,-0.358,-0.358,-0.35,-0.3308,-0.3471,-0.3317,-0.2747,-0.3253,-0.3899,-0.4498,-0.4333,-0.4325,-0.4515,-0.4517,-0.5496,-0.7447,-0.8368,-0.8808,-0.8808,-0.8808,-0.8808,-0.8699,-0.674,-0.5332,-0.4517,-0.4517,-0.4517,-0.4517,-0.4517,-0.4517,-0.4517,-0.4517,-0.4517,-0.4517,-1.541,-1.541,-1.5045,-1.3833,-0.7904,-0.2141,0.1474,0.0874,0.0,0.0,-0.315,-0.6728,-1.0231,-1.1655,-1.3231,-1.5225,-1.541,-1.541,-1.541,-1.541,-1.4936,-1.3877,-1.2185,-1.0485,-0.8814,-0.8808,-0.8808,-0.8808,-0.8808,-0.9673,-1.1351,-1.1351,-1.1351,-1.1351,-1.1351,-1.0387,-0.8752,-0.7664,-0.6145,-0.4517,-0.4517,-0.4517,-0.4517,-0.4517,-0.6308,-0.8586,-0.674,-0.5439,-0.4517,-0.4517,-0.4517,-0.3959,-0.0951,0.0,0.0,0.0,0.0,0.0,0.0,0.0,0.0,0.0,0.0,0.0,0.0,0.0,0.0,0.0,0.0,0.0,0.0,-0.2453,-0.4517,-0.4517,-0.4517,-0.4386,-0.4012,-0.3765,-0.358,-0.358,-0.358,-0.358,-0.358,-0.358,-0.358,-0.358,-0.358,-0.3415,-0.3076,-0.3376,-0.3899,-0.4498,-0.4517,-0.4517,-0.4517,-0.4517,-0.5928,-0.8808,-0.8808,-0.8808,-0.8808,-0.8808,-0.8206,-0.7066,-0.5279,-0.4517,-0.4517,-0.4517,-0.4517,-0.4517,-0.4517,-0.4517,-0.4517,-0.4517,-0.4517,-0.4517,-1.541,-1.541,-1.4314,-1.0846,-0.4361,0.1478,0.4891,0.2547,0.0269,0.0,-0.315,-0.6789,-1.0534,-1.3819,-1.5685,-1.5685,-1.5685,-1.5685,-1.5685,-1.5522,-1.541,-1.541,-1.5167,-1.3112,-0.8884,-0.8808,-0.8808,-0.8808,-0.8808,-0.8808,-0.8808,-0.8808,-0.8808,-0.8808,-0.8808,-0.8808,-0.859,-0.5712,-0.4517,-0.4517,-0.4517,-0.4517,-0.4517,-0.4734,-0.647,-0.8808,-0.8808,-0.7066,-0.4789,-0.4789,-0.468,-0.3959,-0.0951,0.0,0.0,0.0,0.0,0.0,0.0,0.0,0.0,0.0,0.0,0.0,0.0,0.0,0.0,0.0,0.0,0.0,0.0,-0.2453,-0.4517,-0.4517,-0.4517,-0.4517,-0.4517,-0.4002,-0.358,-0.358,-0.358,-0.3667,-0.3842,-0.3711,-0.3598,-0.3637,-0.3604,-0.3598,-0.3639,-0.3643,-0.3942,-0.45,-0.4517,-0.4517,-0.4517,-0.468,-0.6145,-0.8808,-0.8808,-0.8808,-0.8808,-0.8808,-0.7227,-0.4515,-0.4472,-0.4455,-0.4458,-0.45,-0.4517,-0.4517,-0.4517,-0.4517,-0.4517,-0.4517,-0.4517,-0.4517,-1.541,-1.541,-1.3523,-0.7673,-0.0662,0.4421,0.5292,0.469,0.315,0.0337,-0.315,-0.7653,-1.3627,-1.6953,-1.8756,-1.8756,-1.8756,-1.8756,-1.8756,-1.6676,-1.541,-1.541,-1.3053,-1.082,-0.8831,-0.8808,-0.8808,-0.8808,-0.8808,-0.8808,-0.8808,-0.8808,-0.8808,-0.8808,-0.8808,-0.8808,-0.859,-0.5712,-0.4517,-0.4517,-0.4517,-0.4517,-0.4736,-0.6956,-0.8206,-0.8808,-0.8808,-0.8368,-0.7771,-0.7771,-0.6308,-0.3959,-0.0951,0.0,0.0,0.0,0.0,0.0,0.0,0.0,0.0,0.0,0.0,0.0,0.0,0.0,0.0,0.0,0.0,0.0,0.0,-0.2453,-0.4517,-0.4517,-0.4517,-0.4517,-0.4517,-0.4002,-0.358,-0.358,-0.358,-0.4272,-0.6036,-0.4618,-0.3813,-0.4271,-0.3883,-0.3778,-0.4282,-0.4307,-0.4371,-0.4512,-0.4517,-0.4517,-0.4517,-0.6686,-0.8153,-0.8808,-0.8808,-0.8808,-0.8808,-0.8808,-0.7227,-0.4493,-0.4033,-0.3835,-0.3871,-0.4328,-0.4517,-0.4517,-0.4517,-0.4517,-0.4517,-0.4517,-0.4517,-0.4517,-1.541,-1.541,-1.3348,-0.6954,0.0412,0.5951,0.7509,0.6404,0.4086,0.0471,-0.4518,-0.9699,-1.4845,-1.8041,-2.0276,-2.1465,-2.0471,-1.9805,-1.9805,-1.7063,-1.541,-1.541,-1.2324,-1.0261,-0.9623,-0.9606,-0.9345,-0.8808,-0.8808,-0.8808,-0.8808,-0.8808,-0.8808,-0.8808,-0.8808,-0.8808,-0.859,-0.5712,-0.4517,-0.4625,-0.5928,-0.647,-0.6632,-0.8206,-0.799,-0.7012,-0.8315,-0.8808,-0.8808,-0.8808,-0.6904,-0.4237,-0.2564,-0.1118,0.0,0.0,0.0,0.0,0.0,0.0,0.0,0.0,0.0,0.0,0.0,0.0,0.0,0.0,0.0,-0.0448,-0.1786,-0.34,-0.4517,-0.4517,-0.4517,-0.4517,-0.4517,-0.4002,-0.368,-0.4,-0.4033,-0.4515,-0.576,-0.4755,-0.4167,-0.4493,-0.4216,-0.4175,-0.45,-0.4517,-0.4517,-0.4517,-0.4517,-0.4517,-0.4517,-0.7337,-0.8808,-0.8808,-0.8808,-0.8808,-0.8752,-0.7447,-0.5982,-0.45,-0.4175,-0.4033,-0.4058,-0.4383,-0.4517,-0.4517,-0.4517,-0.4517,-0.4484,-0.4209,-0.4282,-0.4479,-1.5806,-1.5591,-1.3599,-0.7912,-0.1069,0.5006,0.9201,0.7767,0.4674,0.0538,-0.6627,-1.2549,-1.5713,-1.8649,-2.1225,-2.3406,-2.1609,-2.0232,-1.985,-1.7063,-1.541,-1.541,-1.2324,-1.0624,-1.0624,-1.0624,-1.007,-0.9072,-0.8895,-0.8808,-0.8808,-0.8808,-0.8808,-0.8808,-0.8808,-0.8808,-0.8643,-0.6199,-0.5169,-0.5386,-0.7824,-0.8808,-0.8808,-0.8808,-0.7283,-0.5496,-0.7934,-0.8808,-0.8808,-0.8808,-0.6904,-0.4517,-0.4517,-0.2453,0.0,0.0,0.0,0.0,0.0,0.0,-0.0112,-0.056,-0.0671,-0.0671,-0.0671,-0.0671,-0.0671,-0.0671,-0.0671,-0.1452,-0.4013,-0.4517,-0.4517,-0.4517,-0.4517,-0.4517,-0.4517,-0.4079,-0.3947,-0.4457,-0.4517,-0.4517,-0.4517,-0.4517,-0.4517,-0.4517,-0.4517,-0.4517,-0.4517,-0.4517,-0.4517,-0.4517,-0.4517,-0.4736,-0.5171,-0.7554,-0.8808,-0.8808,-0.8808,-0.8808,-0.8692,-0.5699,-0.4431,-0.4512,-0.4421,-0.4383,-0.4383,-0.4383,-0.4383,-0.4383,-0.4383,-0.4383,-0.4321,-0.3811,-0.3945,-0.4311,-1.7607,-1.6421,-1.4258,-1.0561,-0.693,-0.206,0.5129,0.8218,0.7452,0.0872,-0.8558,-1.5798,-1.8803,-2.1472,-2.3172,-2.3551,-2.3216,-2.2079,-1.9946,-1.7063,-1.541,-1.541,-1.2324,-1.0624,-1.0624,-1.0624,-1.0537,-1.0349,-0.9292,-0.8808,-0.8808,-0.8808,-0.8808,-0.8808,-0.8808,-0.8808,-0.8755,-0.8315,-0.8153,-0.8153,-0.8643,-0.8808,-0.8808,-0.8808,-0.8533,-0.8209,-0.8643,-0.8808,-0.8808,-0.8808,-0.6904,-0.4517,-0.4517,-0.2453,0.0,0.0,0.0,0.0,0.0,0.0,-0.0616,-0.3177,-0.379,-0.379,-0.379,-0.379,-0.379,-0.379,-0.379,-0.3958,-0.4406,-0.4517,-0.4517,-0.4517,-0.4517,-0.4517,-0.4517,-0.4438,-0.4414,-0.4506,-0.4517,-0.4517,-0.4517,-0.4517,-0.4517,-0.4517,-0.4517,-0.4517,-0.4517,-0.4517,-0.4517,-0.4517,-0.4517,-0.5658,-0.8099,-0.859,-0.8808,-0.8808,-0.8808,-0.8808,-0.8666,-0.5289,-0.404,-0.4489,-0.3983,-0.3717,-0.3717,-0.3717,-0.3717,-0.3717,-0.3717,-0.3717,-0.3705,-0.3614,-0.3637,-0.3704,-1.8008,-1.7363,-1.6061,-1.3618,-1.066,-0.6859,-0.1659,0.24,0.3038,-0.2206,-1.0177,-1.7048,-2.137,-2.2883,-2.3602,-2.3602,-2.2363,-2.1037,-1.9901,-1.7063,-1.541,-1.541,-1.2324,-1.0624,-1.0624,-1.0624,-1.0624,-1.0624,-1.0017,-0.9753,-0.9753,-0.9753,-0.9412,-0.8808,-0.8808,-0.8808,-0.8808,-0.8808,-0.8808,-0.8808,-0.8808,-0.8808,-0.8808,-0.8808,-0.8808,-0.8808,-0.8808,-0.8808,-0.8586,-0.7012,-0.5603,-0.4517,-0.4517,-0.3566,-0.2398,-0.2398,-0.1285,0.0,0.0,0.0,-0.0727,-0.3735,-0.4517,-0.4517,-0.4517,-0.4517,-0.4517,-0.4517,-0.4517,-0.4517,-0.4517,-0.4517,-0.4517,-0.4517,-0.4517,-0.4517,-0.4517,-0.4517,-0.4517,-0.4517,-0.4517,-0.4391,-0.4067,-0.4328,-0.4517,-0.4517,-0.4517,-0.4517,-0.4517,-0.4517,-0.4517,-0.4517,-0.4517,-0.5117,-0.6473,-0.8043,-0.8808,-0.8808,-0.8808,-0.7795,-0.5963,-0.4337,-0.3775,-0.4021,-0.3698,-0.358,-0.358,-0.358,-0.358,-0.358,-0.358,-0.358,-0.358,-0.358,-0.358,-0.358,-1.8008,-1.8008,-1.7461,-1.5718,-1.2749,-0.9861,-0.7651,-0.4566,-0.346,-0.6262,-1.1714,-1.7285,-2.2168,-2.2741,-2.2741,-2.2741,-2.0939,-1.9527,-1.8815,-1.595,-1.4259,-1.4259,-1.19,-1.0624,-1.0624,-1.0624,-1.0624,-1.0624,-1.0624,-1.0624,-1.0624,-1.0624,-0.9933,-0.8808,-0.8808,-0.8808,-0.8752,-0.8096,-0.8209,-0.8808,-0.8808,-0.8808,-0.8808,-0.8808,-0.8808,-0.8808,-0.8808,-0.8808,-0.8368,-0.5496,-0.4517,-0.4517,-0.4517,-0.4517,-0.4517,-0.4517,-0.2342,0.0,0.0,0.0,-0.056,-0.2899,-0.3959,-0.4517,-0.4517,-0.4517,-0.4517,-0.4517,-0.4517,-0.4517,-0.4517,-0.4517,-0.4517,-0.4517,-0.4517,-0.4517,-0.4517,-0.4517,-0.4517,-0.4517,-0.4517,-0.4337,-0.3876,-0.412,-0.4367,-0.4506,-0.4517,-0.4517,-0.4517,-0.4517,-0.4453,-0.4314,-0.4311,-0.4311,-0.4311,-0.6993,-0.8162,-0.7824,-0.7638,-0.6169,-0.358,-0.358,-0.358,-0.358,-0.358,-0.358,-0.358,-0.358,-0.358,-0.358,-0.358,-0.358,-0.358,-0.358,-0.358,-0.358,-1.8008,-1.8008,-1.7461,-1.5718,-1.2749,-1.0524,-1.0348,-1.0015,-0.9891,-1.0168,-1.3218,-1.661,-1.9761,-2.0086,-2.0086,-2.0086,-1.9895,-1.865,-1.5906,-1.2736,-1.0926,-1.0926,-1.0747,-1.0624,-1.0624,-1.0624,-1.0624,-1.0624,-1.0624,-1.0624,-1.0624,-1.0624,-0.9933,-0.8808,-0.8808,-0.8808,-0.8643,-0.593,-0.6362,-0.8808,-0.8808,-0.8808,-0.8808,-0.8808,-0.8808,-0.8808,-0.8808,-0.8808,-0.8368,-0.5496,-0.4517,-0.4517,-0.4517,-0.4517,-0.4517,-0.4517,-0.2342,0.0,0.0,0.0,-0.0056,-0.028,-0.2453,-0.4517,-0.4517,-0.4517,-0.4517,-0.4517,-0.4517,-0.4517,-0.4517,-0.4517,-0.4517,-0.4517,-0.4517,-0.4517,-0.4517,-0.4517,-0.4517,-0.4517,-0.4517,-0.45,-0.4457,-0.399,-0.3921,-0.4476,-0.4517,-0.4517,-0.4517,-0.4517,-0.4264,-0.3663,-0.3646,-0.3646,-0.3646,-0.5971,-0.6376,-0.4836,-0.4239,-0.3844,-0.358,-0.358,-0.358,-0.358,-0.358,-0.358,-0.358,-0.358,-0.358,-0.358,-0.358,-0.358,-0.358,-0.358,-0.358,-0.358,-1.4942,-1.4442,-1.4277,-1.3606,-1.2448,-1.1396,-1.0732,-1.0624,-1.0624,-1.0624,-1.1655,-1.3614,-1.6706,-1.7058,-1.7058,-1.7058,-1.7058,-1.5773,-1.2618,-1.1292,-1.0624,-1.0624,-1.0624,-1.0624,-1.0624,-1.0624,-1.0624,-1.0624,-1.0624,-1.0624,-1.0624,-1.0624,-1.0386,-0.9897,-0.9897,-0.8489,-0.6036,-0.4952,-0.5115,-0.6145,-0.6145,-0.6145,-0.6145,-0.6145,-0.6145,-0.6145,-0.6145,-0.6145,-0.5982,-0.4844,-0.4517,-0.4517,-0.4517,-0.4517,-0.4517,-0.4517,-0.2342,0.0,0.0,0.0,0.0,0.0,-0.0839,-0.2175,-0.407,-0.4517,-0.4517,-0.4517,-0.4517,-0.4517,-0.4517,-0.4517,-0.4517,-0.4517,-0.4517,-0.4517,-0.4517,-0.4517,-0.4517,-0.4517,-0.4517,-0.4517,-0.4517,-0.4312,-0.4273,-0.45,-0.4517,-0.4517,-0.4517,-0.4165,-0.3859,-0.3587,-0.358,-0.358,-0.358,-0.4445,-0.4587,-0.3961,-0.3688,-0.358,-0.358,-0.358,-0.358,-0.358,-0.358,-0.358,-0.358,-0.358,-0.358,-0.358,-0.358,-0.358,-0.358,-0.358,-0.358,-0.358,-1.2802,-1.2301,-1.2301,-1.2301,-1.2301,-1.2034,-1.1229,-1.086,-1.0624,-1.0624,-1.0624,-1.1413,-1.3653,-1.3897,-1.3897,-1.3897,-1.3897,-1.2988,-1.0744,-1.0624,-1.0624,-1.0624,-1.0624,-1.0624,-1.0624,-1.0624,-1.0624,-1.0624,-1.0624,-1.0624,-1.0624,-1.0624,-1.0624,-1.0558,-0.9454,-0.7432,-0.4803,-0.4803,-0.4803,-0.4803,-0.4803,-0.4688,-0.4517,-0.4517,-0.4517,-0.4517,-0.4517,-0.4517,-0.4517,-0.4517,-0.4517,-0.4517,-0.4517,-0.4517,-0.4517,-0.4517,-0.301,-0.1229,-0.028,0.0,0.0,0.0,0.0,-0.0783,-0.379,-0.4517,-0.4517,-0.4517,-0.4517,-0.4789,-0.5658,-0.5873,-0.5873,-0.5873,-0.5117,-0.4517,-0.4517,-0.4517,-0.4517,-0.4517,-0.4517,-0.4517,-0.4517,-0.3624,-0.3066,-0.3066,-0.3958,-0.4436,-0.4247,-0.3847,-0.358,-0.358,-0.358,-0.358,-0.358,-0.358,-0.358,-0.358,-0.358,-0.358,-0.358,-0.358,-0.358,-0.358,-0.358,-0.358,-0.358,-0.358,-0.358,-0.358,-0.358,-0.358,-0.358,-0.358,-0.358,-0.358,-1.2301,-1.2301,-1.2301,-1.2301,-1.2301,-1.2301,-1.2301,-1.1313,-1.0624,-1.0624,-1.0624,-1.0624,-1.0624,-1.0624,-1.0624,-1.0624,-1.0624,-1.0624,-1.0624,-1.0624,-1.0624,-1.0624,-1.0624,-1.0624,-1.0624,-1.0624,-1.0624,-1.0624,-1.0624,-1.0624,-1.0624,-1.0624,-1.0558,-1.0428,-0.6922,-0.5428,-0.5428,-0.5428,-0.5428,-0.5428,-0.5428,-0.5066,-0.4525,-0.4525,-0.452,-0.4517,-0.4517,-0.4517,-0.4517,-0.4517,-0.4517,-0.4517,-0.4517,-0.4517,-0.4517,-0.4517,-0.4517,-0.3846,-0.0839,0.0,0.0,0.0,0.0,-0.0783,-0.379,-0.4462,-0.4517,-0.4517,-0.4519,-0.5386,-0.8259,-0.8808,-0.8808,-0.8808,-0.6416,-0.4517,-0.4517,-0.4517,-0.4517,-0.4517,-0.4517,-0.4517,-0.4462,-0.173,0.0,0.0,-0.2788,-0.4256,-0.3612,-0.358,-0.358,-0.358,-0.358,-0.358,-0.358,-0.358,-0.358,-0.358,-0.358,-0.358,-0.358,-0.358,-0.358,-0.358,-0.358,-0.358,-0.358,-0.358,-0.358,-0.358,-0.358,-0.358,-0.358,-0.358,-0.358,-0.358,-1.2301,-1.2301,-1.2301,-1.2301,-1.2301,-1.2301,-1.2301,-1.1313,-1.0624,-1.0624,-1.0624,-1.0624,-1.0624,-1.0624,-1.0624,-1.0624,-1.0624,-1.0624,-1.0624,-1.0624,-1.0624,-1.0624,-1.0624,-1.0624,-1.0624,-1.0624,-1.0624,-1.0624,-1.0624,-1.0624,-1.0624,-1.0624,-0.9323,-0.6922,-0.5885,-0.5428,-0.5428,-0.5428,-0.5428,-0.5428,-0.5428,-0.5319,-0.5157,-0.5157,-0.4891,-0.4517,-0.4517,-0.4517,-0.4517,-0.4517,-0.4517,-0.4517,-0.4517,-0.4517,-0.4517,-0.4517,-0.4517,-0.3846,-0.0839,0.0,0.0,0.0,0.0,-0.0224,-0.1118,-0.2955,-0.4517,-0.4517,-0.6091,-0.7771,-0.8643,-0.8808,-0.8808,-0.8808,-0.8096,-0.6797,-0.4791,-0.4517,-0.4517,-0.4517,-0.4517,-0.3678,-0.1563,-0.0504,0.0,0.0,-0.2788,-0.4256,-0.3612,-0.358,-0.358,-0.358,-0.358,-0.358,-0.358,-0.358,-0.358,-0.358,-0.358,-0.358,-0.358,-0.358,-0.358,-0.358,-0.358,-0.358,-0.358,-0.358,-0.2593,-0.1254,-0.2951,-0.358,-0.358,-0.358,-0.358,-0.358,-1.2301,-1.2301,-1.2301,-1.2301,-1.2301,-1.2301,-1.2301,-1.1703,-1.1249,-1.1249,-1.0913,-1.0624,-1.0624,-1.0624,-1.0624,-1.0624,-1.0624,-1.0624,-1.0624,-1.0624,-1.0624,-1.0624,-1.0624,-1.0624,-1.0624,-1.0624,-1.0624,-1.0624,-1.0624,-1.0624,-1.0624,-1.0624,-0.874,-0.5428,-0.5428,-0.5428,-0.5428,-0.5428,-0.5428,-0.5428,-0.5428,-0.5428,-0.5428,-0.5428,-0.5049,-0.4517,-0.4517,-0.4517,-0.4294,-0.3122,-0.2732,-0.2732,-0.2732,-0.2732,-0.2955,-0.4125,-0.4517,-0.4127,-0.2287,-0.0895,0.0,0.0,0.0,-0.0336,-0.1508,-0.3177,-0.4517,-0.4517,-0.6794,-0.8808,-0.8808,-0.8808,-0.8808,-0.8808,-0.8808,-0.7774,-0.4899,-0.4517,-0.407,-0.2844,-0.2732,-0.2008,-0.0168,0.0,-0.0504,-0.1675,-0.3456,-0.4256,-0.3612,-0.358,-0.358,-0.358,-0.358,-0.358,-0.358,-0.358,-0.358,-0.358,-0.358,-0.358,-0.358,-0.358,-0.358,-0.358,-0.358,-0.358,-0.3535,-0.2549,-0.1298,-0.0135,-0.1611,-0.2772,-0.358,-0.358,-0.358,-0.358,-1.2301,-1.2301,-1.2301,-1.2301,-1.2301,-1.2301,-1.2301,-1.2301,-1.2301,-1.2301,-1.1286,-1.0624,-1.0624,-1.0624,-1.0624,-1.0624,-1.0624,-1.0624,-1.0624,-1.0624,-1.0624,-1.0624,-1.0624,-1.0624,-1.0624,-1.0624,-1.0624,-1.0624,-1.0624,-1.0624,-1.0624,-1.0624,-0.874,-0.5428,-0.5428,-0.5428,-0.5428,-0.5428,-0.5428,-0.5428,-0.5428,-0.5428,-0.5428,-0.5428,-0.5083,-0.4592,-0.4537,-0.4517,-0.4015,-0.1006,0.0,0.0,0.0,0.0,-0.0616,-0.3623,-0.4517,-0.4462,-0.4182,-0.212,0.0,0.0,0.0,-0.0783,-0.379,-0.4517,-0.4572,-0.4844,-0.6958,-0.8808,-0.8808,-0.8808,-0.8808,-0.8808,-0.8808,-0.7774,-0.4899,-0.4517,-0.34,-0.0336,0.0,0.0,0.0,0.0,-0.1229,-0.4293,-0.4467,-0.4199,-0.3609,-0.358,-0.358,-0.358,-0.358,-0.358,-0.358,-0.358,-0.358,-0.358,-0.358,-0.358,-0.358,-0.358,-0.358,-0.358,-0.358,-0.358,-0.3444,-0.1209,-0.018,0.0,0.0,-0.1343,-0.3266,-0.3266,-0.3401,-0.358,-1.2301,-1.2301,-1.2301,-1.2301,-1.2301,-1.2301,-1.2301,-1.2301,-1.2301,-1.2301,-1.1286,-1.0624,-1.0624,-1.0624,-1.0624,-1.0624,-1.0624,-1.0624,-1.0624,-1.0624,-1.0624,-1.0624,-1.0624,-1.0624,-1.0624,-1.0624,-1.0624,-1.0624,-1.0624,-1.0624,-1.0624,-1.0624,-0.874,-0.5428,-0.5428,-0.5428,-0.5428,-0.5428,-0.5428,-0.5428,-0.5428,-0.5428,-0.5428,-0.5428,-0.5346,-0.5167,-0.4688,-0.4517,-0.4015,-0.1006,0.0,0.0,0.0,0.0,-0.0616,-0.3623,-0.4517,-0.3959,-0.162,-0.0504,0.0,0.0,0.0,-0.0783,-0.379,-0.4517,-0.5117,-0.7393,-0.8371,-0.8808,-0.8808,-0.8808,-0.8808,-0.8808,-0.8808,-0.7774,-0.4899,-0.4517,-0.34,-0.0336,0.0,0.0,0.0,0.0,-0.1229,-0.4293,-0.4084,-0.3715,-0.3587,-0.358,-0.358,-0.358,-0.358,-0.358,-0.358,-0.358,-0.358,-0.358,-0.358,-0.358,-0.358,-0.358,-0.358,-0.358,-0.358,-0.358,-0.3578,-0.3041,-0.17,0.0,0.0,-0.0314,-0.0762,-0.0762,-0.1968,-0.358,-1.2301,-1.2301,-1.2301,-1.2301,-1.2301,-1.2301,-1.2301,-1.2301,-1.2301,-1.2301,-1.1286,-1.0836,-1.1329,-1.096,-1.0624,-1.0624,-1.0624,-1.0624,-1.0624,-1.0624,-1.0624,-1.0624,-1.0624,-1.0624,-1.0624,-1.0624,-1.0624,-1.0624,-1.0624,-1.0624,-1.0624,-1.0624,-0.9646,-0.7897,-0.7897,-0.7897,-0.7767,-0.6079,-0.5428,-0.5428,-0.5428,-0.5428,-0.5428,-0.5428,-0.5428,-0.5348,-0.4737,-0.3568,-0.212,-0.056,0.0,0.0,0.0,0.0,-0.0336,-0.1897,-0.34,-0.4181,-0.2564,-0.212,-0.1786,-0.0336,-0.1062,-0.2564,-0.4125,-0.4517,-0.5332,-0.8206,-0.8808,-0.8808,-0.8808,-0.8808,-0.8808,-0.8808,-0.8808,-0.7774,-0.4899,-0.3288,-0.1786,-0.0168,0.0,0.0,0.0,0.0,-0.1229,-0.4293,-0.4228,-0.4052,-0.4052,-0.3734,-0.358,-0.358,-0.358,-0.358,-0.358,-0.358,-0.358,-0.358,-0.358,-0.358,-0.358,-0.358,-0.358,-0.358,-0.358,-0.358,-0.358,-0.358,-0.2861,-0.1611,-0.0449,0.0,0.0,0.0,-0.0807,-0.1878,-1.2301,-1.2301,-1.2301,-1.2301,-1.2301,-1.2301,-1.2301,-1.2301,-1.2301,-1.2301,-1.146,-1.1229,-1.2198,-1.0773,-0.9713,-0.9713,-1.0234,-1.0624,-1.0624,-1.0624,-1.0624,-1.0624,-1.0624,-1.0624,-1.0624,-1.0624,-1.0624,-1.0624,-1.0624,-1.0624,-1.0624,-1.0624,-1.0624,-1.0624,-1.0624,-1.0624,-1.0364,-0.6859,-0.5428,-0.5428,-0.5428,-0.5428,-0.5428,-0.5428,-0.5428,-0.5361,-0.4855,-0.2672,-0.0056,-0.0616,-0.0783,-0.0671,-0.0168,0.0,0.0,0.0,-0.212,-0.4517,-0.4517,-0.4517,-0.3901,-0.1396,-0.2675,-0.4517,-0.4517,-0.4517,-0.5332,-0.8206,-0.8808,-0.8808,-0.8808,-0.8424,-0.8046,-0.8046,-0.8046,-0.723,-0.4844,-0.1898,0.0,0.0,0.0,0.0,0.0,0.0,-0.1062,-0.3568,-0.4182,-0.4472,-0.4371,-0.3894,-0.358,-0.358,-0.358,-0.358,-0.358,-0.358,-0.358,-0.358,-0.3174,-0.2996,-0.2996,-0.2996,-0.322,-0.358,-0.358,-0.358,-0.358,-0.358,-0.358,-0.3401,-0.1387,-0.0359,0.0,0.0,0.0,0.0,-1.2301,-1.2301,-1.2301,-1.2301,-1.2301,-1.2301,-1.2301,-1.2301,-1.2301,-1.2301,-1.2164,-1.2128,-1.2285,-0.8626,-0.6079,-0.6079,-0.8868,-1.0624,-1.0624,-1.0624,-1.0624,-1.0624,-1.0624,-1.0624,-1.0624,-1.0624,-1.0624,-1.0624,-1.0624,-1.0624,-1.0624,-1.0624,-1.0624,-1.0624,-1.0624,-1.0624,-1.0364,-0.6859,-0.5428,-0.5428,-0.5428,-0.5428,-0.5428,-0.5428,-0.5428,-0.5416,-0.5336,-0.3003,-0.0392,-0.301,-0.3901,-0.3456,-0.0839,0.0,0.0,0.0,-0.212,-0.4517,-0.4517,-0.4517,-0.4406,-0.4015,-0.4182,-0.4517,-0.4517,-0.4517,-0.5332,-0.8206,-0.8808,-0.8808,-0.8808,-0.674,-0.506,-0.506,-0.506,-0.4954,-0.4572,-0.1898,0.0,0.0,0.0,0.0,0.0,0.0,-0.0168,-0.056,-0.301,-0.429,-0.3773,-0.3624,-0.358,-0.358,-0.358,-0.358,-0.358,-0.358,-0.358,-0.358,-0.1477,-0.0494,-0.0494,-0.0494,-0.1611,-0.358,-0.358,-0.358,-0.358,-0.358,-0.358,-0.358,-0.322,-0.1835,0.0,0.0,0.0,0.0,-1.2174,-1.2301,-1.2301,-1.2301,-1.2301,-1.2301,-1.2301,-1.2301,-1.2301,-1.2301,-1.2301,-1.2301,-1.2301,-0.8144,-0.5428,-0.5428,-0.8608,-1.0624,-1.0624,-1.0624,-1.0624,-1.0624,-1.0624,-1.0624,-1.0624,-1.0624,-1.0624,-1.0624,-0.8675,-0.8672,-1.0624,-1.0624,-1.0624,-1.0624,-1.0624,-1.0624,-1.0364,-0.6859,-0.5428,-0.5428,-0.5428,-0.5428,-0.5428,-0.5428,-0.5428,-0.5117,-0.3112,-0.135,-0.0448,-0.3456,-0.4517,-0.4293,-0.2954,-0.251,-0.251,-0.251,-0.3456,-0.4517,-0.4517,-0.4517,-0.4517,-0.4517,-0.4517,-0.4517,-0.4517,-0.4517,-0.4844,-0.6145,-0.6416,-0.6416,-0.6416,-0.5332,-0.4517,-0.4517,-0.4517,-0.4517,-0.4517,-0.1898,0.0,0.0,0.0,0.0,0.0,0.0,0.0,0.0,-0.2788,-0.4402,-0.4137,-0.376,-0.2996,-0.1611,-0.1611,-0.1611,-0.1611,-0.1611,-0.1611,-0.1566,-0.0494,0.0,0.0,0.0,-0.0583,-0.1655,-0.2997,-0.358,-0.358,-0.358,-0.358,-0.358,-0.358,-0.2146,0.0,0.0,0.0,0.0]}]]